[[{"header":{"parameterUnit":"m.s-1","parameterCategory":1,"la1":31.0,"la2":29.5877,"lo1":-88.7671,"lo2":-86.6584,"dy":0.0162,"dx":0.0185,"nx":115,"ny":88,"refTime":"2023-02-23T06:00:00:Z","depth":0,"parameterNumber":2,"parameterNumberName":"U-component_of_WINDS"},"data":[0.0,0.0,0.0,0.0,0.0,0.0,0.0,0.0,0.0,0.0,0.0,0.0,0.0,0.0,0.0,0.0,0.0,0.0,0.0,0.0,0.0,0.0,0.0,0.0,0.0,0.0,0.0,0.0,0.0,0.0,0.0,0.0,0.0,0.0,0.0,0.0,0.0,0.0,0.0,0.0,0.0,0.0,0.0,0.0,0.0,0.0,0.0,0.0,0.0,0.0,0.0,0.0,0.0,0.0,0.0,0.0,0.0,0.0,0.0,0.0,0.0,0.0,0.0,0.0,0.0,0.0,0.0,0.0,0.0,0.0,0.0,0.0,0.0,0.0,0.0,0.0,0.0,0.0,0.0,0.0,0.0,0.0,0.0,0.0,0.0,0.0,0.0,0.0,0.0,0.0,0.0,0.0,0.0,0.0,0.0,0.0,0.0,0.0,0.0,0.0,0.0,0.0,0.0,0.0,0.0,0.0,0.0,0.0,0.0,0.0,0.0,0.0,0.0,0.0,0.0,0.0,0.0,0.0,0.0,0.0,0.0,0.0,0.0,0.0,0.0,0.0,0.0,0.0,0.0,0.0,0.0,0.0,0.0,0.0,0.0,0.0,0.0,0.0,0.0,0.0,0.0,0.0,0.0,0.0,0.0,0.0,0.0,0.0,0.0,0.0,0.0,0.0,0.0,0.0,0.0,0.0,0.0,0.0,0.0,0.0,0.0,0.0,0.0,0.0,0.0,0.0,0.0,0.0,0.0,0.0,0.0,0.0,0.0,0.0,0.0,0.0,0.0,0.0,0.0,0.0,0.0,0.0,0.0,0.0,0.0,0.0,0.0,0.0,0.0,0.0,0.0,0.0,0.0,0.0,0.0,0.0,0.0,0.0,0.0,0.0,0.0,0.0,0.0,0.0,0.0,0.0,0.0,0.0,0.0,0.0,0.0,0.0,0.0,0.0,0.0,0.0,0.0,0.0,0.0,0.0,0.0,0.0,0.0,0.0,0.0,0.0,0.0,0.0,0.0,0.0,0.0,0.0,0.0,0.0,0.0,0.0,0.0,0.0,0.0,0.0,0.0,0.0,0.0,0.0,0.0,0.0,0.0,0.0,0.0,0.0,0.0,0.0,0.0,0.0,0.0,0.0,0.0,0.0,0.0,0.0,0.0,0.0,0.0,0.0,0.0,0.0,0.0,0.0,0.0,0.0,0.0,0.0,0.0,0.0,0.0,0.0,0.0,0.0,0.0,0.0,0.0,0.0,0.0,0.0,0.0,0.0,0.0,0.0,0.0,0.0,0.0,0.0,0.0,0.0,0.0,0.0,0.0,0.0,0.0,0.0,0.0,0.0,0.0,0.0,0.0,0.0,0.0,0.0,0.0,0.0,0.0,0.0,0.0,0.0,0.0,0.0,0.0,0.0,0.0,0.0,0.0,0.0,0.0,0.0,0.0,0.0,0.0,0.0,0.0,0.0,0.0,0.0,0.0,0.0,0.0,0.0,0.0,0.0,0.0,0.0,0.0,0.0,0.0,0.0,0.0,0.0,0.0,0.0,0.0,0.0,0.0,0.0,0.0,0.0,0.0,0.0,0.0,0.0,0.0,0.0,0.0,0.0,0.0,0.0,0.0,0.0,0.0,0.0,0.0,0.0,0.0,0.0,0.0,0.0,0.0,0.0,0.0,0.0,0.0,0.0,0.0,0.0,0.0,0.0,0.0,0.0,0.0,0.0,0.0,0.0,0.0,0.0,0.0,0.0,0.0,0.0,0.0,0.0,0.0,0.0,0.0,0.0,0.0,0.0,0.0,0.0,0.0,0.0,0.0,0.0,0.0,0.0,0.0,0.0,0.0,0.0,0.0,0.0,0.0,0.0,0.0,0.0,0.0,0.0,0.0,0.0,0.0,0.0,0.0,0.0,0.0,0.0,0.0,0.0,0.0,0.0,0.0,0.0,0.0,0.0,0.0,0.0,0.0,0.0,0.0,0.0,0.0,0.0,0.0,0.0,0.0,0.0,0.0,0.0,0.0,0.0,0.0,0.0,0.0,0.0,0.0,0.0,0.0,0.0,0.0,0.0,0.0,0.0,0.0,0.0,0.0,0.0,0.0,0.0,0.0,0.0,0.0,0.0,0.0,0.0,0.0,0.0,0.0,0.0,0.0,0.0,0.0,0.0,0.0,0.0,0.0,0.0,0.0,0.0,0.0,0.0,0.0,0.0,0.0,0.0,0.0,0.0,0.0,0.0,0.0,0.0,0.0,0.0,0.0,0.0,0.0,0.0,0.0,0.0,0.0,0.0,0.0,0.0,0.0,0.0,0.0,0.0,0.0,0.0,0.0,0.0,0.0,0.0,0.0,0.0,0.0,0.0,0.0,0.0,0.0,0.0,0.0,0.0,0.0,0.0,0.0,0.0,0.0,0.0,0.0,0.0,0.0,0.0,0.0,0.0,0.0,0.0,0.0,0.0,0.0,0.0,0.0,0.0,0.0,0.0,0.0,0.0,0.0,0.0,0.0,0.0,0.0,0.0,0.0,0.0,0.0,0.0,0.0,0.0,0.0,0.0,0.0,0.0,0.0,0.0,0.0,0.0,0.0,0.0,0.0,0.0,0.0,0.0,0.0,0.0,0.0,0.0,0.0,0.0,0.0,0.0,0.0,0.0,0.0,0.0,0.0,0.0,0.0,0.0,0.0,0.0,0.0,0.0,0.0,0.0,0.0,0.0,0.0,0.0,0.0,0.0,0.0,0.0,0.0,0.0,0.0,0.0,0.0,0.0,0.0,0.0,0.0,0.0,0.0,0.0,0.0,0.0,0.0,0.0,0.0,0.0,0.0,0.0,0.0,0.0,0.0,0.0,0.0,0.0,0.0,0.0,0.0,0.0,0.0,0.0,0.0,0.0,0.0,0.0,0.0,0.0,0.0,0.0,0.0,0.0,0.0,0.0,0.0,0.0,0.0,0.0,0.0,0.0,0.0,0.0,0.0,0.0,0.0,0.0,0.0,0.0,0.0,0.0,0.0,0.0,0.0,0.0,0.0,0.0,0.0,0.0,0.0,0.0,0.0,0.0,0.0,0.0,0.0,0.0,0.0,0.0,0.0,0.0,0.0,0.0,0.0,0.0,0.0,0.0,0.0,0.0,0.0,0.0,0.0,0.0,0.0,0.0,0.0,0.0,0.0,0.0,0.0,0.0,0.0,0.0,0.0,0.0,0.0,0.0,0.0,0.0,0.0,0.0,0.0,0.0,0.0,0.0,0.0,0.0,0.0,0.0,0.0,0.0,0.0,0.0,0.0,0.0,0.0,0.0,0.0,0.0,0.0,0.0,0.0,0.0,0.0,0.0,0.0,0.0,0.0,0.0,0.0,0.0,0.0,0.0,0.0,0.0,0.0,0.0,0.0,0.0,0.0,0.0,0.0,0.0,0.0,0.0,0.0,0.0,0.0,0.0,0.0,0.0,0.0,0.0,0.0,0.0,0.0,0.0,0.0,0.0,0.0,0.0,0.0,0.0,0.0,0.0,0.0,0.0,0.0,0.0,0.0,0.0,0.0,0.0,0.0,0.0,0.0,0.0,0.0,0.0,0.0,0.0,0.0,0.0,0.0,0.0,0.0,0.0,0.0,0.0,0.0,0.0,0.0,0.0,0.0,0.0,0.0,0.0,0.0,0.0,0.0,0.0,0.0,0.0,0.0,0.0,0.0,0.0,0.0,0.0,0.0,0.0,0.0,0.0,0.0,0.0,0.0,0.0,0.0,0.0,0.0,0.0,0.0,0.0,0.0,0.0,0.0,0.0,0.0,0.0,0.0,0.0,0.0,0.0,0.0,0.0,0.0,0.0,0.0,0.0,0.0,0.0,0.0,0.0,0.0,0.0,0.0,0.0,0.0,0.0,0.0,0.0,0.0,0.0,0.0,0.0,0.0,0.0,0.0,0.0,0.0,0.0,0.0,0.0,0.0,0.0,0.0,0.0,0.0,0.0,0.0,0.0,0.0,0.0,0.0,0.0,0.0,0.0,0.0,0.0,0.0,0.0,0.0,0.0,0.0,0.0,0.0,0.0,0.0,0.0,0.0,0.0,0.0,0.0,0.0,0.0,0.0,0.0,0.0,0.0,0.0,0.0,0.0,0.0,0.0,0.0,0.0,0.0,0.0,0.0,0.0,0.0,0.0,0.0,0.0,0.0,0.0,0.0,0.0,0.0,0.0,0.0,0.0,0.0,0.0,0.0,0.0,0.0,0.0,0.0,0.0,0.0,0.0,0.0,0.0,0.0,0.0,0.0,0.0,0.0,-3.9165,0.0,0.0,0.0,0.0,0.0,0.0,0.0,0.0,0.0,0.0,0.0,0.0,0.0,0.0,0.0,0.0,0.0,0.0,0.0,0.0,0.0,0.0,0.0,0.0,0.0,0.0,0.0,0.0,0.0,0.0,0.0,0.0,0.0,0.0,0.0,0.0,0.0,0.0,0.0,0.0,0.0,0.0,0.0,0.0,0.0,0.0,0.0,0.0,0.0,0.0,0.0,0.0,0.0,0.0,0.0,0.0,0.0,0.0,0.0,0.0,0.0,0.0,0.0,0.0,0.0,0.0,0.0,0.0,0.0,0.0,0.0,0.0,0.0,0.0,0.0,0.0,0.0,0.0,0.0,0.0,0.0,0.0,0.0,0.0,0.0,0.0,0.0,0.0,0.0,0.0,0.0,0.0,0.0,0.0,0.0,0.0,0.0,0.0,0.0,0.0,0.0,0.0,0.0,0.0,0.0,0.0,0.0,0.0,0.0,0.0,-4.0005,-3.9392,-3.9003,-3.8871,-3.8974,0.0,0.0,0.0,0.0,0.0,0.0,0.0,0.0,0.0,0.0,0.0,0.0,0.0,0.0,0.0,0.0,0.0,0.0,0.0,0.0,0.0,0.0,0.0,0.0,0.0,0.0,0.0,0.0,0.0,0.0,0.0,0.0,0.0,0.0,0.0,0.0,0.0,0.0,0.0,0.0,0.0,0.0,0.0,0.0,0.0,0.0,0.0,0.0,0.0,0.0,0.0,0.0,0.0,0.0,0.0,0.0,0.0,0.0,0.0,0.0,0.0,0.0,0.0,0.0,0.0,0.0,0.0,0.0,0.0,0.0,0.0,0.0,0.0,0.0,0.0,0.0,0.0,0.0,0.0,0.0,0.0,0.0,0.0,0.0,0.0,0.0,0.0,0.0,0.0,0.0,0.0,0.0,0.0,0.0,0.0,0.0,0.0,0.0,0.0,0.0,0.0,0.0,0.0,0.0,0.0,0.0,0.0,0.0,0.0,0.0,0.0,0.0,-3.8603,-3.8575,-3.844,0.0,0.0,0.0,0.0,0.0,0.0,0.0,0.0,0.0,0.0,0.0,0.0,0.0,0.0,0.0,0.0,0.0,0.0,0.0,0.0,0.0,0.0,0.0,0.0,0.0,0.0,0.0,0.0,0.0,0.0,0.0,0.0,0.0,0.0,0.0,0.0,0.0,0.0,0.0,0.0,0.0,0.0,0.0,0.0,0.0,0.0,0.0,0.0,0.0,0.0,0.0,0.0,0.0,0.0,0.0,0.0,0.0,0.0,0.0,0.0,0.0,0.0,0.0,0.0,0.0,0.0,0.0,0.0,0.0,0.0,0.0,0.0,0.0,0.0,0.0,0.0,0.0,0.0,0.0,0.0,0.0,0.0,0.0,0.0,0.0,0.0,0.0,0.0,0.0,0.0,0.0,0.0,0.0,0.0,0.0,0.0,0.0,0.0,0.0,0.0,0.0,0.0,0.0,0.0,0.0,0.0,0.0,0.0,0.0,0.0,-3.8947,-3.8612,-3.7864,0.0,-3.6851,0.0,0.0,0.0,0.0,0.0,0.0,0.0,0.0,0.0,0.0,0.0,0.0,0.0,0.0,0.0,0.0,0.0,0.0,0.0,0.0,0.0,0.0,0.0,0.0,0.0,0.0,0.0,0.0,0.0,0.0,0.0,0.0,0.0,0.0,0.0,0.0,0.0,0.0,0.0,0.0,0.0,0.0,0.0,0.0,0.0,0.0,0.0,0.0,0.0,0.0,0.0,0.0,0.0,0.0,0.0,0.0,0.0,0.0,0.0,0.0,0.0,0.0,0.0,0.0,0.0,0.0,0.0,0.0,0.0,0.0,0.0,0.0,0.0,0.0,0.0,0.0,0.0,0.0,0.0,0.0,0.0,0.0,0.0,0.0,0.0,0.0,0.0,0.0,0.0,0.0,0.0,0.0,0.0,0.0,0.0,0.0,0.0,0.0,0.0,0.0,0.0,0.0,0.0,0.0,0.0,0.0,0.0,0.0,0.0,0.0,-3.7761,-3.766,-3.7321,-3.6719,0.0,0.0,0.0,0.0,0.0,0.0,0.0,0.0,0.0,0.0,0.0,0.0,0.0,0.0,0.0,0.0,0.0,0.0,0.0,0.0,0.0,0.0,0.0,0.0,0.0,0.0,0.0,0.0,0.0,0.0,0.0,0.0,0.0,0.0,0.0,0.0,0.0,0.0,0.0,0.0,0.0,0.0,0.0,0.0,0.0,0.0,0.0,0.0,0.0,0.0,0.0,0.0,0.0,0.0,0.0,0.0,0.0,0.0,0.0,0.0,0.0,0.0,0.0,0.0,0.0,0.0,0.0,0.0,0.0,0.0,0.0,0.0,0.0,0.0,0.0,0.0,0.0,0.0,0.0,0.0,0.0,0.0,0.0,0.0,0.0,0.0,0.0,0.0,0.0,0.0,0.0,0.0,0.0,0.0,0.0,0.0,0.0,0.0,0.0,0.0,0.0,0.0,0.0,0.0,0.0,0.0,0.0,0.0,0.0,0.0,-3.6798,-3.6855,-3.6592,-3.6574,-3.6061,-3.4988,0.0,0.0,0.0,0.0,0.0,0.0,0.0,0.0,0.0,0.0,0.0,0.0,0.0,0.0,0.0,0.0,0.0,0.0,0.0,0.0,0.0,0.0,0.0,0.0,0.0,0.0,0.0,0.0,0.0,0.0,0.0,0.0,0.0,0.0,0.0,0.0,0.0,0.0,0.0,0.0,0.0,0.0,0.0,0.0,0.0,0.0,0.0,0.0,0.0,0.0,0.0,0.0,0.0,0.0,0.0,0.0,0.0,0.0,0.0,0.0,0.0,0.0,0.0,0.0,0.0,0.0,0.0,0.0,0.0,0.0,0.0,0.0,0.0,0.0,0.0,0.0,0.0,0.0,0.0,0.0,0.0,0.0,0.0,0.0,0.0,0.0,0.0,0.0,0.0,0.0,0.0,0.0,0.0,0.0,0.0,0.0,0.0,0.0,0.0,0.0,0.0,0.0,0.0,0.0,0.0,0.0,0.0,0.0,-3.7673,-3.7212,-3.6487,-3.5485,-3.5485,-3.4957,0.0,0.0,0.0,0.0,0.0,0.0,0.0,0.0,0.0,0.0,0.0,0.0,0.0,0.0,0.0,0.0,0.0,0.0,0.0,0.0,0.0,0.0,0.0,0.0,0.0,0.0,0.0,0.0,0.0,0.0,0.0,0.0,0.0,0.0,0.0,0.0,0.0,0.0,0.0,0.0,0.0,0.0,0.0,0.0,0.0,0.0,0.0,0.0,0.0,0.0,0.0,0.0,0.0,0.0,0.0,0.0,0.0,0.0,0.0,0.0,0.0,0.0,0.0,0.0,0.0,0.0,0.0,0.0,0.0,0.0,0.0,0.0,0.0,0.0,0.0,0.0,0.0,0.0,0.0,0.0,0.0,0.0,0.0,0.0,0.0,0.0,0.0,0.0,0.0,0.0,0.0,0.0,0.0,0.0,0.0,0.0,0.0,0.0,0.0,0.0,0.0,0.0,0.0,0.0,0.0,0.0,0.0,0.0,0.0,-3.4531,-3.4308,-3.3993,-3.3633,-3.3602,-3.3655,0.0,0.0,0.0,0.0,0.0,0.0,0.0,0.0,0.0,0.0,0.0,0.0,0.0,0.0,0.0,0.0,0.0,0.0,0.0,0.0,0.0,0.0,0.0,0.0,0.0,0.0,0.0,0.0,0.0,0.0,0.0,0.0,0.0,0.0,0.0,0.0,0.0,0.0,0.0,0.0,0.0,0.0,0.0,0.0,0.0,0.0,0.0,0.0,0.0,0.0,0.0,0.0,0.0,0.0,0.0,0.0,0.0,0.0,0.0,0.0,0.0,0.0,0.0,0.0,0.0,0.0,0.0,0.0,0.0,0.0,0.0,0.0,0.0,0.0,0.0,0.0,0.0,0.0,0.0,0.0,0.0,0.0,0.0,0.0,0.0,0.0,0.0,0.0,0.0,0.0,0.0,0.0,0.0,0.0,0.0,0.0,0.0,0.0,0.0,0.0,0.0,0.0,0.0,0.0,0.0,0.0,0.0,0.0,0.0,-3.3023,0.0,-3.3133,-3.2619,-3.2601,-3.2601,0.0,0.0,0.0,0.0,0.0,0.0,0.0,0.0,0.0,0.0,0.0,0.0,0.0,0.0,0.0,0.0,0.0,0.0,0.0,0.0,0.0,0.0,0.0,0.0,0.0,0.0,0.0,0.0,0.0,0.0,0.0,0.0,0.0,0.0,0.0,0.0,0.0,0.0,0.0,0.0,0.0,0.0,0.0,0.0,0.0,0.0,0.0,0.0,0.0,0.0,0.0,0.0,0.0,0.0,0.0,0.0,0.0,0.0,0.0,0.0,0.0,0.0,0.0,0.0,0.0,0.0,0.0,0.0,0.0,0.0,0.0,0.0,0.0,0.0,0.0,0.0,0.0,0.0,0.0,0.0,0.0,0.0,0.0,0.0,0.0,0.0,0.0,0.0,0.0,0.0,0.0,0.0,0.0,0.0,0.0,0.0,0.0,0.0,0.0,0.0,0.0,0.0,0.0,0.0,0.0,0.0,0.0,0.0,-3.2981,-3.3715,-3.4435,-3.405,-3.2656,-3.2509,-3.1812,0.0,0.0,0.0,0.0,0.0,0.0,0.0,0.0,0.0,0.0,0.0,0.0,0.0,0.0,0.0,0.0,0.0,0.0,0.0,0.0,0.0,0.0,0.0,0.0,0.0,0.0,0.0,0.0,0.0,0.0,0.0,0.0,0.0,0.0,0.0,0.0,0.0,0.0,0.0,0.0,0.0,0.0,0.0,0.0,0.0,0.0,0.0,0.0,0.0,0.0,0.0,0.0,0.0,0.0,0.0,0.0,0.0,0.0,0.0,0.0,0.0,0.0,0.0,0.0,0.0,0.0,0.0,0.0,0.0,0.0,0.0,0.0,0.0,0.0,0.0,0.0,0.0,0.0,0.0,0.0,0.0,0.0,0.0,0.0,0.0,0.0,0.0,0.0,0.0,0.0,0.0,0.0,0.0,0.0,0.0,0.0,0.0,0.0,0.0,0.0,0.0,0.0,0.0,0.0,0.0,0.0,0.0,0.0,0.0,-3.1347,-3.21,-3.2559,-3.2546,-3.0986,-3.0913,0.0,0.0,0.0,0.0,0.0,0.0,0.0,0.0,0.0,0.0,0.0,0.0,0.0,0.0,0.0,0.0,0.0,0.0,0.0,0.0,0.0,0.0,0.0,0.0,0.0,0.0,0.0,0.0,0.0,0.0,0.0,0.0,0.0,0.0,0.0,0.0,0.0,0.0,0.0,0.0,0.0,0.0,0.0,0.0,0.0,0.0,0.0,0.0,0.0,0.0,0.0,0.0,0.0,0.0,0.0,0.0,0.0,0.0,0.0,0.0,0.0,0.0,0.0,0.0,0.0,0.0,0.0,0.0,0.0,0.0,0.0,0.0,0.0,0.0,0.0,0.0,0.0,0.0,0.0,0.0,0.0,0.0,0.0,0.0,0.0,0.0,0.0,0.0,0.0,0.0,0.0,0.0,0.0,0.0,0.0,0.0,0.0,0.0,0.0,0.0,0.0,0.0,0.0,0.0,0.0,0.0,0.0,0.0,0.0,-3.1623,-3.232,-3.2687,-3.2601,-3.1133,-3.0858,-3.1953,0.0,0.0,0.0,0.0,0.0,0.0,0.0,0.0,0.0,0.0,0.0,0.0,0.0,0.0,0.0,0.0,0.0,0.0,0.0,0.0,0.0,0.0,0.0,0.0,0.0,0.0,0.0,0.0,0.0,0.0,0.0,0.0,0.0,0.0,0.0,0.0,0.0,0.0,0.0,0.0,0.0,0.0,0.0,0.0,0.0,0.0,0.0,0.0,0.0,0.0,0.0,0.0,0.0,0.0,0.0,0.0,0.0,0.0,0.0,0.0,0.0,0.0,0.0,0.0,0.0,0.0,0.0,0.0,0.0,0.0,0.0,0.0,0.0,0.0,0.0,0.0,0.0,0.0,0.0,0.0,0.0,0.0,0.0,0.0,0.0,0.0,0.0,0.0,0.0,0.0,0.0,0.0,0.0,0.0,0.0,0.0,0.0,0.0,0.0,0.0,0.0,0.0,0.0,0.0,0.0,0.0,0.0,0.0,-3.3862,-3.4784,-3.4509,-3.2968,-3.2693,-3.1518,0.0,0.0,0.0,0.0,0.0,0.0,0.0,0.0,0.0,0.0,0.0,0.0,0.0,0.0,0.0,0.0,0.0,0.0,0.0,0.0,0.0,0.0,0.0,0.0,0.0,0.0,0.0,0.0,0.0,0.0,0.0,0.0,0.0,0.0,0.0,0.0,0.0,0.0,0.0,0.0,0.0,0.0,0.0,0.0,0.0,0.0,0.0,0.0,0.0,0.0,0.0,0.0,0.0,0.0,0.0,0.0,0.0,0.0,0.0,0.0,0.0,0.0,0.0,0.0,0.0,0.0,0.0,0.0,0.0,0.0,0.0,0.0,0.0,0.0,0.0,0.0,0.0,0.0,0.0,0.0,0.0,0.0,0.0,0.0,0.0,0.0,0.0,0.0,0.0,0.0,0.0,0.0,0.0,0.0,0.0,0.0,0.0,0.0,0.0,0.0,0.0,0.0,0.0,0.0,0.0,0.0,0.0,0.0,0.0,-3.4766,-3.7257,-3.7845,-3.6244,-3.388,-3.2307,0.0,0.0,0.0,0.0,0.0,0.0,0.0,0.0,0.0,0.0,0.0,0.0,0.0,0.0,0.0,0.0,0.0,0.0,0.0,0.0,0.0,0.0,0.0,0.0,0.0,0.0,0.0,0.0,0.0,0.0,0.0,0.0,0.0,0.0,0.0,0.0,0.0,0.0,0.0,0.0,0.0,0.0,0.0,0.0,0.0,0.0,0.0,0.0,0.0,0.0,0.0,0.0,0.0,0.0,0.0,0.0,0.0,0.0,0.0,0.0,0.0,0.0,0.0,0.0,0.0,0.0,0.0,0.0,0.0,0.0,0.0,0.0,0.0,0.0,0.0,0.0,0.0,0.0,0.0,0.0,0.0,0.0,0.0,0.0,0.0,0.0,0.0,0.0,0.0,0.0,0.0,0.0,0.0,0.0,0.0,0.0,0.0,0.0,0.0,0.0,0.0,0.0,0.0,0.0,0.0,0.0,0.0,0.0,-3.5587,-3.7059,-3.9588,-4.0469,-3.953,-3.6358,-3.3825,0.0,0.0,0.0,0.0,0.0,0.0,0.0,0.0,0.0,0.0,0.0,0.0,0.0,0.0,0.0,0.0,0.0,0.0,0.0,0.0,0.0,0.0,0.0,0.0,0.0,0.0,0.0,0.0,0.0,0.0,0.0,0.0,0.0,0.0,0.0,0.0,0.0,0.0,0.0,0.0,0.0,0.0,0.0,0.0,0.0,0.0,0.0,0.0,0.0,0.0,0.0,0.0,0.0,0.0,0.0,0.0,0.0,0.0,0.0,0.0,0.0,0.0,0.0,0.0,0.0,0.0,0.0,0.0,0.0,0.0,0.0,0.0,0.0,0.0,0.0,0.0,0.0,0.0,0.0,0.0,0.0,0.0,0.0,0.0,0.0,0.0,0.0,0.0,0.0,0.0,0.0,0.0,0.0,0.0,0.0,0.0,0.0,0.0,0.0,0.0,0.0,0.0,0.0,0.0,0.0,0.0,0.0,0.0,-3.7422,-3.9732,-4.1442,-4.2304,-4.2213,-3.9108,-3.5546,0.0,0.0,0.0,0.0,0.0,0.0,0.0,0.0,0.0,0.0,0.0,0.0,0.0,0.0,0.0,0.0,0.0,0.0,0.0,0.0,0.0,0.0,0.0,0.0,0.0,0.0,0.0,0.0,0.0,0.0,0.0,0.0,0.0,0.0,0.0,0.0,0.0,0.0,0.0,0.0,0.0,0.0,0.0,0.0,0.0,0.0,0.0,0.0,0.0,0.0,0.0,0.0,0.0,0.0,0.0,0.0,0.0,0.0,0.0,0.0,0.0,0.0,0.0,0.0,0.0,0.0,0.0,0.0,0.0,0.0,0.0,0.0,0.0,0.0,0.0,0.0,0.0,0.0,0.0,0.0,0.0,0.0,0.0,0.0,0.0,0.0,0.0,0.0,0.0,0.0,0.0,0.0,0.0,0.0,0.0,0.0,0.0,0.0,0.0,0.0,0.0,0.0,0.0,0.0,0.0,0.0,0.0,0.0,-3.7165,-3.8927,-4.1148,-4.2304,-4.2286,-3.856,-3.522,0.0,0.0,0.0,0.0,0.0,0.0,0.0,0.0,0.0,0.0,0.0,0.0,0.0,0.0,0.0,0.0,0.0,0.0,0.0,0.0,0.0,0.0,0.0,0.0,0.0,0.0,0.0,0.0,0.0,0.0,0.0,0.0,0.0,0.0,0.0,0.0,0.0,0.0,0.0,0.0,0.0,0.0,0.0,0.0,0.0,0.0,0.0,0.0,-2.7696,0.0,0.0,0.0,0.0,0.0,0.0,0.0,0.0,0.0,0.0,0.0,0.0,0.0,0.0,0.0,0.0,0.0,0.0,0.0,0.0,0.0,0.0,0.0,0.0,0.0,0.0,0.0,0.0,0.0,0.0,0.0,0.0,0.0,0.0,0.0,0.0,0.0,0.0,0.0,0.0,0.0,0.0,0.0,0.0,0.0,0.0,0.0,0.0,0.0,0.0,0.0,0.0,0.0,0.0,0.0,0.0,0.0,0.0,0.0,-3.6853,-3.9221,-4.0873,-4.1719,-4.1607,-3.7808,-3.4908,0.0,0.0,0.0,0.0,0.0,0.0,0.0,0.0,0.0,0.0,0.0,0.0,0.0,0.0,0.0,0.0,0.0,0.0,0.0,0.0,0.0,0.0,0.0,0.0,0.0,0.0,0.0,0.0,0.0,0.0,0.0,0.0,0.0,0.0,0.0,0.0,0.0,0.0,0.0,0.0,0.0,0.0,0.0,0.0,0.0,0.0,0.0,0.0,0.0,0.0,0.0,0.0,0.0,0.0,0.0,0.0,0.0,0.0,0.0,0.0,0.0,0.0,0.0,0.0,0.0,0.0,0.0,0.0,0.0,0.0,0.0,0.0,0.0,0.0,0.0,0.0,0.0,0.0,0.0,0.0,0.0,0.0,0.0,0.0,0.0,0.0,0.0,0.0,0.0,0.0,0.0,0.0,0.0,0.0,0.0,0.0,0.0,0.0,0.0,0.0,0.0,0.0,0.0,0.0,0.0,0.0,0.0,-3.4307,-3.66,-3.9753,-4.0579,-4.0857,-4.0673,-3.6831,-3.4399,-3.3551,0.0,0.0,0.0,0.0,0.0,0.0,0.0,0.0,0.0,0.0,0.0,0.0,0.0,0.0,0.0,0.0,0.0,0.0,0.0,0.0,0.0,0.0,0.0,0.0,0.0,0.0,0.0,0.0,0.0,0.0,0.0,0.0,0.0,0.0,0.0,0.0,0.0,0.0,-2.7317,-2.7848,0.0,0.0,0.0,0.0,0.0,0.0,0.0,0.0,-2.7315,0.0,0.0,0.0,0.0,0.0,0.0,0.0,0.0,0.0,0.0,0.0,0.0,0.0,0.0,0.0,0.0,0.0,0.0,0.0,0.0,0.0,0.0,0.0,0.0,0.0,0.0,0.0,0.0,0.0,0.0,0.0,0.0,0.0,0.0,0.0,0.0,0.0,0.0,0.0,0.0,0.0,0.0,0.0,0.0,0.0,0.0,0.0,0.0,0.0,0.0,0.0,0.0,0.0,0.0,0.0,0.0,-3.4564,-3.4876,-3.66,-3.9772,-4.0029,-3.9772,-3.9056,-3.5568,-3.3288,-3.2405,0.0,0.0,0.0,0.0,0.0,0.0,0.0,0.0,0.0,0.0,0.0,0.0,0.0,0.0,0.0,0.0,0.0,0.0,0.0,0.0,0.0,0.0,0.0,0.0,0.0,0.0,0.0,0.0,0.0,0.0,0.0,0.0,0.0,0.0,0.0,0.0,0.0,0.0,0.0,-2.7398,-2.7696,0.0,0.0,0.0,0.0,0.0,0.0,0.0,0.0,-2.8044,0.0,0.0,0.0,0.0,0.0,0.0,0.0,0.0,0.0,0.0,0.0,0.0,0.0,0.0,0.0,0.0,0.0,0.0,0.0,0.0,0.0,0.0,0.0,0.0,0.0,0.0,0.0,0.0,0.0,0.0,0.0,0.0,0.0,0.0,0.0,0.0,0.0,0.0,0.0,0.0,0.0,0.0,0.0,0.0,0.0,0.0,0.0,0.0,0.0,0.0,0.0,0.0,0.0,0.0,0.0,-3.4174,-3.438,-3.5958,-3.9129,-3.8872,-3.8469,-3.8028,-3.4634,-3.2571,0.0,0.0,0.0,0.0,0.0,0.0,0.0,0.0,0.0,0.0,0.0,0.0,0.0,0.0,0.0,0.0,0.0,0.0,0.0,0.0,0.0,0.0,0.0,0.0,0.0,0.0,0.0,0.0,0.0,0.0,0.0,0.0,0.0,0.0,0.0,0.0,0.0,0.0,0.0,0.0,-2.7317,-2.7298,-2.7263,0.0,0.0,0.0,0.0,0.0,0.0,-2.7114,-2.7715,0.0,0.0,0.0,0.0,0.0,0.0,0.0,0.0,0.0,0.0,0.0,0.0,0.0,0.0,0.0,0.0,0.0,0.0,0.0,0.0,0.0,0.0,0.0,0.0,0.0,0.0,0.0,0.0,0.0,0.0,0.0,0.0,0.0,0.0,0.0,0.0,0.0,0.0,0.0,0.0,0.0,0.0,0.0,0.0,0.0,0.0,0.0,0.0,0.0,0.0,0.0,0.0,0.0,0.0,0.0,-3.344,-3.355,-3.5073,-3.8028,-3.7588,-3.7059,-3.663,-3.3542,-3.166,0.0,0.0,0.0,0.0,0.0,0.0,0.0,0.0,0.0,0.0,0.0,0.0,0.0,0.0,0.0,0.0,0.0,0.0,0.0,0.0,0.0,0.0,0.0,0.0,0.0,0.0,0.0,0.0,0.0,0.0,0.0,0.0,0.0,0.0,0.0,0.0,0.0,0.0,0.0,0.0,0.0,-2.7249,-2.6535,-2.6917,0.0,0.0,0.0,0.0,-2.6253,-2.7181,0.0,0.0,0.0,0.0,0.0,0.0,0.0,0.0,0.0,0.0,0.0,0.0,0.0,0.0,0.0,0.0,0.0,0.0,0.0,0.0,0.0,0.0,0.0,0.0,0.0,0.0,0.0,0.0,0.0,0.0,0.0,0.0,0.0,0.0,0.0,0.0,0.0,0.0,0.0,0.0,0.0,0.0,0.0,0.0,0.0,0.0,0.0,0.0,0.0,0.0,0.0,0.0,0.0,0.0,0.0,0.0,-3.2619,-3.2729,-3.399,-3.6431,-3.6486,-3.5615,-3.3924,-3.1852,-2.9969,0.0,0.0,0.0,0.0,0.0,0.0,0.0,0.0,0.0,0.0,0.0,0.0,0.0,0.0,0.0,0.0,0.0,0.0,0.0,0.0,0.0,0.0,0.0,0.0,0.0,0.0,0.0,0.0,0.0,0.0,0.0,0.0,0.0,0.0,0.0,0.0,0.0,0.0,0.0,0.0,0.0,-2.7995,-2.7265,-2.7251,-2.705,0.0,0.0,-2.7696,-2.6419,-2.8387,0.0,0.0,0.0,0.0,0.0,0.0,0.0,0.0,0.0,0.0,0.0,0.0,0.0,0.0,0.0,0.0,0.0,0.0,0.0,0.0,0.0,0.0,0.0,0.0,0.0,0.0,0.0,0.0,0.0,0.0,0.0,0.0,0.0,0.0,0.0,0.0,0.0,0.0,0.0,0.0,0.0,0.0,0.0,0.0,0.0,0.0,0.0,0.0,0.0,0.0,0.0,0.0,0.0,0.0,0.0,-2.9959,-3.1861,-3.2375,-3.3573,-3.5445,-3.4968,-3.4069,-3.2787,-3.0338,-2.8361,0.0,0.0,0.0,0.0,0.0,0.0,0.0,0.0,0.0,0.0,0.0,0.0,0.0,0.0,0.0,0.0,0.0,0.0,0.0,0.0,0.0,0.0,0.0,0.0,0.0,0.0,0.0,0.0,0.0,0.0,0.0,0.0,0.0,0.0,0.0,0.0,0.0,0.0,0.0,0.0,0.0,0.0,-2.7344,-2.7647,0.0,0.0,0.0,-2.7564,-2.6934,0.0,0.0,0.0,0.0,0.0,0.0,0.0,0.0,0.0,0.0,0.0,0.0,0.0,0.0,0.0,0.0,0.0,0.0,0.0,0.0,0.0,0.0,0.0,0.0,0.0,0.0,0.0,0.0,0.0,0.0,0.0,0.0,0.0,0.0,0.0,0.0,0.0,0.0,0.0,0.0,0.0,0.0,0.0,0.0,0.0,0.0,0.0,0.0,0.0,0.0,0.0,0.0,0.0,0.0,0.0,0.0,0.0,-3.1072,-3.1614,-3.2582,-3.3918,-3.3132,-3.2177,-3.1159,-2.8785,0.0,0.0,0.0,0.0,0.0,0.0,0.0,0.0,0.0,0.0,0.0,0.0,0.0,0.0,0.0,0.0,0.0,0.0,0.0,0.0,0.0,0.0,0.0,0.0,0.0,0.0,0.0,-2.4659,0.0,0.0,0.0,0.0,0.0,0.0,0.0,0.0,0.0,0.0,0.0,0.0,0.0,0.0,-2.796,-2.7226,-2.7742,-2.7709,0.0,0.0,-2.6899,-2.6738,-2.7738,-2.8489,0.0,0.0,0.0,0.0,0.0,0.0,0.0,0.0,0.0,0.0,0.0,0.0,0.0,0.0,0.0,0.0,0.0,0.0,0.0,0.0,0.0,0.0,0.0,0.0,0.0,0.0,0.0,0.0,0.0,0.0,0.0,0.0,0.0,0.0,0.0,0.0,0.0,0.0,0.0,0.0,0.0,0.0,0.0,0.0,0.0,0.0,0.0,0.0,0.0,0.0,0.0,0.0,0.0,0.0,0.0,-3.0253,-3.0084,-3.0422,-3.122,-3.0883,-2.9857,-2.8173,-2.718,-2.5792,0.0,0.0,0.0,0.0,0.0,0.0,0.0,0.0,0.0,0.0,0.0,0.0,0.0,0.0,0.0,0.0,0.0,0.0,0.0,0.0,0.0,0.0,0.0,0.0,0.0,0.0,0.0,0.0,0.0,0.0,0.0,0.0,0.0,0.0,0.0,0.0,0.0,0.0,0.0,0.0,0.0,-2.8924,-2.6922,-2.7283,-2.7234,0.0,0.0,-2.5846,-2.5175,-2.5779,-2.5993,-2.5001,0.0,0.0,0.0,0.0,0.0,0.0,0.0,0.0,0.0,0.0,0.0,0.0,0.0,0.0,0.0,0.0,0.0,0.0,0.0,0.0,0.0,0.0,0.0,0.0,0.0,0.0,0.0,0.0,0.0,0.0,0.0,0.0,0.0,0.0,0.0,0.0,0.0,0.0,0.0,0.0,0.0,0.0,0.0,0.0,0.0,0.0,0.0,0.0,0.0,0.0,0.0,0.0,0.0,-2.7815,-2.8236,-2.9062,-2.9637,-2.9924,-2.9686,-2.8718,-2.7113,-2.6114,-2.4791,0.0,0.0,0.0,0.0,0.0,0.0,0.0,0.0,0.0,0.0,0.0,0.0,0.0,0.0,0.0,0.0,0.0,0.0,0.0,0.0,0.0,0.0,0.0,0.0,0.0,0.0,0.0,0.0,-2.3928,-2.4042,-2.3888,0.0,0.0,0.0,0.0,0.0,0.0,0.0,0.0,0.0,0.0,-2.733,-2.6365,-2.6454,0.0,0.0,-2.5644,-2.5749,-2.5088,-2.5563,-2.5749,-2.4934,-2.4109,0.0,0.0,0.0,0.0,0.0,0.0,0.0,0.0,0.0,0.0,0.0,0.0,0.0,0.0,0.0,0.0,0.0,0.0,0.0,0.0,0.0,0.0,0.0,0.0,0.0,0.0,0.0,0.0,0.0,0.0,0.0,0.0,0.0,0.0,0.0,0.0,0.0,0.0,0.0,0.0,0.0,0.0,0.0,0.0,0.0,0.0,0.0,0.0,0.0,0.0,0.0,0.0,-2.6796,-2.7339,-2.8101,-2.8596,-2.8827,-2.832,-2.7452,-2.6156,-2.5166,-2.4012,0.0,0.0,0.0,0.0,0.0,0.0,0.0,0.0,0.0,0.0,0.0,0.0,0.0,0.0,0.0,0.0,0.0,0.0,0.0,0.0,0.0,0.0,0.0,0.0,0.0,0.0,0.0,0.0,-2.3417,-2.3595,-2.3595,0.0,0.0,0.0,0.0,0.0,0.0,0.0,0.0,0.0,0.0,-2.6109,-2.532,-2.5529,-2.544,-2.4496,-2.4843,-2.4963,-2.428,-2.4435,-2.4373,-2.3674,0.0,0.0,0.0,0.0,0.0,0.0,0.0,0.0,0.0,0.0,0.0,0.0,0.0,0.0,0.0,0.0,0.0,0.0,0.0,0.0,0.0,0.0,0.0,0.0,0.0,0.0,0.0,0.0,0.0,0.0,-3.1494,0.0,0.0,0.0,0.0,0.0,0.0,0.0,0.0,0.0,0.0,0.0,0.0,0.0,0.0,0.0,0.0,0.0,0.0,0.0,0.0,0.0,0.0,-2.6299,-2.7999,-2.7134,-2.7028,-2.7716,-2.6705,-2.5848,-2.5072,-2.425,-2.3474,-2.2699,0.0,0.0,0.0,0.0,0.0,0.0,0.0,0.0,0.0,0.0,0.0,0.0,0.0,0.0,0.0,0.0,0.0,0.0,0.0,0.0,0.0,0.0,0.0,0.0,0.0,0.0,-2.2861,-2.3257,-2.3595,0.0,0.0,0.0,0.0,0.0,0.0,0.0,0.0,0.0,0.0,-2.5673,-2.5645,-2.367,-2.4404,-2.4664,-2.334,-2.326,-2.3119,-2.2475,-2.1907,-2.1211,0.0,0.0,0.0,0.0,0.0,0.0,0.0,0.0,0.0,0.0,0.0,0.0,0.0,0.0,0.0,0.0,0.0,0.0,0.0,0.0,0.0,0.0,0.0,0.0,0.0,0.0,0.0,-3.1815,-3.1677,0.0,0.0,0.0,0.0,0.0,0.0,0.0,0.0,0.0,0.0,0.0,-2.8191,-2.7934,0.0,0.0,0.0,0.0,0.0,0.0,0.0,0.0,0.0,0.0,0.0,0.0,-2.515,-2.6664,-2.6437,-2.6638,-2.7384,-2.6552,-2.5747,-2.5023,-2.3746,-2.2716,-2.1992,0.0,0.0,0.0,0.0,0.0,0.0,0.0,0.0,0.0,0.0,0.0,0.0,0.0,0.0,0.0,0.0,0.0,0.0,0.0,0.0,0.0,0.0,0.0,0.0,0.0,-2.3239,0.0,0.0,0.0,0.0,0.0,0.0,0.0,0.0,0.0,0.0,0.0,-2.4933,-2.4059,-2.3926,-2.3525,-2.237,-2.2511,-2.2605,0.0,0.0,0.0,0.0,0.0,0.0,0.0,0.0,0.0,0.0,0.0,0.0,0.0,0.0,-2.3099,-2.2701,-2.2454,-2.2417,-2.283,0.0,0.0,0.0,0.0,0.0,0.0,0.0,0.0,0.0,0.0,0.0,0.0,0.0,0.0,0.0,0.0,-3.099,0.0,0.0,0.0,0.0,0.0,0.0,0.0,0.0,-2.7945,-2.7952,-2.8209,-2.7934,-2.7805,0.0,-2.6979,-2.6869,0.0,0.0,0.0,0.0,0.0,0.0,0.0,0.0,-2.4893,-2.616,-2.6154,-2.6488,-2.723,-2.6523,-2.587,-2.5385,-2.3888,-2.2625,-2.1613,-2.2237,-2.2609,0.0,0.0,0.0,0.0,0.0,0.0,0.0,0.0,0.0,0.0,0.0,0.0,0.0,0.0,0.0,0.0,0.0,0.0,0.0,0.0,0.0,0.0,0.0,-2.2942,0.0,0.0,0.0,0.0,0.0,0.0,0.0,0.0,0.0,-2.3822,-2.3873,-2.3699,-2.3026,-2.2557,-2.2043,-2.144,0.0,0.0,0.0,0.0,0.0,0.0,0.0,-2.0572,-2.0478,-2.0258,-2.0378,-2.1227,-2.1699,-2.2077,-2.228,0.0,0.0,-2.2352,-2.2287,-2.2512,-2.3128,-2.3244,-2.3244,-2.3258,-2.2947,-2.2634,0.0,0.0,0.0,0.0,0.0,0.0,0.0,0.0,-2.9969,-2.9823,0.0,-2.9598,0.0,0.0,0.0,0.0,0.0,0.0,0.0,0.0,-2.8136,-2.8227,-2.8858,-2.8154,-2.7805,-2.775,-2.6979,-2.6602,-2.6609,-2.6277,0.0,0.0,0.0,0.0,0.0,0.0,-2.551,-2.651,-2.6276,-2.6504,-2.7247,-2.6488,-2.6006,-2.5868,-2.4491,-2.306,-2.1716,-2.2237,-2.2609,-2.2609,-2.2474,0.0,0.0,0.0,0.0,0.0,0.0,0.0,0.0,0.0,0.0,0.0,0.0,0.0,0.0,0.0,0.0,0.0,0.0,0.0,0.0,-2.2703,0.0,0.0,0.0,0.0,0.0,0.0,0.0,0.0,0.0,0.0,-2.2402,-2.2515,-2.2418,-2.1844,0.0,0.0,0.0,0.0,-2.1184,-2.1259,-2.1637,-2.1924,-2.1953,-2.143,-2.1003,-2.1032,0.0,0.0,-2.1815,-2.2062,-2.2338,-2.283,-2.2562,-2.228,-2.2815,-2.2954,-2.3142,-2.3731,-2.3824,-2.3853,-2.3867,-2.3658,-2.3373,-3.1565,0.0,0.0,0.0,0.0,-3.031,-3.0266,-3.0203,-3.0148,-2.9672,-2.8954,-2.892,0.0,0.0,0.0,0.0,0.0,0.0,-2.7365,-2.8117,-2.789,-2.7934,-2.8154,-2.7915,-2.7805,-2.778,-2.6969,-2.6602,-2.6602,-2.6501,-2.6238,-2.5783,0.0,0.0,0.0,0.0,-2.5592,-2.7195,-2.6769,-2.673,-2.7264,-2.6006,-2.454,-2.2923,-2.2988,-2.2578,-2.163,-2.2306,-2.2646,-2.2609,-2.2569,0.0,0.0,0.0,0.0,0.0,0.0,0.0,0.0,0.0,0.0,0.0,0.0,0.0,0.0,0.0,0.0,0.0,0.0,0.0,-2.1979,-2.2802,-2.3041,0.0,0.0,0.0,0.0,0.0,0.0,0.0,0.0,0.0,-2.0499,-2.0846,-2.1411,0.0,0.0,-2.0292,-2.102,-2.0406,-2.004,-2.0578,0.0,0.0,0.0,-2.1266,-2.1274,-2.1648,-2.2309,-2.2788,-2.2664,-2.3389,-2.4056,-2.4221,-2.4114,-2.3925,-2.3659,-2.363,-2.3673,-2.3824,-2.3593,-2.3315,-2.3281,-2.2972,-2.282,-3.3244,-3.1852,-3.1173,-3.109,-3.1309,-3.0982,-3.0847,-3.0816,-3.042,-2.9913,-2.9329,-2.9276,-2.8566,-2.7419,-2.7266,0.0,0.0,0.0,-2.7512,-2.8246,-2.7934,-2.7982,-2.8264,-2.8264,-2.8282,-2.8246,-2.7776,-2.7226,-2.662,-2.6943,-2.6526,-2.5464,0.0,0.0,-2.6388,-2.5816,-2.619,-2.7477,-2.7026,-2.6817,-2.6996,-2.5717,-2.4043,-2.213,-2.275,-2.2664,-2.1647,-2.2332,-2.2672,-2.2632,-2.2605,-2.2555,0.0,0.0,0.0,0.0,0.0,0.0,0.0,0.0,0.0,0.0,0.0,-2.459,-2.3649,0.0,0.0,0.0,-2.1939,-2.1799,-2.2074,-2.2547,0.0,0.0,0.0,0.0,0.0,0.0,0.0,-2.1203,-2.0831,-2.034,-1.9737,-1.9886,-2.0379,-2.1233,-2.0237,-1.9689,-2.0436,0.0,-1.9485,-2.0206,-2.0231,-2.0371,-2.0997,-2.091,-2.0875,-2.1197,-2.2309,-2.3107,-2.2997,-2.3389,-2.3853,-2.4244,-2.4027,-2.3746,-2.3862,-2.39,-2.382,-2.3617,-2.3156,-2.2859,-2.307,-2.286,-2.2736,-3.5162,-3.416,-3.2564,-3.2295,-3.2814,-3.2045,-3.1698,-3.1635,-3.0702,-3.0254,-3.0209,-3.0124,-2.9422,-2.8273,-2.7902,0.0,-2.7805,-2.7805,-2.8209,-2.8968,-2.8246,-2.8282,-2.8987,-2.8987,-2.8987,-2.8987,-2.8987,-2.8216,-2.6785,-2.7438,-2.6834,-2.5027,-2.574,-2.6156,-2.6212,-2.6588,-2.6941,-2.7302,-2.7,-2.6708,-2.6412,-2.5452,-2.424,-2.275,-2.3371,-2.3078,-2.178,-2.2337,-2.2712,-2.2699,-2.2649,-2.2565,-2.2515,0.0,0.0,0.0,0.0,0.0,0.0,0.0,0.0,0.0,0.0,0.0,0.0,0.0,0.0,0.0,-2.1754,0.0,-2.2493,-2.2134,0.0,0.0,0.0,-2.1919,-2.2478,-2.1954,-2.1321,-2.0767,0.0,0.0,-1.9765,0.0,-1.9465,-1.9574,-1.9468,-1.942,-1.9523,-1.933,-1.9352,-2.0089,-2.0147,-2.032,-2.0872,-2.0669,-2.0378,-2.0277,-2.1235,-2.2381,-2.2736,-2.2693,-2.2788,-2.3847,-2.2991,-2.2512,-2.363,-2.3693,-2.3544,-2.2969,-2.2619,-2.2451,-2.2724,-2.2782,-2.2507,-3.609,-3.5103,-3.4045,-3.3333,-3.2852,-3.2045,-3.1698,-3.1615,-3.0708,-2.9928,-2.9315,-2.9237,-2.8533,-2.7402,-2.7196,-2.736,-2.7805,-2.7805,-2.8227,-2.8968,-2.8803,-2.8822,-2.8987,-2.8987,-2.8987,-2.8987,-2.8987,-2.8503,-2.7548,-2.7714,-2.6958,-2.5366,-2.5484,-2.579,-2.6181,-2.5906,-2.5997,-2.6476,-2.6405,-2.585,-2.4805,-2.4519,-2.3845,-2.2746,-2.2871,-2.2802,-2.2457,-2.2595,-2.2712,-2.2699,-2.2685,-2.2646,-2.2579,-2.2515,0.0,0.0,0.0,0.0,0.0,0.0,0.0,0.0,0.0,-2.3274,-2.2006,0.0,-2.1595,0.0,-2.1904,-2.2099,-2.1276,-2.2368,0.0,0.0,-2.1575,-2.156,-2.1201,-2.0572,-2.0303,-2.0643,-2.0258,-1.9887,-1.9723,-1.9614,-1.9556,-1.9608,-1.9372,-1.9521,-2.0409,-1.9735,-1.9333,-1.9933,-2.0093,-2.032,-2.0892,-2.1336,-2.1177,-2.0262,-2.1931,-2.3151,-2.2352,-2.3302,-2.4259,-2.4559,-2.4007,-2.3455,-2.3105,-2.2466,-2.1852,-2.1698,-2.1976,-2.1932,-2.089,-2.0677,-2.0695,-3.6993,-3.6036,-3.5149,-3.4487,-3.4007,-3.316,-3.2583,-3.2173,-3.1264,-3.0401,-2.9569,-2.944,-2.9011,-2.8369,-2.8129,-2.8196,-2.8498,-2.8386,-2.8565,-2.8987,-2.8987,-2.8987,-2.8987,-2.8987,-2.8987,-2.8987,-2.8987,-2.84,-2.7346,-2.764,-2.6806,-2.4897,-2.5227,-2.5358,-2.5313,-2.5377,-2.59,-2.6898,-2.5965,-2.4951,-2.3895,-2.3627,-2.3428,-2.3195,-2.2871,-2.2854,-2.3164,-2.2871,-2.2712,-2.2699,-2.2672,-2.2649,-2.2609,-2.2525,-2.2474,0.0,0.0,0.0,0.0,0.0,0.0,0.0,0.0,0.0,0.0,0.0,-2.0918,0.0,-2.1283,0.0,-2.1201,-2.2128,-2.2428,-2.1665,-2.1665,-2.1545,-2.1201,-2.0812,-2.0741,-2.1111,-2.0812,-2.0572,-2.0572,-2.0493,-2.0451,-2.0436,-2.021,-2.0065,-2.0143,-1.956,-1.9232,-1.9595,-1.9653,-1.987,-2.0509,-2.0901,-2.0915,-2.0393,-2.1264,-2.1946,-2.1278,-2.1743,-2.2301,-2.2376,-2.1915,-2.1434,-2.1095,-2.0616,-2.0097,-1.9951,-2.035,-2.0604,-2.0263,-1.9951,-1.9876,-3.7613,-3.6659,-3.5734,-3.5398,-3.5442,-3.4456,-3.3603,-3.2833,-3.1866,-3.1002,-3.0292,-3.0121,-3.0015,-2.9977,-2.9616,-2.9434,-2.9392,-2.9138,-2.8966,-2.8858,-2.895,-2.895,-2.884,-2.8968,-2.8987,-2.8987,-2.8987,-2.8235,-2.6804,-2.7457,-2.6612,-2.4465,-2.5062,-2.5044,-2.441,-2.4952,-2.5944,-2.7291,-2.5556,-2.4283,-2.3588,-2.3125,-2.3187,-2.3733,-2.3095,-2.2992,-2.3612,-2.3043,-2.2712,-2.2699,-2.2646,-2.2605,-2.2605,-2.2538,-2.2487,0.0,-2.2405,0.0,0.0,0.0,0.0,0.0,0.0,0.0,0.0,-2.0597,-2.0342,-1.9833,-2.0418,-2.1012,-2.1515,-2.1724,-2.1999,-2.2373,-2.1994,-2.1635,-2.147,-2.144,-2.144,-2.144,-2.144,-2.1425,-2.1335,-2.1386,-2.1372,-2.1248,-2.1049,-2.0592,-1.9713,-1.938,-1.9275,-1.9145,-1.9116,-1.9377,-1.9856,-2.0074,-2.0117,-2.0016,-2.0262,-2.0175,-2.0204,-1.9841,-1.9541,-1.9669,-1.9377,-1.8879,-1.8851,-1.8843,-1.8613,-1.8422,-1.8733,-1.9176,-1.964,-1.9582,-1.9371,-3.6748,-3.5762,-3.4903,-3.4891,-3.5365,-3.3833,-3.3045,-3.2795,-3.1226,-3.0465,-3.0299,-3.0266,-3.0154,-2.9992,-2.9864,-2.9671,-2.9384,-2.9291,-2.8801,-2.8062,-2.8693,-2.8638,-2.8081,-2.8693,-2.8987,-2.8987,-2.8987,-2.851,-2.7567,-2.7714,-2.6917,-2.5209,-2.5319,-2.5319,-2.5154,0.0,0.0,0.0,-2.4853,-2.4673,-2.4379,-2.4078,-2.3863,-2.3784,-2.3078,0.0,-2.2888,-2.2767,-2.2712,-2.2699,-2.2685,0.0,0.0,0.0,0.0,0.0,0.0,0.0,0.0,0.0,0.0,0.0,-2.1119,-2.0745,-2.0424,-2.0272,-2.0083,-1.9848,-2.0418,-2.0832,-2.0902,-2.1874,-2.2134,-2.1216,-2.1455,-2.1295,-2.0262,-2.0097,-2.0064,-2.0082,-2.0097,-2.0094,-2.0217,-2.0422,-2.0757,-2.0884,-2.0694,-2.0474,-2.0205,-1.9958,-1.9682,-1.9232,-1.9116,-1.9145,-1.9261,-1.9769,-1.9914,-1.9566,-2.0204,-2.0538,-2.019,-2.0407,-2.0582,-2.0563,-1.9908,-1.9206,-1.921,-1.8611,-1.8119,-1.8573,-1.8397,-1.7994,-1.7422,-1.7617,-1.7838,-3.6573,0.0,-3.471,-3.4549,0.0,-3.3038,-3.2314,-3.2231,-3.1372,-3.0739,-3.0356,-3.0356,-3.0299,-3.0195,-3.0018,-2.9853,-2.9687,-2.9465,-2.9087,-2.8601,-2.8872,-2.8767,-2.8381,-2.8822,-2.8987,-2.8987,-2.8987,-2.8601,-2.7805,-2.7383,-2.6576,-2.5403,-2.5007,-2.4805,-2.4787,-2.4392,-2.4199,-2.4199,-2.4183,-2.4113,-2.4005,-2.3664,-2.3588,-2.3767,0.0,0.0,0.0,0.0,0.0,0.0,0.0,0.0,0.0,0.0,0.0,-2.2538,-2.2487,-2.2419,-2.2352,-2.2166,-2.1827,-2.1323,-2.0828,-2.0477,-2.0304,-2.0185,-2.0045,-1.9919,-2.0436,-2.0771,-2.0737,-2.1605,-2.1799,-2.0868,-2.1306,-2.1276,-2.0423,-2.0498,-2.0696,-2.0696,-2.0696,-2.0696,-2.0696,-2.0893,-2.1113,-2.1181,-2.105,-2.0784,-2.0435,-1.9991,-1.9526,-1.9178,-1.9116,-1.9232,-1.9551,-1.9841,-2.0016,-1.9769,-2.0132,-2.0233,-1.9711,-1.9856,-1.9985,-1.9772,-1.9101,-1.8562,-1.8303,-1.7682,-1.7264,-1.7534,-1.7446,-1.7122,-1.6631,-1.72,-1.7813,-3.6501,-3.5803,-3.4775,-3.4332,-3.4171,-3.2432,-3.1698,-3.1698,0.0,0.0,0.0,-3.0404,-3.0404,-3.0373,-3.0157,-3.0028,-2.9984,-2.9662,-2.9399,-2.9179,-2.9104,-2.8989,-2.8785,-2.8932,-2.8987,-2.8987,-2.8987,-2.8583,-2.7798,-2.7126,-2.6319,-2.5411,-2.4732,-2.4355,-2.4208,-2.4199,-2.4199,-2.4198,-2.3829,-2.3634,-2.3594,-2.319,-2.3252,-2.3802,-2.3078,-2.2992,-2.356,-2.3026,-2.2712,-2.2699,-2.2646,-2.2632,-2.2716,-2.2646,-2.2592,-2.2525,-2.2515,-2.2463,-2.2352,-2.231,-2.202,-2.1354,-2.0679,-2.0287,-2.0287,-2.0202,-2.0098,-1.999,-2.04,-2.0625,-2.0543,-2.1126,-2.1261,-2.0598,-2.1126,-2.1261,-2.0662,-2.0991,-2.1216,-2.1335,-2.1216,-2.1321,-2.125,-2.1365,-2.153,-2.148,-2.1332,-2.108,-2.0346,-1.9673,-1.9286,-1.9172,-1.912,-1.929,-1.974,-1.987,-1.9928,-1.9827,-1.987,-1.9725,-1.9275,-1.9045,-1.886,-1.8691,-1.8068,-1.7652,-1.7261,-1.6884,-1.6522,-1.6513,-1.6513,-1.6513,-1.6588,-1.7237,-1.784,-3.6064,-3.5805,-3.4878,-3.4423,-3.4171,-3.2432,-3.1698,-3.1641,-3.0904,-3.0519,-3.0404,-3.0404,-3.0404,-3.0404,-3.0317,-3.0151,-2.9999,-2.9935,-2.9326,0.0,-2.9018,-2.8855,-2.8037,-2.8675,-2.8987,-2.8987,-2.8987,-2.8583,-2.7871,-2.7677,-2.6869,-2.5568,-2.5283,-2.4879,-2.4254,-2.4199,-2.4199,-2.4208,-2.4519,-2.4613,-2.4433,-2.4144,-2.3928,-2.3781,-2.3078,-2.275,-2.2854,-2.2767,-2.2712,-2.2699,-2.2685,-2.2685,-2.2699,-2.2681,-2.2703,-2.2672,-2.2582,-2.2501,-2.2474,-2.2366,-2.202,-2.1338,-2.0696,-2.0287,-2.0287,-2.0287,-2.0216,-2.0023,-2.0076,-2.0038,-1.9906,-2.0453,-2.0587,-2.0004,-2.0419,-2.0554,-1.9962,-1.9977,-2.0082,-2.0097,-1.9992,-2.0034,-2.0157,-2.0528,-2.0842,-2.0838,-2.0818,-2.0504,-1.9804,-1.9324,-1.9176,-1.9213,-1.9157,-1.9145,-1.929,-1.9261,-1.9304,-1.9232,-1.929,-1.929,-1.9145,-1.8874,-1.8655,-1.8533,-1.7928,-1.7413,-1.7227,-1.6808,-1.6586,-1.6522,-1.6513,-1.6513,-1.6513,-1.6713,-1.6961,-3.5983,-3.5847,-3.4945,-3.4529,-3.4315,-3.2527,-3.1981,-3.2256,-3.1468,-3.1371,-3.1692,-3.1308,-3.1121,-3.1058,-3.0584,-3.0317,-3.0209,-3.0054,-2.9692,-2.9181,-2.9419,-2.9259,-2.8732,-2.905,-2.9167,-2.9062,-2.9017,-2.8803,-2.8448,-2.8007,-2.7412,-2.6678,-2.5852,-2.4989,-2.4254,-2.4199,-2.4199,-2.4208,-2.427,-2.4274,-2.4163,-2.3904,-2.3668,-2.3437,-2.3076,-2.2855,-2.2712,-2.2712,-2.2712,-2.2712,-2.2712,-2.2712,-2.2712,-2.2712,-2.2685,-2.2646,-2.2555,-2.2487,-2.2446,-2.2017,-2.1706,-2.157,-2.0778,-2.0373,-2.0544,-2.034,-2.015,-2.0061,-1.9973,-1.9866,-1.9762,-1.9992,-2.0019,-1.9738,-1.9992,-2.0019,-1.9783,-1.9723,-1.9723,-1.9723,-1.9723,-1.9723,-1.9723,-1.9977,-2.0154,-2.0154,-2.0131,-1.9957,-1.9604,-1.9395,-1.9232,-1.9195,-1.9139,-1.9116,-1.9116,-1.9116,-1.9116,-1.9116,-1.9116,-1.9116,-1.9101,-1.8912,-1.8822,-1.8803,-1.8285,-1.7848,-1.7564,-1.7165,-1.6829,-1.6543,-1.6513,-1.6513,-1.6513,-1.6513,-1.66,-3.6012,-3.5931,-3.5214,-3.4778,-3.4428,-3.2803,-3.2535,-3.3108,-3.2544,-3.2737,-3.3276,-3.2429,-3.1872,-3.1641,-3.1173,-3.075,-3.0444,-3.04,-3.024,-3.0011,-2.9837,-2.966,-2.9485,-2.9435,-2.9312,-2.9171,-2.9067,-2.8936,-2.8698,-2.8099,-2.7688,-2.742,-2.6264,-2.5356,-2.474,-2.4548,-2.4465,-2.4437,-2.4087,-2.3858,-2.3795,-2.3599,-2.3393,-2.3182,-2.3114,-2.3008,-2.2786,-2.2721,-2.2712,-2.2712,-2.2712,-2.2712,-2.2712,-2.2712,-2.2672,-2.2636,-2.2538,-2.246,-2.2349,-2.1781,-2.154,-2.1768,-2.0926,-2.0543,-2.0728,-2.0409,-2.0118,-2.0083,-1.999,-1.9851,-1.9797,-1.9777,-1.9726,-1.9708,-1.9723,-1.9738,-1.9723,-1.9723,-1.9723,-1.9723,-1.9723,-1.9723,-1.9723,-1.9723,-1.9753,-1.9735,-1.9669,-1.965,-1.965,-1.9523,-1.9376,-1.9232,-1.9157,-1.912,-1.9101,-1.9116,-1.9116,-1.9116,-1.9116,-1.9116,-1.9082,-1.903,-1.8955,-1.8841,-1.8461,-1.7988,-1.7679,-1.7303,-1.6905,-1.6565,-1.6513,-1.6513,-1.6513,-1.6513,-1.6513,-3.6012,-3.5988,-3.5817,-3.5275,-3.4462,-3.3412,-3.3446,-3.411,-3.4006,-3.4449,-3.4962,-3.3506,-3.241,-3.1872,-3.2333,-3.1795,-3.0558,-3.1199,-3.0957,-3.0078,-2.9984,-2.9869,-2.9678,-2.9504,-2.9398,-2.9367,-2.9203,-2.8769,-2.8169,-2.7949,-2.7457,-2.6767,-2.6557,-2.6447,-2.6282,-2.565,-2.5283,-2.5293,-2.4547,-2.4036,-2.3806,-2.3774,-2.3639,-2.3369,-2.3206,-2.3095,-2.3057,-2.2812,-2.2712,-2.2712,-2.2712,-2.2712,-2.2712,-2.2712,-2.2699,-2.2668,-2.2582,-2.2429,-2.2293,-2.1959,-2.1751,-2.1751,-2.1151,-2.0745,-2.0778,-2.0477,-2.0235,-2.0133,-2.0083,-1.9993,-1.9833,-1.9797,-1.9762,-1.9726,-1.9723,-1.9723,-1.9723,-1.9723,-1.9723,-1.9723,-1.9723,-1.9723,-1.9723,-1.9723,-1.9723,-1.9723,-1.969,-1.9654,-1.9647,-1.9611,-1.9538,-1.9395,-1.9306,-1.9232,-1.9139,-1.9116,-1.9116,-1.9116,-1.9116,-1.9116,-1.9045,-1.8841,-1.8592,-1.8726,-1.8101,-1.7639,-1.7372,-1.6905,-1.668,-1.6723,-1.665,-1.6522,-1.6513,-1.6513,-1.6513,-3.6012,-3.601,-3.5958,-3.5732,-3.5211,-3.4367,-3.4391,-3.5002,-3.448,-3.4738,-3.5365,-3.475,-3.3968,-3.3141,-3.2506,-3.1795,-3.1179,-3.1,-3.0694,-3.0267,-3.0248,-3.0122,-2.9924,-2.9802,-2.9729,-2.9625,-2.9397,-2.9126,-2.8817,-2.8658,-2.8154,-2.7445,-2.7331,-2.709,-2.6612,-2.6264,-2.5878,-2.5403,-2.5062,-2.4637,-2.4119,-2.4036,-2.3907,-2.366,-2.3558,-2.3371,-2.3114,-2.2995,-2.2868,-2.2725,-2.2712,-2.2712,-2.2712,-2.2712,-2.2712,-2.2699,-2.2565,-2.246,-2.238,-2.2003,-2.1781,-2.1781,-2.1182,-2.0826,-2.0778,-2.0492,-2.027,-2.022,-2.015,-2.0048,-1.9975,-1.9884,-1.9795,-1.9762,-1.9726,-1.9723,-1.9723,-1.9723,-1.9723,-1.9723,-1.9723,-1.9723,-1.9723,-1.9723,-1.9723,-1.9723,-1.9723,-1.969,-1.9669,-1.9654,-1.9614,-1.9538,-1.9501,-1.9409,-1.925,-1.9139,-1.912,-1.9101,-1.9116,-1.9116,-1.9064,-1.9007,-1.8874,-1.8855,-1.8456,-1.8127,-1.8068,-1.7848,-1.7612,-1.7338,-1.6989,-1.6842,-1.6573,-1.65,-1.6513,-3.6012,-3.6012,-3.6012,-3.5978,-3.587,-3.5237,-3.5236,-3.5563,-3.4942,-3.4996,-3.5464,-3.527,-3.4949,-3.441,-3.3256,-3.2506,-3.2006,-3.1365,-3.0942,-3.075,-3.0538,-3.0336,-3.0182,-3.0075,-2.9981,-2.9856,-2.9643,-2.9467,-2.9398,-2.9217,-2.8817,-2.8319,-2.8195,-2.7897,-2.7353,-2.7103,-2.656,-2.5827,-2.5541,-2.5007,-2.43,-2.4199,-2.4103,-2.3927,-2.3827,-2.3635,-2.3313,-2.318,-2.302,-2.2816,-2.2751,-2.2712,-2.2712,-2.2712,-2.2699,-2.2676,-2.2565,-2.2474,-2.2405,-2.2106,-2.1947,-2.1886,-2.1292,-2.0958,-2.086,-2.0544,-2.0304,-2.0287,-2.0202,-2.0135,-2.0098,-1.9975,-1.9869,-1.9812,-1.9762,-1.9726,-1.9723,-1.9723,-1.9723,-1.9723,-1.9723,-1.9723,-1.9723,-1.9723,-1.9723,-1.9723,-1.9723,-1.9723,-1.9723,-1.969,-1.9672,-1.9632,-1.9596,-1.952,-1.9339,-1.9232,-1.9157,-1.9101,-1.9116,-1.9116,-1.9116,-1.9116,-1.9116,-1.8988,-1.8993,-1.8803,-1.8324,-1.8285,-1.8014,-1.7585,-1.7227,-1.6968,-1.6565,-1.6522,-1.65,-3.6012,-3.6012,-3.6012,-3.5991,-3.5988,-3.5856,-3.583,-3.584,-3.5606,-3.5568,-3.5411,-3.4751,-3.4699,-3.5315,-3.5122,-3.4365,-3.2987,-3.2718,-3.2275,-3.1602,-3.0865,-3.0423,-3.0386,-3.0189,-3.0121,-3.0176,-2.9891,-2.9661,-2.9437,-2.9328,-2.9189,-2.9126,-2.9071,-2.9078,-2.8853,-2.819,-2.7432,-2.6567,-2.5856,-2.5026,-2.4309,-2.4199,-2.419,-2.4151,-2.3955,-2.3795,-2.371,-2.3354,-2.3089,-2.3082,-2.2855,-2.2712,-2.2712,-2.2712,-2.2672,-2.2605,-2.2525,-2.2474,-2.2422,-2.2324,-2.2254,-2.2166,-2.1646,-2.1276,-2.1198,-2.0696,-2.0373,-2.0321,-2.0289,-2.022,-2.0133,-2.008,-2.001,-1.9833,-1.9797,-1.9762,-1.9726,-1.9708,-1.9723,-1.9723,-1.9723,-1.9723,-1.9723,-1.9723,-1.9723,-1.9723,-1.9723,-1.9723,-1.9723,-1.9723,-1.9705,-1.9672,-1.9632,-1.9538,-1.9358,-1.9269,-1.9228,-1.9191,-1.9139,-1.9116,-1.9116,-1.9116,-1.9116,-1.9045,-1.8874,-1.8669,-1.8403,-1.7994,-1.7503,-1.7186,-1.7089,-1.685,-1.6757,-1.6586,-1.6522,-3.5954,-3.6019,-3.6014,-3.6012,-3.601,-3.596,-3.594,-3.5886,-3.582,-3.5434,-3.4938,-3.5016,-3.4959,-3.4743,-3.5284,-3.4846,-3.3737,-3.316,-3.2737,-3.2449,-3.2141,-3.1981,-3.1942,-3.1418,-3.113,-3.1008,-3.0355,-2.9896,-2.9816,-3.017,-3.0057,-2.9471,-2.9365,-2.9301,-2.9148,-2.889,-2.8086,-2.6821,-2.6356,-2.5571,-2.4338,-2.4209,-2.4199,-2.419,-2.4122,-2.3986,-2.3806,-2.3635,-2.3417,-2.3102,-2.3008,-2.2881,-2.2725,-2.2712,-2.2685,-2.2659,-2.2592,-2.2528,-2.2491,-2.2391,-2.2237,-2.1974,-2.1766,-2.1508,-2.1292,-2.0893,-2.0611,-2.0594,-2.0407,-2.027,-2.022,-2.015,-2.0065,-1.9995,-1.9887,-1.9797,-1.9762,-1.9726,-1.9723,-1.9723,-1.9723,-1.9723,-1.9723,-1.9723,-1.9723,-1.9723,-1.9723,-1.9723,-1.9723,-1.9723,-1.9723,-1.9708,-1.9672,-1.9632,-1.952,-1.9409,-1.9339,-1.9284,-1.9213,-1.9191,-1.9172,-1.912,-1.912,-1.912,-1.8898,-1.8798,-1.8649,-1.8539,-1.7894,-1.7666,-1.7544,-1.7068,-1.706,-1.6808,-1.6671,-3.5976,-3.6007,-3.6019,-3.6016,-3.6016,-3.6013,-3.598,-3.5934,-3.5916,-3.5512,-3.5029,-3.5165,-3.502,-3.4773,-3.5007,-3.4989,-3.4533,-3.3737,-3.3314,-3.3276,-3.3045,-3.2891,-3.2776,-3.2064,-3.1833,-3.1949,-3.1332,-3.0879,-3.0863,-3.1276,-3.1099,-3.0405,-3.0057,-2.9807,-2.9638,-2.938,-2.8397,-2.7028,-2.67,-2.5877,-2.444,-2.42,-2.4199,-2.4199,-2.4199,-2.4113,-2.3927,-2.3865,-2.3624,-2.3265,-2.3139,-2.2982,-2.2738,-2.2712,-2.2712,-2.2699,-2.2649,-2.2596,-2.2542,-2.2474,-2.229,-2.2017,-2.1884,-2.1721,-2.1479,-2.1166,-2.099,-2.0909,-2.0662,-2.0443,-2.0409,-2.0272,-2.015,-2.0083,-1.9975,-1.9869,-1.9797,-1.9744,-1.9726,-1.9708,-1.9723,-1.9723,-1.9723,-1.9723,-1.9723,-1.9723,-1.9723,-1.9723,-1.9723,-1.9723,-1.9723,-1.9723,-1.9708,-1.9672,-1.9632,-1.956,-1.9431,-1.9362,-1.9325,-1.9284,-1.9228,-1.9176,-1.9157,-1.9157,-1.9101,-1.9045,-1.8988,-1.8936,-1.8726,-1.8417,-1.7848,-1.7289,-1.7165,-1.701,-1.682,-3.6011,-3.601,-3.6006,-3.6004,-3.6003,-3.6017,-3.6012,-3.5986,-3.5914,-3.5797,-3.5494,-3.497,-3.5003,-3.5247,-3.4823,-3.4799,-3.5155,-3.4564,-3.4199,-3.4141,-3.3449,-3.3122,-3.3083,-3.2352,-3.2237,-3.2769,-3.2718,-3.2634,-3.2466,-3.2444,-3.2275,-3.192,-3.1214,-3.0731,-3.0556,-2.9742,-2.8542,-2.717,-2.673,-2.5859,-2.4422,-2.42,-2.4199,-2.4199,-2.4199,-2.419,-2.417,-2.3966,-2.3692,-2.341,-2.3212,-2.2977,-2.2734,-2.2712,-2.2712,-2.2699,-2.2632,-2.2592,-2.2579,-2.2542,-2.246,-2.2318,-2.2104,-2.1899,-2.1796,-2.1493,-2.1308,-2.1261,-2.1023,-2.0794,-2.0761,-2.051,-2.0272,-2.0133,-2.008,-1.9993,-1.9869,-1.9797,-1.978,-1.9708,-1.9723,-1.9723,-1.9723,-1.9723,-1.9723,-1.9723,-1.9723,-1.9723,-1.9723,-1.9723,-1.9723,-1.9723,-1.9723,-1.9705,-1.9705,-1.9705,-1.9563,-1.9453,-1.9431,-1.9376,-1.9339,-1.9302,-1.9232,-1.9213,-1.9139,-1.9064,-1.8931,-1.886,-1.8669,-1.8358,-1.7828,-1.7625,-1.7537,-1.7372,-1.6913,-3.5957,-3.6013,-3.6011,-3.6009,-3.6009,-3.6003,-3.6021,-3.6,-3.5965,-3.5646,-3.5209,-3.5346,-3.5235,-3.4936,-3.5025,-3.5288,-3.5468,-3.5192,-3.5077,-3.5026,-3.4769,-3.4641,-3.4481,-3.3814,-3.3218,-3.3058,-3.3486,-3.3408,-3.3049,-3.3398,-3.3237,-3.2426,-3.208,-3.1449,-3.0674,-3.0267,-2.9142,-2.7128,-2.6799,-2.5945,-2.4432,-2.4237,-2.4218,-2.4199,-2.4199,-2.4199,-2.419,-2.4132,-2.3865,-2.3444,-2.3341,-2.3122,-2.2799,-2.2712,-2.2712,-2.2716,-2.2703,-2.2646,-2.2623,-2.2579,-2.2525,-2.2443,-2.2318,-2.2248,-2.2178,-2.1855,-2.1661,-2.1616,-2.1339,-2.1166,-2.1087,-2.0844,-2.0544,-2.027,-2.015,-2.0063,-1.9922,-1.9797,-1.9726,-1.9708,-1.9723,-1.9723,-1.9723,-1.9723,-1.9723,-1.9723,-1.9723,-1.9723,-1.9723,-1.9723,-1.9723,-1.9723,-1.9723,-1.9723,-1.9723,-1.9723,-1.9636,-1.9563,-1.9541,-1.9505,-1.945,-1.9372,-1.9321,-1.9232,-1.9172,-1.9078,-1.8931,-1.8836,-1.8688,-1.8688,-1.8539,-1.8344,-1.8108,-1.7686,-1.7144,-3.593,-3.5975,-3.5975,-3.6012,-3.6012,-3.6009,-3.6006,-3.6004,-3.6019,-3.5664,-3.5384,-3.5697,-3.5597,-3.5141,-3.5495,-3.5625,-3.554,-3.5541,-3.5534,-3.5507,-3.55,-3.55,-3.5442,-3.4968,-3.4218,-3.3699,-3.4276,-3.441,-3.393,-3.4365,-3.4266,-3.3568,-3.3126,-3.2353,-3.1213,-3.0798,-2.9583,-2.766,-2.7311,-2.6475,-2.5124,-2.4707,-2.4531,-2.4254,-2.4199,-2.4199,-2.4199,-2.4199,-2.4006,-2.3606,-2.3416,-2.3103,-2.2734,-2.2712,-2.2712,-2.2712,-2.2699,-2.2685,-2.2632,-2.2632,-2.2605,-2.2555,-2.2484,-2.2446,-2.2377,-2.2118,-2.2034,-2.1945,-2.1676,-2.1478,-2.1432,-2.1182,-2.0893,-2.0712,-2.0375,-2.015,-2.0028,-1.9851,-1.9744,-1.9726,-1.9726,-1.9708,-1.9723,-1.9723,-1.9723,-1.9723,-1.9723,-1.9723,-1.9723,-1.9723,-1.9723,-1.9723,-1.9723,-1.9723,-1.9723,-1.9723,-1.9723,-1.9687,-1.9654,-1.9599,-1.9563,-1.9431,-1.9339,-1.9228,-1.9134,-1.9116,-1.9007,-1.9026,-1.8969,-1.9064,-1.8993,-1.8519,-1.8048,-1.77,-1.722,-3.589,-3.5917,-3.5956,-3.5996,-3.5995,-3.5993,-3.6009,-3.6006,-3.6004,-3.5962,-3.5956,-3.5973,-3.5931,-3.5858,-3.5833,-3.5761,-3.563,-3.5593,-3.557,-3.5522,-3.5515,-3.5508,-3.5449,-3.5365,-3.4949,-3.4507,-3.5038,-3.5365,-3.5192,-3.5308,-3.5383,-3.4923,-3.4211,-3.3363,-3.226,-3.1421,-3.0123,-2.8509,-2.8132,-2.7182,-2.5568,-2.5446,-2.5048,-2.4264,-2.4209,-2.4209,-2.4199,-2.4199,-2.4084,-2.3792,-2.3376,-2.3065,-2.2803,-2.2725,-2.2751,-2.2725,-2.2712,-2.2699,-2.2699,-2.2699,-2.2672,-2.2605,-2.2579,-2.2555,-2.2432,-2.2377,-2.2321,-2.2251,-2.1988,-2.1842,-2.1783,-2.1508,-2.1323,-2.1229,-2.068,-2.0306,-2.0115,-1.994,-1.9815,-1.978,-1.9744,-1.9723,-1.9708,-1.9723,-1.9723,-1.9723,-1.9723,-1.9723,-1.9723,-1.9723,-1.9723,-1.9723,-1.9723,-1.9723,-1.9723,-1.9723,-1.9723,-1.9723,-1.969,-1.9672,-1.9617,-1.9505,-1.9358,-1.9246,-1.9172,-1.9134,-1.9101,-1.9101,-1.9101,-1.9082,-1.8822,-1.8344,-1.8088,-1.7882,-1.7516,-3.5771,-3.5836,-3.5896,-3.5927,-3.593,-3.5976,-3.6013,-3.6012,-3.601,-3.6008,-3.6006,-3.6003,-3.5967,-3.5887,-3.5894,-3.5804,-3.5689,-3.5663,-3.5645,-3.5593,-3.5581,-3.5554,-3.5501,-3.55,-3.5365,-3.5173,-3.5346,-3.5481,-3.55,-3.55,-3.5403,-3.519,-3.4958,-3.426,-3.3241,-3.2363,-3.1072,-2.942,-2.8549,-2.7391,-2.5912,-2.5558,-2.5105,-2.4367,-2.4219,-2.421,-2.4201,-2.4209,-2.4066,-2.3806,-2.3506,-2.3224,-2.3015,-2.299,-2.2919,-2.2751,-2.2712,-2.2712,-2.2712,-2.2712,-2.2681,-2.2655,-2.2619,-2.2579,-2.2569,-2.2501,-2.2446,-2.2377,-2.2279,-2.2223,-2.212,-2.1871,-2.1601,-2.1276,-2.0877,-2.0462,-2.0204,-2.001,-1.9919,-1.9815,-1.9815,-1.9764,-1.9726,-1.9708,-1.9708,-1.9723,-1.9723,-1.9723,-1.9723,-1.9723,-1.9723,-1.9723,-1.9723,-1.9723,-1.9723,-1.9723,-1.9723,-1.9723,-1.969,-1.969,-1.9654,-1.9578,-1.945,-1.9321,-1.9265,-1.9246,-1.9157,-1.9101,-1.9101,-1.9134,-1.8969,-1.8693,-1.8655,-1.85,-1.8048,-3.5725,-3.5775,-3.5834,-3.5882,-3.5896,-3.5951,-3.5957,-3.5995,-3.6013,-3.6012,-3.601,-3.6009,-3.598,-3.5944,-3.5958,-3.5892,-3.5781,-3.5772,-3.5749,-3.564,-3.5614,-3.5577,-3.5515,-3.55,-3.55,-3.55,-3.55,-3.55,-3.55,-3.55,-3.5432,-3.5354,-3.5331,-3.4775,-3.3693,-3.2906,-3.1824,-3.0381,-2.9315,-2.7988,-2.6395,-2.6107,-2.5346,-2.4589,-2.4266,-2.4238,-2.4238,-2.4247,-2.4105,-2.3847,-2.3631,-2.3473,-2.3259,-2.3236,-2.3121,-2.2889,-2.2868,-2.2842,-2.2725,-2.2712,-2.2712,-2.2699,-2.2659,-2.2632,-2.2592,-2.2552,-2.2497,-2.2429,-2.2432,-2.2422,-2.2338,-2.2135,-2.1855,-2.1569,-2.1276,-2.0958,-2.0631,-2.0547,-2.0361,-2.0222,-2.0118,-2.0013,-1.9851,-1.978,-1.9744,-1.9744,-1.9726,-1.9708,-1.9723,-1.9723,-1.9723,-1.9723,-1.9723,-1.9723,-1.9723,-1.9723,-1.9723,-1.9723,-1.9708,-1.969,-1.9654,-1.9614,-1.9505,-1.9395,-1.9358,-1.9321,-1.9232,-1.9176,-1.9209,-1.9209,-1.9157,-1.9011,-1.8879,-1.886,-1.8422,-3.5704,-3.5709,-3.5772,-3.5829,-3.5861,-3.5892,-3.593,-3.5976,-3.5995,-3.6014,-3.6012,-3.6011,-3.5991,-3.6011,-3.6006,-3.596,-3.5914,-3.5912,-3.5836,-3.5748,-3.5678,-3.5602,-3.5546,-3.5508,-3.5507,-3.55,-3.55,-3.55,-3.55,-3.55,-3.55,-3.546,-3.5467,-3.5014,-3.4163,-3.3222,-3.2233,-3.1282,-3.0081,-2.879,-2.7407,-2.6833,-2.5958,-2.4838,-2.4367,-2.4312,-2.4303,-2.4275,-2.4154,-2.3868,-2.3847,-2.3703,-2.35,-2.3455,-2.3347,-2.3175,-2.3077,-2.2965,-2.279,-2.2738,-2.2712,-2.2699,-2.2699,-2.2685,-2.2632,-2.2623,-2.2579,-2.2497,-2.2515,-2.246,-2.2408,-2.2321,-2.2166,-2.1901,-2.1827,-2.1706,-2.1462,-2.1245,-2.0991,-2.0648,-2.0531,-2.0359,-2.008,-1.9902,-1.983,-1.9833,-1.9797,-1.9744,-1.9726,-1.9708,-1.9708,-1.9723,-1.9723,-1.9723,-1.9723,-1.9723,-1.9723,-1.9723,-1.9723,-1.969,-1.9669,-1.9614,-1.9541,-1.9468,-1.9465,-1.9428,-1.9339,-1.9302,-1.9302,-1.9228,-1.9139,-1.8917,-1.8712,-1.8822,-1.8592,-3.5702,-3.5713,-3.5709,-3.5733,-3.5749,-3.5869,-3.5918,-3.5926,-3.5976,-3.5996,-3.6015,-3.6014,-3.6014,-3.6013,-3.6012,-3.6008,-3.5965,-3.5983,-3.595,-3.5848,-3.5726,-3.5683,-3.5674,-3.5659,-3.554,-3.5514,-3.5507,-3.55,-3.55,-3.55,-3.55,-3.55,-3.5481,-3.5371,-3.4959,-3.3651,-3.2739,-3.2096,-3.0731,-2.9334,-2.8143,-2.7242,-2.6377,-2.531,-2.4708,-2.4367,-2.4303,-2.4294,-2.4266,-2.421,-2.4125,-2.3979,-2.3777,-2.3724,-2.3606,-2.3382,-2.3211,-2.3095,-2.2995,-2.2799,-2.2712,-2.2712,-2.2699,-2.2716,-2.2685,-2.2672,-2.2646,-2.2592,-2.2565,-2.2511,-2.2432,-2.2377,-2.2293,-2.2194,-2.2152,-2.2137,-2.202,-2.16,-2.115,-2.0779,-2.063,-2.0429,-2.0078,-2.0025,-1.9973,-1.9955,-1.9884,-1.9797,-1.9762,-1.9726,-1.9708,-1.9708,-1.9723,-1.9723,-1.9723,-1.9723,-1.9723,-1.9723,-1.9723,-1.9723,-1.9687,-1.9669,-1.9614,-1.9578,-1.9571,-1.9501,-1.945,-1.9358,-1.9354,-1.9246,-1.9157,-1.9045,-1.895,-1.895,-1.8822,-3.5704,-3.5753,-3.6096,-3.6027,-3.5826,-3.6213,-3.6231,-3.5952,-3.5928,-3.5974,-3.5996,-3.6015,-3.6015,-3.6015,-3.6014,-3.6014,-3.6014,-3.6032,-3.6243,-3.6441,-3.6484,-3.6613,-3.6771,-3.6403,-3.6043,-3.5712,-3.5984,-3.5912,-3.5622,-3.5488,-3.55,-3.55,-3.55,-3.5481,-3.5365,-3.418,-3.3301,-3.2605,-3.1378,-2.9961,-2.8628,-2.7554,-2.6338,-2.5372,-2.4706,-2.442,-2.4402,-2.4393,-2.4394,-2.4348,-2.4303,-2.4229,-2.4067,-2.3989,-2.386,-2.3649,-2.3382,-2.3194,-2.3077,-2.2868,-2.2712,-2.2712,-2.2712,-2.2712,-2.2712,-2.2712,-2.2685,-2.2659,-2.2632,-2.2609,-2.2501,-2.2436,-2.2377,-2.2349,-2.231,-2.2313,-2.224,-2.1976,-2.1539,-2.115,-2.1087,-2.0746,-2.0461,-2.0254,-2.0115,-2.0098,-1.9973,-1.9887,-1.9797,-1.9762,-1.9726,-1.9708,-1.9708,-1.9723,-1.9723,-1.9723,-1.9723,-1.9723,-1.9723,-1.9723,-1.9705,-1.969,-1.969,-1.9669,-1.9629,-1.9632,-1.9563,-1.9487,-1.9428,-1.9409,-1.9339,-1.9265,-1.9172,-1.9064,-1.8955,-3.582,-3.5742,-3.6439,-3.6318,-3.5866,-3.6436,-3.6378,-3.591,-3.5892,-3.5927,-3.5976,-3.5996,-3.6016,-3.6016,-3.6016,-3.6016,-3.6016,-3.6054,-3.6346,-3.7066,-3.7092,-3.7491,-3.7868,-3.7668,-3.6977,-3.6033,-3.6184,-3.6048,-3.5669,-3.5482,-3.5501,-3.5494,-3.55,-3.55,-3.5308,-3.4641,-3.3833,-3.3128,-3.1912,-3.0726,-2.9315,-2.8134,-2.6689,-2.5273,-2.5103,-2.4788,-2.4668,-2.4631,-2.4659,-2.4439,-2.4412,-2.4394,-2.4339,-2.4247,-2.4154,-2.3939,-2.3671,-2.3416,-2.3206,-2.2952,-2.2777,-2.2725,-2.2712,-2.2712,-2.2712,-2.2712,-2.2699,-2.2699,-2.2685,-2.2659,-2.2592,-2.2515,-2.2449,-2.2408,-2.2352,-2.231,-2.2313,-2.2313,-2.1947,-2.1539,-2.1416,-2.1182,-2.0778,-2.0477,-2.0342,-2.0222,-2.0098,-1.9975,-1.9904,-1.9833,-1.9815,-1.9762,-1.9744,-1.9726,-1.9708,-1.9723,-1.9723,-1.9723,-1.9723,-1.9723,-1.9723,-1.9708,-1.9708,-1.9708,-1.9705,-1.9672,-1.965,-1.9574,-1.9553,-1.9571,-1.9465,-1.9302,-1.9213,-1.9176,-1.903,-3.6303,-3.5704,-3.5839,-3.5817,-3.5746,-3.5877,-3.5908,-3.5758,-3.5847,-3.5896,-3.5923,-3.5976,-3.5996,-3.6016,-3.6016,-3.6016,-3.6016,-3.6133,-3.6582,-3.7305,-3.748,-3.7969,-3.8711,-3.8923,-3.8294,-3.7047,-3.6413,-3.5902,-3.5632,-3.5519,-3.5502,-3.5496,-3.5501,-3.55,-3.5276,-3.468,-3.4167,-3.3519,-3.2299,-3.1231,-3.0349,-2.9053,-2.7468,-2.5914,-2.6029,-2.566,-2.4927,-2.5113,-2.5197,-2.4575,-2.4482,-2.4474,-2.4447,-2.4348,-2.4266,-2.4154,-2.3958,-2.366,-2.345,-2.3194,-2.2927,-2.2777,-2.2738,-2.2725,-2.2725,-2.2712,-2.2712,-2.2712,-2.2699,-2.2672,-2.2623,-2.2569,-2.2497,-2.2432,-2.2394,-2.2349,-2.2324,-2.2268,-2.2149,-2.1796,-2.1738,-2.1617,-2.1135,-2.0811,-2.0729,-2.058,-2.0412,-2.0273,-2.0135,-2.0028,-1.9955,-1.9869,-1.9797,-1.9762,-1.9726,-1.9708,-1.9723,-1.9723,-1.9723,-1.9723,-1.9723,-1.9723,-1.9723,-1.9723,-1.9705,-1.9672,-1.965,-1.9644,-1.9593,-1.9574,-1.9431,-1.9288,-1.9269,-1.9213,-1.8988,-3.6052,-3.5742,-3.6149,-3.6071,-3.5831,-3.6163,-3.6081,-3.5725,-3.5778,-3.5821,-3.5853,-3.5921,-3.5951,-3.5972,-3.5996,-3.6016,-3.6074,-3.6523,-3.7148,-3.7871,-3.8437,-3.9101,-3.9648,-3.9902,-3.9077,-3.7952,-3.695,-3.6109,-3.5698,-3.5581,-3.5593,-3.5544,-3.5528,-3.55,-3.5442,-3.5135,-3.4372,-3.3622,-3.2672,-3.1665,-3.0784,-2.9368,-2.7956,-2.7123,-2.6788,-2.6337,-2.5512,-2.541,-2.5299,-2.4685,-2.45,-2.45,-2.4482,-2.4437,-2.4384,-2.4294,-2.4105,-2.3907,-2.3724,-2.3502,-2.3242,-2.3134,-2.2998,-2.2902,-2.2868,-2.2816,-2.2712,-2.2712,-2.2699,-2.2685,-2.2659,-2.2619,-2.2565,-2.2497,-2.2446,-2.2394,-2.2352,-2.2324,-2.2194,-2.2065,-2.2051,-2.1829,-2.134,-2.1119,-2.1119,-2.0958,-2.0763,-2.058,-2.0395,-2.0342,-2.0256,-2.0063,-1.9977,-1.9854,-1.9782,-1.9744,-1.9723,-1.9723,-1.9723,-1.9723,-1.9723,-1.9723,-1.9723,-1.9723,-1.9705,-1.969,-1.9687,-1.9683,-1.9614,-1.9578,-1.9505,-1.945,-1.9358,-1.9232,-1.9045,-3.5858,-3.5742,-3.6381,-3.6284,-3.5864,-3.6361,-3.6294,-3.578,-3.5713,-3.5741,-3.5797,-3.5847,-3.5889,-3.5921,-3.5976,-3.6016,-3.6074,-3.6738,-3.7363,-3.8144,-3.873,-3.9687,-4.0215,-4.0195,-3.9394,-3.8456,-3.7864,-3.6877,-3.5972,-3.5958,-3.5931,-3.5968,-3.5854,-3.5765,-3.5797,-3.5545,-3.4526,-3.3891,-3.316,-3.2218,-3.0654,-2.9462,-2.8518,-2.7638,-2.7484,-2.6952,-2.5814,-2.5705,-2.5316,-2.4759,-2.45,-2.45,-2.45,-2.45,-2.4474,-2.4403,-2.4209,-2.4103,-2.3937,-2.3774,-2.3533,-2.341,-2.323,-2.3126,-2.3015,-2.2868,-2.2712,-2.2712,-2.2699,-2.2699,-2.2685,-2.2646,-2.2619,-2.2582,-2.2501,-2.2432,-2.2405,-2.2363,-2.2338,-2.2282,-2.231,-2.2051,-2.1555,-2.1433,-2.1417,-2.1214,-2.0991,-2.0975,-2.0812,-2.078,-2.068,-2.0361,-2.0172,-1.9997,-1.9874,-1.9764,-1.9744,-1.9723,-1.9723,-1.9723,-1.9723,-1.9723,-1.9723,-1.9723,-1.9723,-1.9705,-1.9723,-1.9723,-1.9687,-1.965,-1.9629,-1.9574,-1.9468,-1.9376,-1.9232,-3.6342,-3.5704,-3.58,-3.5781,-3.5723,-3.5839,-3.5825,-3.5736,-3.5697,-3.5698,-3.5718,-3.5774,-3.5843,-3.5917,-3.5973,-3.5996,-3.6133,-3.6328,-3.6934,-3.7773,-3.8066,-3.8594,-3.9101,-3.9687,-3.9394,-3.873,-3.8437,-3.7436,-3.6469,-3.6587,-3.6814,-3.6744,-3.6629,-3.6621,-3.6248,-3.5779,-3.5404,-3.5026,-3.4334,-3.309,-3.1552,-3.0386,-2.9464,-2.886,-2.8434,-2.7738,-2.6422,-2.611,-2.5583,-2.4764,-2.4535,-2.45,-2.45,-2.45,-2.45,-2.4474,-2.4375,-2.4247,-2.4086,-2.3939,-2.3777,-2.3617,-2.333,-2.3151,-2.3065,-2.2932,-2.2751,-2.2712,-2.2712,-2.2712,-2.2712,-2.2699,-2.2659,-2.2619,-2.2565,-2.2511,-2.247,-2.2419,-2.2377,-2.2366,-2.2366,-2.2149,-2.1796,-2.1751,-2.1676,-2.1462,-2.1308,-2.1276,-2.1197,-2.1134,-2.0926,-2.0581,-2.0361,-2.0174,-1.9962,-1.9854,-1.978,-1.9741,-1.9741,-1.9723,-1.9723,-1.9723,-1.9723,-1.9723,-1.9723,-1.9723,-1.9723,-1.9723,-1.9723,-1.9705,-1.9669,-1.9629,-1.9593,-1.9487,-1.9395,-3.6013,-3.5704,-3.5704,-3.5704,-3.5704,-3.5704,-3.5704,-3.5715,-3.5713,-3.5718,-3.5718,-3.5718,-3.5789,-3.5887,-3.5947,-3.625,-3.6621,-3.666,-3.7207,-3.7988,-3.8398,-3.8867,-3.9512,-4.0078,-4.0,-3.8789,-3.8496,-3.7968,-3.7158,-3.6941,-3.7147,-3.7141,-3.6985,-3.6551,-3.6348,-3.5797,-3.5231,-3.4507,-3.35,-3.2468,-3.1648,-3.0797,-3.0036,-2.9594,-2.9472,-2.862,-2.7698,-2.6926,-2.6355,-2.5517,-2.5022,-2.4615,-2.459,-2.4541,-2.45,-2.45,-2.4474,-2.4393,-2.4312,-2.4201,-2.4058,-2.3939,-2.37,-2.3502,-2.3295,-2.3089,-2.2932,-2.2944,-2.279,-2.2725,-2.2725,-2.2712,-2.2685,-2.2659,-2.2619,-2.2592,-2.2538,-2.2484,-2.2429,-2.2419,-2.2391,-2.222,-2.2089,-2.2049,-2.2005,-2.1917,-2.1768,-2.1736,-2.1554,-2.1339,-2.1071,-2.0714,-2.0531,-2.0362,-2.0118,-1.994,-1.9851,-1.9812,-1.9762,-1.9762,-1.9723,-1.9723,-1.9723,-1.9723,-1.9723,-1.9723,-1.9723,-1.9723,-1.9723,-1.9705,-1.9672,-1.965,-1.9614,-1.9593,-1.9501,-3.5668,-3.5704,-3.5704,-3.5704,-3.5704,-3.5704,-3.5704,-3.5704,-3.5709,-3.5709,-3.5716,-3.5702,-3.5749,-3.5836,-3.5917,-3.6211,-3.6836,-3.6952,-3.7519,-3.8281,-3.8867,-3.9023,-3.918,-3.9766,-3.9609,-3.8301,-3.8144,-3.7949,-3.7734,-3.7414,-3.7321,-3.7507,-3.7542,-3.6952,-3.6203,-3.5756,-3.5321,-3.4701,-3.3139,-3.23,-3.1903,-3.0962,-3.0426,-3.012,-2.992,-2.9509,-2.8741,-2.7583,-2.6671,-2.6046,-2.5163,-2.4679,-2.4623,-2.4551,-2.45,-2.45,-2.4491,-2.4491,-2.4429,-2.4384,-2.4367,-2.4247,-2.4047,-2.3692,-2.3444,-2.3271,-2.317,-2.3152,-2.2965,-2.285,-2.2803,-2.2777,-2.2699,-2.2685,-2.2676,-2.2632,-2.2605,-2.2579,-2.2525,-2.2501,-2.2474,-2.2449,-2.2349,-2.2307,-2.231,-2.2282,-2.2254,-2.2183,-2.1947,-2.1646,-2.1509,-2.1229,-2.0862,-2.0714,-2.0497,-2.0256,-2.0083,-1.9922,-1.9887,-1.9797,-1.9762,-1.9726,-1.9723,-1.9723,-1.9723,-1.9723,-1.9723,-1.9723,-1.9723,-1.9705,-1.969,-1.9672,-1.965,-1.9629,-1.9611,-3.559,-3.5704,-3.5704,-3.5704,-3.5704,-3.5704,-3.5704,-3.5704,-3.5704,-3.5704,-3.5701,-3.5708,-3.5698,-3.5721,-3.5819,-3.5979,-3.6132,-3.6034,-3.6887,-3.7422,-3.75,-3.7949,-3.832,-3.8652,-3.8613,-3.7754,-3.7773,-3.8086,-3.8223,-3.791,-3.7988,-3.8258,-3.7899,-3.7588,-3.6859,-3.5965,-3.555,-3.4856,-3.3525,-3.2733,-3.2233,-3.1343,-3.0417,-3.02,-2.9656,-2.9044,-2.881,-2.7625,-2.6695,-2.6234,-2.5424,-2.4757,-2.4714,-2.4574,-2.4551,-2.4542,-2.4508,-2.4508,-2.4482,-2.4437,-2.4412,-2.4303,-2.4106,-2.3858,-2.3642,-2.3471,-2.338,-2.3364,-2.32,-2.3072,-2.3003,-2.2893,-2.285,-2.2803,-2.2803,-2.276,-2.2734,-2.2699,-2.2646,-2.2609,-2.2555,-2.2515,-2.2491,-2.2436,-2.238,-2.2352,-2.2313,-2.224,-2.2254,-2.2051,-2.208,-2.1842,-2.1369,-2.1118,-2.0975,-2.0747,-2.0429,-2.0258,-2.0189,-1.9995,-1.9833,-1.978,-1.9833,-1.9723,-1.9723,-1.9723,-1.9723,-1.9723,-1.9723,-1.9723,-1.9705,-1.9672,-1.9672,-1.9669,-1.9687,-3.5528,-3.559,-3.5662,-3.5704,-3.5704,-3.5704,-3.5704,-3.5704,-3.5704,-3.5704,-3.5709,-3.5713,-3.5703,-3.5732,-3.5803,-3.643,-3.7225,-3.6864,-3.76,-3.847,-3.8867,-3.8574,-3.8672,-3.8711,-3.8984,-3.8223,-3.8086,-3.8164,-3.8496,-3.8516,-3.8144,-3.8083,-3.7812,-3.711,-3.6421,-3.5983,-3.5567,-3.4785,-3.3789,-3.2904,-3.2048,-3.1218,-3.0436,-3.0337,-3.0227,-2.989,-2.9658,-2.8693,-2.7866,-2.702,-2.6154,-2.547,-2.4861,-2.4707,-2.4629,-2.4615,-2.4557,-2.4525,-2.4508,-2.4455,-2.4447,-2.4367,-2.4229,-2.4086,-2.3921,-2.3868,-2.3756,-2.3649,-2.3502,-2.3335,-2.3254,-2.3194,-2.3117,-2.3035,-2.2965,-2.291,-2.285,-2.2803,-2.2725,-2.2663,-2.2623,-2.2569,-2.2542,-2.2501,-2.2449,-2.2394,-2.2338,-2.2313,-2.2313,-2.2282,-2.2254,-2.2152,-2.1691,-2.14,-2.126,-2.1007,-2.073,-2.0598,-2.0465,-2.0277,-2.0085,-2.0032,-2.0032,-1.9871,-1.9723,-1.9723,-1.9723,-1.9723,-1.9723,-1.9723,-1.9723,-1.9723,-1.9723,-1.9723,-1.9723,-3.539,-3.5457,-3.5608,-3.5679,-3.5704,-3.5704,-3.5704,-3.5704,-3.5704,-3.5704,-3.5704,-3.5709,-3.5857,-3.5955,-3.5814,-3.6429,-3.7336,-3.7439,-3.814,-3.8864,-3.9406,-3.9452,-3.9375,-3.9336,-3.9336,-3.8789,-3.8613,-3.8613,-3.8633,-3.9219,-3.8535,-3.7695,-3.7246,-3.6777,-3.6179,-3.5812,-3.5502,-3.4824,-3.3965,-3.3048,-3.2251,-3.1414,-3.0648,-3.053,-3.0375,-3.0114,-2.9842,-2.908,-2.8302,-2.7434,-2.6578,-2.5913,-2.5323,-2.4888,-2.4787,-2.4704,-2.4645,-2.4557,-2.4549,-2.4517,-2.4482,-2.442,-2.4367,-2.4321,-2.4275,-2.42,-2.4047,-2.4008,-2.3798,-2.361,-2.3544,-2.3455,-2.3311,-2.3206,-2.3109,-2.3047,-2.294,-2.2868,-2.2777,-2.2716,-2.2659,-2.2632,-2.2592,-2.2569,-2.2487,-2.2436,-2.238,-2.2338,-2.2313,-2.2282,-2.2223,-2.2109,-2.1871,-2.1661,-2.1493,-2.1245,-2.1023,-2.0878,-2.0764,-2.0632,-2.0465,-2.0381,-2.0154,-1.9854,-1.9744,-1.9723,-1.9723,-1.9723,-1.9723,-1.9723,-1.9723,-1.9723,-1.9723,-1.9723,-1.9723,-3.5179,-3.533,-3.5502,-3.5626,-3.5656,-3.5704,-3.5704,-3.5704,-3.5704,-3.5704,-3.5704,-3.5704,-3.6129,-3.6475,-3.6132,-3.6648,-3.7408,-3.7447,-3.7942,-3.8989,-3.9769,-3.9832,-3.9766,-3.9726,-3.9512,-3.8809,-3.875,-3.8828,-3.873,-3.9023,-3.834,-3.7519,-3.7109,-3.6758,-3.6035,-3.5946,-3.5838,-3.5599,-3.4678,-3.3832,-3.2783,-3.1942,-3.1279,-3.0634,-3.046,-3.0204,-2.9789,-2.9596,-2.8673,-2.7231,-2.6883,-2.6138,-2.5171,-2.4961,-2.4883,-2.4888,-2.4764,-2.4707,-2.4692,-2.4593,-2.4525,-2.4482,-2.443,-2.4384,-2.4394,-2.4321,-2.4257,-2.421,-2.4067,-2.3958,-2.3827,-2.3692,-2.3566,-2.3432,-2.3347,-2.3248,-2.3157,-2.3109,-2.3072,-2.2973,-2.2812,-2.2694,-2.2659,-2.2605,-2.2528,-2.246,-2.2419,-2.238,-2.2324,-2.2282,-2.2254,-2.218,-2.202,-2.193,-2.1766,-2.1524,-2.1323,-2.1197,-2.1134,-2.1071,-2.0862,-2.0682,-2.0364,-1.9942,-1.9854,-1.9942,-1.9833,-1.9723,-1.9723,-1.9723,-1.9723,-1.9723,-1.9723,-1.9723,-1.9723,-3.4945,-3.4981,-3.5133,-3.5224,-3.5296,-3.5584,-3.5704,-3.5704,-3.5704,-3.5704,-3.5704,-3.5704,-3.6137,-3.6571,-3.681,-3.7176,-3.8353,-3.869,-3.9185,-3.9867,-4.025,-4.0033,-3.9946,-3.9842,-3.9674,-3.9527,-3.9451,-3.9432,-3.9492,-3.9354,-3.8476,-3.7617,-3.6797,-3.6309,-3.6055,-3.5916,-3.5736,-3.5144,-3.4573,-3.3926,-3.2574,-3.2027,-3.1476,-3.0583,-3.0501,-3.0279,-2.994,-2.9868,-2.8993,-2.7483,-2.7184,-2.6614,-2.5477,-2.5113,-2.5024,-2.5006,-2.4896,-2.4832,-2.4808,-2.473,-2.4599,-2.4532,-2.4482,-2.4456,-2.4456,-2.4437,-2.4411,-2.4394,-2.4275,-2.4201,-2.4135,-2.4106,-2.3981,-2.3819,-2.3721,-2.3577,-2.3488,-2.3518,-2.3484,-2.3318,-2.3153,-2.303,-2.296,-2.2871,-2.2769,-2.2588,-2.2552,-2.2405,-2.2324,-2.2327,-2.2282,-2.2282,-2.2194,-2.2166,-2.2049,-2.1842,-2.1797,-2.1766,-2.172,-2.1706,-2.1446,-2.0991,-2.0649,-2.0243,-2.0191,-2.0156,-1.9942,-1.9777,-1.9741,-1.9723,-1.9723,-1.9723,-1.9723,-1.9723,-1.9723,-3.4732,-3.4752,-3.4898,-3.4952,-3.5032,-3.539,-3.559,-3.5651,-3.5656,-3.5656,-3.5656,-3.5676,-3.6321,-3.696,-3.7128,-3.7816,-3.9276,-3.9438,-3.9575,-4.0322,-4.0641,-4.0435,-4.0231,-4.0056,-4.0242,-4.0228,-4.021,-4.0208,-4.0218,-3.9925,-3.8828,-3.7422,-3.6445,-3.6152,-3.5996,-3.5918,-3.576,-3.5345,-3.5072,-3.4353,-3.3125,-3.2307,-3.1815,-3.0944,-3.052,-3.0373,-3.0254,-3.0037,-2.9622,-2.8285,-2.7523,-2.707,-2.5914,-2.5293,-2.5194,-2.5152,-2.5047,-2.4962,-2.4881,-2.4851,-2.4734,-2.4684,-2.4574,-2.4508,-2.45,-2.4491,-2.4474,-2.4447,-2.442,-2.4384,-2.4321,-2.4321,-2.4257,-2.4086,-2.3958,-2.3808,-2.3746,-2.3724,-2.3617,-2.3477,-2.3426,-2.3324,-2.323,-2.3146,-2.3061,-2.2854,-2.2664,-2.2511,-2.2352,-2.2341,-2.2327,-2.2296,-2.2296,-2.2254,-2.224,-2.2211,-2.2197,-2.2299,-2.2211,-2.208,-2.1631,-2.1118,-2.0845,-2.0548,-2.0309,-2.0083,-1.9957,-1.9848,-1.9812,-1.9777,-1.9759,-1.9741,-1.9723,-1.9723,-1.9723,-3.4564,-3.4615,-3.4803,-3.486,-3.4897,-3.5144,-3.5374,-3.5598,-3.5643,-3.5688,-3.5675,-3.5758,-3.6562,-3.7636,-3.7186,-3.772,-3.8928,-3.9199,-3.9284,-3.9607,-4.0081,-4.0262,-4.0449,-4.0517,-4.037,-4.0584,-4.0691,-4.0521,-4.0757,-3.9811,-3.8546,-3.725,-3.63,-3.6055,-3.5996,-3.5976,-3.5878,-3.5736,-3.5594,-3.4662,-3.3403,-3.3095,-3.214,-3.1215,-3.0601,-3.0309,-3.0187,-3.0137,-2.9158,-2.8223,-2.7583,-2.6807,-2.6075,-2.5449,-2.5406,-2.5331,-2.5175,-2.509,-2.4987,-2.4961,-2.4915,-2.4847,-2.4684,-2.4566,-2.4551,-2.4566,-2.4551,-2.4525,-2.449,-2.4437,-2.4402,-2.4384,-2.4367,-2.421,-2.4075,-2.3968,-2.3878,-2.3785,-2.3628,-2.3533,-2.3555,-2.35,-2.3444,-2.3387,-2.3324,-2.3054,-2.2846,-2.2655,-2.2515,-2.2352,-2.2338,-2.2324,-2.231,-2.2296,-2.2313,-2.2296,-2.2313,-2.2313,-2.2282,-2.2123,-2.1645,-2.1369,-2.1229,-2.091,-2.034,-2.0043,-1.9975,-1.9955,-1.9935,-1.9899,-1.983,-1.9744,-1.9708,-1.9723,-1.9723,-3.3794,-3.4309,-3.4371,-3.4405,-3.4439,-3.4693,-3.5008,-3.5417,-3.5965,-3.6315,-3.6453,-3.6453,-3.6909,-3.7905,-3.7192,-3.7576,-3.8063,-3.8409,-3.8392,-3.878,-3.9438,-3.9276,-3.9503,-3.9978,-3.9888,-3.9859,-4.0011,-4.0407,-3.9843,-3.9105,-3.7808,-3.6276,-3.6052,-3.5932,-3.5944,-3.5972,-3.5976,-3.5976,-3.5955,-3.4891,-3.3823,-3.3367,-3.2225,-3.1229,-3.0701,-3.0436,-3.0464,-3.0469,-2.9638,-2.8918,-2.8189,-2.7408,-2.6537,-2.5799,-2.5389,-2.5391,-2.5327,-2.5288,-2.5233,-2.5118,-2.5061,-2.5043,-2.4888,-2.483,-2.4772,-2.4704,-2.4671,-2.4639,-2.4599,-2.4557,-2.4522,-2.4505,-2.4462,-2.4366,-2.4257,-2.4163,-2.4096,-2.3998,-2.3847,-2.3827,-2.3837,-2.3756,-2.3714,-2.3682,-2.3573,-2.3283,-2.3047,-2.2884,-2.2655,-2.2528,-2.2394,-2.238,-2.2338,-2.2324,-2.231,-2.231,-2.2296,-2.2313,-2.2282,-2.2254,-2.2005,-2.1766,-2.1661,-2.1276,-2.0696,-2.0308,-2.0098,-2.0061,-2.0041,-1.9952,-1.9884,-1.978,-1.9726,-1.9726,-1.9723,-3.3299,-3.3733,-3.4086,-3.4216,-3.4233,-3.4381,-3.4672,-3.5113,-3.5628,-3.597,-3.6164,-3.6106,-3.6635,-3.7305,-3.7016,-3.7214,-3.7988,-3.8092,-3.8099,-3.8318,-3.8796,-3.8695,-3.8903,-3.9245,-3.9242,-3.911,-3.9208,-3.9686,-3.8986,-3.8121,-3.6945,-3.5889,-3.5785,-3.5797,-3.5817,-3.5853,-3.5885,-3.5903,-3.5699,-3.4882,-3.4079,-3.334,-3.2285,-3.1146,-3.0785,-3.0755,-3.0751,-3.0726,-3.011,-2.9166,-2.8282,-2.7507,-2.6565,-2.5679,-2.5406,-2.541,-2.538,-2.5378,-2.5346,-2.5293,-2.5234,-2.5198,-2.5132,-2.5128,-2.5025,-2.4922,-2.4851,-2.4772,-2.4712,-2.4676,-2.4676,-2.4642,-2.4596,-2.4522,-2.4462,-2.4374,-2.4321,-2.4257,-2.4209,-2.4181,-2.4124,-2.4066,-2.4026,-2.3968,-2.3907,-2.3728,-2.3535,-2.3388,-2.3054,-2.2703,-2.2538,-2.2449,-2.2394,-2.2352,-2.2338,-2.2324,-2.231,-2.2327,-2.2313,-2.2254,-2.218,-2.2005,-2.1721,-2.1401,-2.1023,-2.068,-2.0357,-2.0185,-2.0113,-2.0043,-1.9973,-1.9904,-1.9833,-1.9759,-1.9741,-3.289,-3.3094,-3.3863,-3.4216,-3.4216,-3.4221,-3.4363,-3.4572,-3.4819,-3.5049,-3.5321,-3.5362,-3.5983,-3.668,-3.6534,-3.6813,-3.7209,-3.7363,-3.7324,-3.7827,-3.8334,-3.8209,-3.7952,-3.8599,-3.8389,-3.8389,-3.855,-3.8814,-3.8026,-3.732,-3.664,-3.5664,-3.5674,-3.5705,-3.5696,-3.5743,-3.5688,-3.5456,-3.5383,-3.4879,-3.3847,-3.3184,-3.2637,-3.1211,-3.0853,-3.0822,-3.0799,-3.0512,-2.9977,-2.8901,-2.8002,-2.7357,-2.6221,-2.5593,-2.5489,-2.5429,-2.543,-2.5426,-2.5425,-2.5372,-2.5359,-2.5369,-2.5388,-2.5346,-2.5217,-2.5056,-2.4948,-2.4902,-2.4847,-2.4816,-2.4782,-2.4782,-2.4757,-2.4685,-2.4631,-2.4575,-2.451,-2.4435,-2.433,-2.4284,-2.4228,-2.4153,-2.4133,-2.4084,-2.3996,-2.4004,-2.3904,-2.3728,-2.3439,-2.2987,-2.2794,-2.2632,-2.2565,-2.2528,-2.2408,-2.238,-2.2338,-2.2341,-2.2327,-2.2254,-2.218,-2.1959,-2.1721,-2.1416,-2.1119,-2.0893,-2.0628,-2.0392,-2.02,-2.0133,-2.008,-2.0045,-1.9957,-1.9866,-1.9812,-3.1905,-3.3076,-3.3863,-3.4216,-3.4216,-3.4216,-3.4233,-3.4293,-3.4351,-3.4929,-3.5752,-3.6001,-3.6143,-3.6261,-3.5867,-3.5963,-3.6116,-3.6297,-3.604,-3.6438,-3.7139,-3.7243,-3.6635,-3.7642,-3.7408,-3.7016,-3.7202,-3.7856,-3.7269,-3.6794,-3.637,-3.565,-3.5599,-3.5621,-3.5621,-3.5666,-3.5492,-3.513,-3.4881,-3.4505,-3.3527,-3.3144,-3.2637,-3.1445,-3.0858,-3.0858,-3.0859,-3.0801,-3.0195,-2.9352,-2.8531,-2.7308,-2.5757,-2.5628,-2.5578,-2.5559,-2.5495,-2.5489,-2.5466,-2.5453,-2.5426,-2.5412,-2.5419,-2.5391,-2.5308,-2.5154,-2.5043,-2.5018,-2.4981,-2.4955,-2.4929,-2.4929,-2.4908,-2.4842,-2.4799,-2.4756,-2.4704,-2.4572,-2.4449,-2.4364,-2.4294,-2.4247,-2.4218,-2.4161,-2.4074,-2.3976,-2.3876,-2.3742,-2.3606,-2.3294,-2.3176,-2.3022,-2.2846,-2.276,-2.2592,-2.2432,-2.2391,-2.2366,-2.2352,-2.2265,-2.218,-2.2077,-2.193,-2.1524,-2.1214,-2.1055,-2.0795,-2.0426,-2.0272,-2.022,-2.0168,-2.0133,-2.008,-2.0008,-1.9973,-3.1125,-3.2017,-3.2797,-3.3559,-3.4048,-3.3838,-3.3875,-3.416,-3.4216,-3.4587,-3.5211,-3.5484,-3.5637,-3.571,-3.5243,-3.5115,-3.5226,-3.5134,-3.5354,-3.5622,-3.599,-3.6104,-3.6375,-3.6762,-3.6469,-3.6115,-3.6385,-3.6661,-3.6577,-3.6238,-3.5841,-3.5552,-3.554,-3.5558,-3.5568,-3.5551,-3.5398,-3.4991,-3.4566,-3.3898,-3.3134,-3.2773,-3.2187,-3.1133,-3.0836,-3.0857,-3.0898,-3.082,-3.0078,-2.8941,-2.769,-2.6861,-2.5813,-2.5666,-2.5636,-2.5598,-2.5556,-2.5539,-2.5524,-2.5517,-2.5483,-2.5489,-2.5449,-2.546,-2.5434,-2.5293,-2.5248,-2.5222,-2.5165,-2.5126,-2.5126,-2.5126,-2.5068,-2.5006,-2.4968,-2.4929,-2.4806,-2.4651,-2.4564,-2.451,-2.44,-2.4257,-2.4238,-2.4191,-2.4134,-2.4132,-2.3996,-2.3966,-2.3795,-2.3649,-2.3535,-2.3365,-2.3188,-2.2985,-2.2829,-2.2619,-2.246,-2.2419,-2.2377,-2.2307,-2.2251,-2.2251,-2.2135,-2.1781,-2.1493,-2.1308,-2.1023,-2.0663,-2.0375,-2.0289,-2.0237,-2.0185,-2.015,-2.0148,-2.0113,-3.0493,-3.0697,-3.1496,-3.2593,-3.3696,-3.3299,-3.338,-3.3974,-3.4141,-3.4216,-3.4344,-3.454,-3.4649,-3.4811,-3.487,-3.487,-3.4879,-3.4879,-3.4982,-3.5287,-3.5825,-3.5725,-3.581,-3.6073,-3.5849,-3.5698,-3.5788,-3.6135,-3.6365,-3.5962,-3.5635,-3.5519,-3.55,-3.5488,-3.55,-3.5449,-3.5303,-3.4673,-3.4133,-3.3485,-3.2839,-3.2239,-3.1544,-3.1053,-3.0755,-3.0808,-3.0859,-3.0644,-2.9883,-2.8672,-2.7226,-2.6306,-2.5853,-2.5672,-2.5664,-2.5633,-2.5618,-2.5611,-2.5603,-2.5591,-2.5587,-2.558,-2.5543,-2.5511,-2.5515,-2.5478,-2.5433,-2.5395,-2.5345,-2.5288,-2.5288,-2.5264,-2.5192,-2.5135,-2.5121,-2.5097,-2.4936,-2.4785,-2.4712,-2.467,-2.4493,-2.4338,-2.4266,-2.422,-2.4201,-2.419,-2.4199,-2.4199,-2.4151,-2.4006,-2.3865,-2.3696,-2.3491,-2.3283,-2.3057,-2.2777,-2.2525,-2.247,-2.246,-2.2377,-2.2338,-2.2321,-2.2265,-2.2092,-2.1842,-2.1554,-2.1308,-2.1007,-2.0729,-2.046,-2.0426,-2.0409,-2.0252,-2.0235,-2.0252,-3.001,-3.066,-3.1459,-3.1998,-3.2332,-3.2741,-3.3083,-3.3336,-3.3918,-3.4216,-3.4153,-3.4227,-3.4409,-3.4658,-3.4676,-3.4699,-3.4743,-3.4711,-3.4801,-3.5031,-3.5249,-3.5261,-3.5343,-3.5545,-3.5507,-3.5475,-3.5446,-3.5608,-3.59,-3.5645,-3.5474,-3.5467,-3.5486,-3.5493,-3.5493,-3.532,-3.4872,-3.4186,-3.3352,-3.2636,-3.1737,-3.1347,-3.1397,-3.1023,-3.068,-3.0714,-3.0742,-3.0801,-3.021,-2.916,-2.7656,-2.6445,-2.5918,-2.5703,-2.5684,-2.5676,-2.5648,-2.5663,-2.5658,-2.5627,-2.5624,-2.5616,-2.5591,-2.5583,-2.5571,-2.5561,-2.5526,-2.5528,-2.5466,-2.5395,-2.5364,-2.5322,-2.5259,-2.5253,-2.5233,-2.5233,-2.5154,-2.5024,-2.4936,-2.4806,-2.4654,-2.4476,-2.433,-2.4284,-2.421,-2.4219,-2.4209,-2.4209,-2.4199,-2.419,-2.417,-2.3976,-2.3742,-2.3463,-2.3163,-2.285,-2.2615,-2.2579,-2.2511,-2.246,-2.2405,-2.2391,-2.2307,-2.2163,-2.1959,-2.1675,-2.1447,-2.1293,-2.1071,-2.0828,-2.0729,-2.0662,-2.046,-2.0392,-2.0477]},{"header":{"parameterUnit":"m.s-1","parameterCategory":1,"la1":31.0,"la2":29.5877,"lo1":-88.7671,"lo2":-86.6584,"dy":0.0162,"dx":0.0185,"nx":115,"ny":88,"refTime":"2023-02-23T06:00:00:Z","depth":0,"parameterNumber":3,"parameterNumberName":"V-component_of_WINDS"},"data":[0.0,0.0,0.0,0.0,0.0,0.0,0.0,0.0,0.0,0.0,0.0,0.0,0.0,0.0,0.0,0.0,0.0,0.0,0.0,0.0,0.0,0.0,0.0,0.0,0.0,0.0,0.0,0.0,0.0,0.0,0.0,0.0,0.0,0.0,0.0,0.0,0.0,0.0,0.0,0.0,0.0,0.0,0.0,0.0,0.0,0.0,0.0,0.0,0.0,0.0,0.0,0.0,0.0,0.0,0.0,0.0,0.0,0.0,0.0,0.0,0.0,0.0,0.0,0.0,0.0,0.0,0.0,0.0,0.0,0.0,0.0,0.0,0.0,0.0,0.0,0.0,0.0,0.0,0.0,0.0,0.0,0.0,0.0,0.0,0.0,0.0,0.0,0.0,0.0,0.0,0.0,0.0,0.0,0.0,0.0,0.0,0.0,0.0,0.0,0.0,0.0,0.0,0.0,0.0,0.0,0.0,0.0,0.0,0.0,0.0,0.0,0.0,0.0,0.0,0.0,0.0,0.0,0.0,0.0,0.0,0.0,0.0,0.0,0.0,0.0,0.0,0.0,0.0,0.0,0.0,0.0,0.0,0.0,0.0,0.0,0.0,0.0,0.0,0.0,0.0,0.0,0.0,0.0,0.0,0.0,0.0,0.0,0.0,0.0,0.0,0.0,0.0,0.0,0.0,0.0,0.0,0.0,0.0,0.0,0.0,0.0,0.0,0.0,0.0,0.0,0.0,0.0,0.0,0.0,0.0,0.0,0.0,0.0,0.0,0.0,0.0,0.0,0.0,0.0,0.0,0.0,0.0,0.0,0.0,0.0,0.0,0.0,0.0,0.0,0.0,0.0,0.0,0.0,0.0,0.0,0.0,0.0,0.0,0.0,0.0,0.0,0.0,0.0,0.0,0.0,0.0,0.0,0.0,0.0,0.0,0.0,0.0,0.0,0.0,0.0,0.0,0.0,0.0,0.0,0.0,0.0,0.0,0.0,0.0,0.0,0.0,0.0,0.0,0.0,0.0,0.0,0.0,0.0,0.0,0.0,0.0,0.0,0.0,0.0,0.0,0.0,0.0,0.0,0.0,0.0,0.0,0.0,0.0,0.0,0.0,0.0,0.0,0.0,0.0,0.0,0.0,0.0,0.0,0.0,0.0,0.0,0.0,0.0,0.0,0.0,0.0,0.0,0.0,0.0,0.0,0.0,0.0,0.0,0.0,0.0,0.0,0.0,0.0,0.0,0.0,0.0,0.0,0.0,0.0,0.0,0.0,0.0,0.0,0.0,0.0,0.0,0.0,0.0,0.0,0.0,0.0,0.0,0.0,0.0,0.0,0.0,0.0,0.0,0.0,0.0,0.0,0.0,0.0,0.0,0.0,0.0,0.0,0.0,0.0,0.0,0.0,0.0,0.0,0.0,0.0,0.0,0.0,0.0,0.0,0.0,0.0,0.0,0.0,0.0,0.0,0.0,0.0,0.0,0.0,0.0,0.0,0.0,0.0,0.0,0.0,0.0,0.0,0.0,0.0,0.0,0.0,0.0,0.0,0.0,0.0,0.0,0.0,0.0,0.0,0.0,0.0,0.0,0.0,0.0,0.0,0.0,0.0,0.0,0.0,0.0,0.0,0.0,0.0,0.0,0.0,0.0,0.0,0.0,0.0,0.0,0.0,0.0,0.0,0.0,0.0,0.0,0.0,0.0,0.0,0.0,0.0,0.0,0.0,0.0,0.0,0.0,0.0,0.0,0.0,0.0,0.0,0.0,0.0,0.0,0.0,0.0,0.0,0.0,0.0,0.0,0.0,0.0,0.0,0.0,0.0,0.0,0.0,0.0,0.0,0.0,0.0,0.0,0.0,0.0,0.0,0.0,0.0,0.0,0.0,0.0,0.0,0.0,0.0,0.0,0.0,0.0,0.0,0.0,0.0,0.0,0.0,0.0,0.0,0.0,0.0,0.0,0.0,0.0,0.0,0.0,0.0,0.0,0.0,0.0,0.0,0.0,0.0,0.0,0.0,0.0,0.0,0.0,0.0,0.0,0.0,0.0,0.0,0.0,0.0,0.0,0.0,0.0,0.0,0.0,0.0,0.0,0.0,0.0,0.0,0.0,0.0,0.0,0.0,0.0,0.0,0.0,0.0,0.0,0.0,0.0,0.0,0.0,0.0,0.0,0.0,0.0,0.0,0.0,0.0,0.0,0.0,0.0,0.0,0.0,0.0,0.0,0.0,0.0,0.0,0.0,0.0,0.0,0.0,0.0,0.0,0.0,0.0,0.0,0.0,0.0,0.0,0.0,0.0,0.0,0.0,0.0,0.0,0.0,0.0,0.0,0.0,0.0,0.0,0.0,0.0,0.0,0.0,0.0,0.0,0.0,0.0,0.0,0.0,0.0,0.0,0.0,0.0,0.0,0.0,0.0,0.0,0.0,0.0,0.0,0.0,0.0,0.0,0.0,0.0,0.0,0.0,0.0,0.0,0.0,0.0,0.0,0.0,0.0,0.0,0.0,0.0,0.0,0.0,0.0,0.0,0.0,0.0,0.0,0.0,0.0,0.0,0.0,0.0,0.0,0.0,0.0,0.0,0.0,0.0,0.0,0.0,0.0,0.0,0.0,0.0,0.0,0.0,0.0,0.0,0.0,0.0,0.0,0.0,0.0,0.0,0.0,0.0,0.0,0.0,0.0,0.0,0.0,0.0,0.0,0.0,0.0,0.0,0.0,0.0,0.0,0.0,0.0,0.0,0.0,0.0,0.0,0.0,0.0,0.0,0.0,0.0,0.0,0.0,0.0,0.0,0.0,0.0,0.0,0.0,0.0,0.0,0.0,0.0,0.0,0.0,0.0,0.0,0.0,0.0,0.0,0.0,0.0,0.0,0.0,0.0,0.0,0.0,0.0,0.0,0.0,0.0,0.0,0.0,0.0,0.0,0.0,0.0,0.0,0.0,0.0,0.0,0.0,0.0,0.0,0.0,0.0,0.0,0.0,0.0,0.0,0.0,0.0,0.0,0.0,0.0,0.0,0.0,0.0,0.0,0.0,0.0,0.0,0.0,0.0,0.0,0.0,0.0,0.0,0.0,0.0,0.0,0.0,0.0,0.0,0.0,0.0,0.0,0.0,0.0,0.0,0.0,0.0,0.0,0.0,0.0,0.0,0.0,0.0,0.0,0.0,0.0,0.0,0.0,0.0,0.0,0.0,0.0,0.0,0.0,0.0,0.0,0.0,0.0,0.0,0.0,0.0,0.0,0.0,0.0,0.0,0.0,0.0,0.0,0.0,0.0,0.0,0.0,0.0,0.0,0.0,0.0,0.0,0.0,0.0,0.0,0.0,0.0,0.0,0.0,0.0,0.0,0.0,0.0,0.0,0.0,0.0,0.0,0.0,0.0,0.0,0.0,0.0,0.0,0.0,0.0,0.0,0.0,0.0,0.0,0.0,0.0,0.0,0.0,0.0,0.0,0.0,0.0,0.0,0.0,0.0,0.0,0.0,0.0,0.0,0.0,0.0,0.0,0.0,0.0,0.0,0.0,0.0,0.0,0.0,0.0,0.0,0.0,0.0,0.0,0.0,0.0,0.0,0.0,0.0,0.0,0.0,0.0,0.0,0.0,0.0,0.0,0.0,0.0,0.0,0.0,0.0,0.0,0.0,0.0,0.0,0.0,0.0,0.0,0.0,0.0,0.0,0.0,0.0,0.0,0.0,0.0,0.0,0.0,0.0,0.0,0.0,0.0,0.0,0.0,0.0,0.0,0.0,0.0,0.0,0.0,0.0,0.0,0.0,0.0,0.0,0.0,0.0,0.0,0.0,0.0,0.0,0.0,0.0,0.0,0.0,0.0,0.0,0.0,0.0,0.0,0.0,0.0,0.0,0.0,0.0,0.0,0.0,0.0,0.0,0.0,0.0,0.0,0.0,0.0,0.0,0.0,0.0,0.0,0.0,0.0,0.0,0.0,0.0,0.0,0.0,0.0,0.0,0.0,0.0,0.0,0.0,0.0,0.0,0.0,0.0,0.0,0.0,0.0,0.0,0.0,0.0,0.0,0.0,0.0,0.0,0.0,0.0,0.0,0.0,0.0,0.0,0.0,0.0,0.0,0.0,0.0,0.0,0.0,0.0,0.0,0.0,0.0,0.0,0.0,0.0,0.0,0.0,0.0,0.0,0.0,0.0,0.0,0.0,0.0,0.0,0.0,0.0,0.0,0.0,0.0,0.0,0.0,0.0,0.0,0.0,0.0,0.0,0.0,0.0,0.0,0.0,0.0,0.0,0.0,0.0,0.0,-0.8414,0.0,0.0,0.0,0.0,0.0,0.0,0.0,0.0,0.0,0.0,0.0,0.0,0.0,0.0,0.0,0.0,0.0,0.0,0.0,0.0,0.0,0.0,0.0,0.0,0.0,0.0,0.0,0.0,0.0,0.0,0.0,0.0,0.0,0.0,0.0,0.0,0.0,0.0,0.0,0.0,0.0,0.0,0.0,0.0,0.0,0.0,0.0,0.0,0.0,0.0,0.0,0.0,0.0,0.0,0.0,0.0,0.0,0.0,0.0,0.0,0.0,0.0,0.0,0.0,0.0,0.0,0.0,0.0,0.0,0.0,0.0,0.0,0.0,0.0,0.0,0.0,0.0,0.0,0.0,0.0,0.0,0.0,0.0,0.0,0.0,0.0,0.0,0.0,0.0,0.0,0.0,0.0,0.0,0.0,0.0,0.0,0.0,0.0,0.0,0.0,0.0,0.0,0.0,0.0,0.0,0.0,0.0,0.0,0.0,0.0,-0.8777,-0.9185,-0.9049,-0.8751,-0.8373,0.0,0.0,0.0,0.0,0.0,0.0,0.0,0.0,0.0,0.0,0.0,0.0,0.0,0.0,0.0,0.0,0.0,0.0,0.0,0.0,0.0,0.0,0.0,0.0,0.0,0.0,0.0,0.0,0.0,0.0,0.0,0.0,0.0,0.0,0.0,0.0,0.0,0.0,0.0,0.0,0.0,0.0,0.0,0.0,0.0,0.0,0.0,0.0,0.0,0.0,0.0,0.0,0.0,0.0,0.0,0.0,0.0,0.0,0.0,0.0,0.0,0.0,0.0,0.0,0.0,0.0,0.0,0.0,0.0,0.0,0.0,0.0,0.0,0.0,0.0,0.0,0.0,0.0,0.0,0.0,0.0,0.0,0.0,0.0,0.0,0.0,0.0,0.0,0.0,0.0,0.0,0.0,0.0,0.0,0.0,0.0,0.0,0.0,0.0,0.0,0.0,0.0,0.0,0.0,0.0,0.0,0.0,0.0,0.0,0.0,0.0,0.0,-0.8957,-0.8729,-0.914,0.0,0.0,0.0,0.0,0.0,0.0,0.0,0.0,0.0,0.0,0.0,0.0,0.0,0.0,0.0,0.0,0.0,0.0,0.0,0.0,0.0,0.0,0.0,0.0,0.0,0.0,0.0,0.0,0.0,0.0,0.0,0.0,0.0,0.0,0.0,0.0,0.0,0.0,0.0,0.0,0.0,0.0,0.0,0.0,0.0,0.0,0.0,0.0,0.0,0.0,0.0,0.0,0.0,0.0,0.0,0.0,0.0,0.0,0.0,0.0,0.0,0.0,0.0,0.0,0.0,0.0,0.0,0.0,0.0,0.0,0.0,0.0,0.0,0.0,0.0,0.0,0.0,0.0,0.0,0.0,0.0,0.0,0.0,0.0,0.0,0.0,0.0,0.0,0.0,0.0,0.0,0.0,0.0,0.0,0.0,0.0,0.0,0.0,0.0,0.0,0.0,0.0,0.0,0.0,0.0,0.0,0.0,0.0,0.0,0.0,-0.8768,-0.9672,-0.9441,0.0,-1.1531,0.0,0.0,0.0,0.0,0.0,0.0,0.0,0.0,0.0,0.0,0.0,0.0,0.0,0.0,0.0,0.0,0.0,0.0,0.0,0.0,0.0,0.0,0.0,0.0,0.0,0.0,0.0,0.0,0.0,0.0,0.0,0.0,0.0,0.0,0.0,0.0,0.0,0.0,0.0,0.0,0.0,0.0,0.0,0.0,0.0,0.0,0.0,0.0,0.0,0.0,0.0,0.0,0.0,0.0,0.0,0.0,0.0,0.0,0.0,0.0,0.0,0.0,0.0,0.0,0.0,0.0,0.0,0.0,0.0,0.0,0.0,0.0,0.0,0.0,0.0,0.0,0.0,0.0,0.0,0.0,0.0,0.0,0.0,0.0,0.0,0.0,0.0,0.0,0.0,0.0,0.0,0.0,0.0,0.0,0.0,0.0,0.0,0.0,0.0,0.0,0.0,0.0,0.0,0.0,0.0,0.0,0.0,0.0,0.0,0.0,-0.9766,-1.0223,-1.0131,-1.0616,0.0,0.0,0.0,0.0,0.0,0.0,0.0,0.0,0.0,0.0,0.0,0.0,0.0,0.0,0.0,0.0,0.0,0.0,0.0,0.0,0.0,0.0,0.0,0.0,0.0,0.0,0.0,0.0,0.0,0.0,0.0,0.0,0.0,0.0,0.0,0.0,0.0,0.0,0.0,0.0,0.0,0.0,0.0,0.0,0.0,0.0,0.0,0.0,0.0,0.0,0.0,0.0,0.0,0.0,0.0,0.0,0.0,0.0,0.0,0.0,0.0,0.0,0.0,0.0,0.0,0.0,0.0,0.0,0.0,0.0,0.0,0.0,0.0,0.0,0.0,0.0,0.0,0.0,0.0,0.0,0.0,0.0,0.0,0.0,0.0,0.0,0.0,0.0,0.0,0.0,0.0,0.0,0.0,0.0,0.0,0.0,0.0,0.0,0.0,0.0,0.0,0.0,0.0,0.0,0.0,0.0,0.0,0.0,0.0,0.0,-1.0552,-1.0568,-1.0839,-1.0834,-1.1111,-1.1707,0.0,0.0,0.0,0.0,0.0,0.0,0.0,0.0,0.0,0.0,0.0,0.0,0.0,0.0,0.0,0.0,0.0,0.0,0.0,0.0,0.0,0.0,0.0,0.0,0.0,0.0,0.0,0.0,0.0,0.0,0.0,0.0,0.0,0.0,0.0,0.0,0.0,0.0,0.0,0.0,0.0,0.0,0.0,0.0,0.0,0.0,0.0,0.0,0.0,0.0,0.0,0.0,0.0,0.0,0.0,0.0,0.0,0.0,0.0,0.0,0.0,0.0,0.0,0.0,0.0,0.0,0.0,0.0,0.0,0.0,0.0,0.0,0.0,0.0,0.0,0.0,0.0,0.0,0.0,0.0,0.0,0.0,0.0,0.0,0.0,0.0,0.0,0.0,0.0,0.0,0.0,0.0,0.0,0.0,0.0,0.0,0.0,0.0,0.0,0.0,0.0,0.0,0.0,0.0,0.0,0.0,0.0,0.0,-1.2105,-1.1155,-1.0851,-1.1444,-1.1444,-1.1739,0.0,0.0,0.0,0.0,0.0,0.0,0.0,0.0,0.0,0.0,0.0,0.0,0.0,0.0,0.0,0.0,0.0,0.0,0.0,0.0,0.0,0.0,0.0,0.0,0.0,0.0,0.0,0.0,0.0,0.0,0.0,0.0,0.0,0.0,0.0,0.0,0.0,0.0,0.0,0.0,0.0,0.0,0.0,0.0,0.0,0.0,0.0,0.0,0.0,0.0,0.0,0.0,0.0,0.0,0.0,0.0,0.0,0.0,0.0,0.0,0.0,0.0,0.0,0.0,0.0,0.0,0.0,0.0,0.0,0.0,0.0,0.0,0.0,0.0,0.0,0.0,0.0,0.0,0.0,0.0,0.0,0.0,0.0,0.0,0.0,0.0,0.0,0.0,0.0,0.0,0.0,0.0,0.0,0.0,0.0,0.0,0.0,0.0,0.0,0.0,0.0,0.0,0.0,0.0,0.0,0.0,0.0,0.0,0.0,-1.2017,-1.1646,-1.1539,-1.1745,-1.1775,-1.1918,0.0,0.0,0.0,0.0,0.0,0.0,0.0,0.0,0.0,0.0,0.0,0.0,0.0,0.0,0.0,0.0,0.0,0.0,0.0,0.0,0.0,0.0,0.0,0.0,0.0,0.0,0.0,0.0,0.0,0.0,0.0,0.0,0.0,0.0,0.0,0.0,0.0,0.0,0.0,0.0,0.0,0.0,0.0,0.0,0.0,0.0,0.0,0.0,0.0,0.0,0.0,0.0,0.0,0.0,0.0,0.0,0.0,0.0,0.0,0.0,0.0,0.0,0.0,0.0,0.0,0.0,0.0,0.0,0.0,0.0,0.0,0.0,0.0,0.0,0.0,0.0,0.0,0.0,0.0,0.0,0.0,0.0,0.0,0.0,0.0,0.0,0.0,0.0,0.0,0.0,0.0,0.0,0.0,0.0,0.0,0.0,0.0,0.0,0.0,0.0,0.0,0.0,0.0,0.0,0.0,0.0,0.0,0.0,0.0,-1.206,0.0,-1.21,-1.1913,-1.1906,-1.1906,0.0,0.0,0.0,0.0,0.0,0.0,0.0,0.0,0.0,0.0,0.0,0.0,0.0,0.0,0.0,0.0,0.0,0.0,0.0,0.0,0.0,0.0,0.0,0.0,0.0,0.0,0.0,0.0,0.0,0.0,0.0,0.0,0.0,0.0,0.0,0.0,0.0,0.0,0.0,0.0,0.0,0.0,0.0,0.0,0.0,0.0,0.0,0.0,0.0,0.0,0.0,0.0,0.0,0.0,0.0,0.0,0.0,0.0,0.0,0.0,0.0,0.0,0.0,0.0,0.0,0.0,0.0,0.0,0.0,0.0,0.0,0.0,0.0,0.0,0.0,0.0,0.0,0.0,0.0,0.0,0.0,0.0,0.0,0.0,0.0,0.0,0.0,0.0,0.0,0.0,0.0,0.0,0.0,0.0,0.0,0.0,0.0,0.0,0.0,0.0,0.0,0.0,0.0,0.0,0.0,0.0,0.0,0.0,-1.2004,-1.2271,-1.2576,-1.2435,-1.1926,-1.1873,-1.1618,0.0,0.0,0.0,0.0,0.0,0.0,0.0,0.0,0.0,0.0,0.0,0.0,0.0,0.0,0.0,0.0,0.0,0.0,0.0,0.0,0.0,0.0,0.0,0.0,0.0,0.0,0.0,0.0,0.0,0.0,0.0,0.0,0.0,0.0,0.0,0.0,0.0,0.0,0.0,0.0,0.0,0.0,0.0,0.0,0.0,0.0,0.0,0.0,0.0,0.0,0.0,0.0,0.0,0.0,0.0,0.0,0.0,0.0,0.0,0.0,0.0,0.0,0.0,0.0,0.0,0.0,0.0,0.0,0.0,0.0,0.0,0.0,0.0,0.0,0.0,0.0,0.0,0.0,0.0,0.0,0.0,0.0,0.0,0.0,0.0,0.0,0.0,0.0,0.0,0.0,0.0,0.0,0.0,0.0,0.0,0.0,0.0,0.0,0.0,0.0,0.0,0.0,0.0,0.0,0.0,0.0,0.0,0.0,0.0,-1.141,-1.1683,-1.185,-1.1886,-1.1316,-1.129,0.0,0.0,0.0,0.0,0.0,0.0,0.0,0.0,0.0,0.0,0.0,0.0,0.0,0.0,0.0,0.0,0.0,0.0,0.0,0.0,0.0,0.0,0.0,0.0,0.0,0.0,0.0,0.0,0.0,0.0,0.0,0.0,0.0,0.0,0.0,0.0,0.0,0.0,0.0,0.0,0.0,0.0,0.0,0.0,0.0,0.0,0.0,0.0,0.0,0.0,0.0,0.0,0.0,0.0,0.0,0.0,0.0,0.0,0.0,0.0,0.0,0.0,0.0,0.0,0.0,0.0,0.0,0.0,0.0,0.0,0.0,0.0,0.0,0.0,0.0,0.0,0.0,0.0,0.0,0.0,0.0,0.0,0.0,0.0,0.0,0.0,0.0,0.0,0.0,0.0,0.0,0.0,0.0,0.0,0.0,0.0,0.0,0.0,0.0,0.0,0.0,0.0,0.0,0.0,0.0,0.0,0.0,0.0,0.0,-1.151,-1.1764,-1.1897,-1.1906,-1.137,-1.127,-1.163,0.0,0.0,0.0,0.0,0.0,0.0,0.0,0.0,0.0,0.0,0.0,0.0,0.0,0.0,0.0,0.0,0.0,0.0,0.0,0.0,0.0,0.0,0.0,0.0,0.0,0.0,0.0,0.0,0.0,0.0,0.0,0.0,0.0,0.0,0.0,0.0,0.0,0.0,0.0,0.0,0.0,0.0,0.0,0.0,0.0,0.0,0.0,0.0,0.0,0.0,0.0,0.0,0.0,0.0,0.0,0.0,0.0,0.0,0.0,0.0,0.0,0.0,0.0,0.0,0.0,0.0,0.0,0.0,0.0,0.0,0.0,0.0,0.0,0.0,0.0,0.0,0.0,0.0,0.0,0.0,0.0,0.0,0.0,0.0,0.0,0.0,0.0,0.0,0.0,0.0,0.0,0.0,0.0,0.0,0.0,0.0,0.0,0.0,0.0,0.0,0.0,0.0,0.0,0.0,0.0,0.0,0.0,0.0,-1.2325,-1.2703,-1.2603,-1.204,-1.194,-1.1511,0.0,0.0,0.0,0.0,0.0,0.0,0.0,0.0,0.0,0.0,0.0,0.0,0.0,0.0,0.0,0.0,0.0,0.0,0.0,0.0,0.0,0.0,0.0,0.0,0.0,0.0,0.0,0.0,0.0,0.0,0.0,0.0,0.0,0.0,0.0,0.0,0.0,0.0,0.0,0.0,0.0,0.0,0.0,0.0,0.0,0.0,0.0,0.0,0.0,0.0,0.0,0.0,0.0,0.0,0.0,0.0,0.0,0.0,0.0,0.0,0.0,0.0,0.0,0.0,0.0,0.0,0.0,0.0,0.0,0.0,0.0,0.0,0.0,0.0,0.0,0.0,0.0,0.0,0.0,0.0,0.0,0.0,0.0,0.0,0.0,0.0,0.0,0.0,0.0,0.0,0.0,0.0,0.0,0.0,0.0,0.0,0.0,0.0,0.0,0.0,0.0,0.0,0.0,0.0,0.0,0.0,0.0,0.0,0.0,-1.2697,-1.3561,-1.3774,-1.3147,-1.2331,-1.1799,0.0,0.0,0.0,0.0,0.0,0.0,0.0,0.0,0.0,0.0,0.0,0.0,0.0,0.0,0.0,0.0,0.0,0.0,0.0,0.0,0.0,0.0,0.0,0.0,0.0,0.0,0.0,0.0,0.0,0.0,0.0,0.0,0.0,0.0,0.0,0.0,0.0,0.0,0.0,0.0,0.0,0.0,0.0,0.0,0.0,0.0,0.0,0.0,0.0,0.0,0.0,0.0,0.0,0.0,0.0,0.0,0.0,0.0,0.0,0.0,0.0,0.0,0.0,0.0,0.0,0.0,0.0,0.0,0.0,0.0,0.0,0.0,0.0,0.0,0.0,0.0,0.0,0.0,0.0,0.0,0.0,0.0,0.0,0.0,0.0,0.0,0.0,0.0,0.0,0.0,0.0,0.0,0.0,0.0,0.0,0.0,0.0,0.0,0.0,0.0,0.0,0.0,0.0,0.0,0.0,0.0,0.0,0.0,-1.2953,-1.3534,-1.4409,-1.473,-1.4339,-1.3233,-1.2311,0.0,0.0,0.0,0.0,0.0,0.0,0.0,0.0,0.0,0.0,0.0,0.0,0.0,0.0,0.0,0.0,0.0,0.0,0.0,0.0,0.0,0.0,0.0,0.0,0.0,0.0,0.0,0.0,0.0,0.0,0.0,0.0,0.0,0.0,0.0,0.0,0.0,0.0,0.0,0.0,0.0,0.0,0.0,0.0,0.0,0.0,0.0,0.0,0.0,0.0,0.0,0.0,0.0,0.0,0.0,0.0,0.0,0.0,0.0,0.0,0.0,0.0,0.0,0.0,0.0,0.0,0.0,0.0,0.0,0.0,0.0,0.0,0.0,0.0,0.0,0.0,0.0,0.0,0.0,0.0,0.0,0.0,0.0,0.0,0.0,0.0,0.0,0.0,0.0,0.0,0.0,0.0,0.0,0.0,0.0,0.0,0.0,0.0,0.0,0.0,0.0,0.0,0.0,0.0,0.0,0.0,0.0,0.0,-1.3621,-1.4412,-1.5084,-1.5398,-1.5364,-1.4186,-1.2894,0.0,0.0,0.0,0.0,0.0,0.0,0.0,0.0,0.0,0.0,0.0,0.0,0.0,0.0,0.0,0.0,0.0,0.0,0.0,0.0,0.0,0.0,0.0,0.0,0.0,0.0,0.0,0.0,0.0,0.0,0.0,0.0,0.0,0.0,0.0,0.0,0.0,0.0,0.0,0.0,0.0,0.0,0.0,0.0,0.0,0.0,0.0,0.0,0.0,0.0,0.0,0.0,0.0,0.0,0.0,0.0,0.0,0.0,0.0,0.0,0.0,0.0,0.0,0.0,0.0,0.0,0.0,0.0,0.0,0.0,0.0,0.0,0.0,0.0,0.0,0.0,0.0,0.0,0.0,0.0,0.0,0.0,0.0,0.0,0.0,0.0,0.0,0.0,0.0,0.0,0.0,0.0,0.0,0.0,0.0,0.0,0.0,0.0,0.0,0.0,0.0,0.0,0.0,0.0,0.0,0.0,0.0,0.0,-1.3527,-1.4168,-1.4977,-1.5398,-1.5391,-1.4035,-1.2819,0.0,0.0,0.0,0.0,0.0,0.0,0.0,0.0,0.0,0.0,0.0,0.0,0.0,0.0,0.0,0.0,0.0,0.0,0.0,0.0,0.0,0.0,0.0,0.0,0.0,0.0,0.0,0.0,0.0,0.0,0.0,0.0,0.0,0.0,0.0,0.0,0.0,0.0,0.0,0.0,0.0,0.0,0.0,0.0,0.0,0.0,0.0,0.0,-1.7265,0.0,0.0,0.0,0.0,0.0,0.0,0.0,0.0,0.0,0.0,0.0,0.0,0.0,0.0,0.0,0.0,0.0,0.0,0.0,0.0,0.0,0.0,0.0,0.0,0.0,0.0,0.0,0.0,0.0,0.0,0.0,0.0,0.0,0.0,0.0,0.0,0.0,0.0,0.0,0.0,0.0,0.0,0.0,0.0,0.0,0.0,0.0,0.0,0.0,0.0,0.0,0.0,0.0,0.0,0.0,0.0,0.0,0.0,0.0,-1.3414,-1.4275,-1.4877,-1.5236,-1.5144,-1.3761,-1.2705,0.0,0.0,0.0,0.0,0.0,0.0,0.0,0.0,0.0,0.0,0.0,0.0,0.0,0.0,0.0,0.0,0.0,0.0,0.0,0.0,0.0,0.0,0.0,0.0,0.0,0.0,0.0,0.0,0.0,0.0,0.0,0.0,0.0,0.0,0.0,0.0,0.0,0.0,0.0,0.0,0.0,0.0,0.0,0.0,0.0,0.0,0.0,0.0,0.0,0.0,0.0,0.0,0.0,0.0,0.0,0.0,0.0,0.0,0.0,0.0,0.0,0.0,0.0,0.0,0.0,0.0,0.0,0.0,0.0,0.0,0.0,0.0,0.0,0.0,0.0,0.0,0.0,0.0,0.0,0.0,0.0,0.0,0.0,0.0,0.0,0.0,0.0,0.0,0.0,0.0,0.0,0.0,0.0,0.0,0.0,0.0,0.0,0.0,0.0,0.0,0.0,0.0,0.0,0.0,0.0,0.0,0.0,-1.2529,-1.3367,-1.4469,-1.477,-1.4921,-1.4854,-1.3588,-1.2733,-1.2378,0.0,0.0,0.0,0.0,0.0,0.0,0.0,0.0,0.0,0.0,0.0,0.0,0.0,0.0,0.0,0.0,0.0,0.0,0.0,0.0,0.0,0.0,0.0,0.0,0.0,0.0,0.0,0.0,0.0,0.0,0.0,0.0,0.0,0.0,0.0,0.0,0.0,0.0,-1.6987,-1.7317,0.0,0.0,0.0,0.0,0.0,0.0,0.0,0.0,-1.7027,0.0,0.0,0.0,0.0,0.0,0.0,0.0,0.0,0.0,0.0,0.0,0.0,0.0,0.0,0.0,0.0,0.0,0.0,0.0,0.0,0.0,0.0,0.0,0.0,0.0,0.0,0.0,0.0,0.0,0.0,0.0,0.0,0.0,0.0,0.0,0.0,0.0,0.0,0.0,0.0,0.0,0.0,0.0,0.0,0.0,0.0,0.0,0.0,0.0,0.0,0.0,0.0,0.0,0.0,0.0,0.0,-1.2623,-1.2737,-1.3367,-1.4476,-1.4569,-1.4476,-1.4215,-1.3564,-1.307,-1.2806,0.0,0.0,0.0,0.0,0.0,0.0,0.0,0.0,0.0,0.0,0.0,0.0,0.0,0.0,0.0,0.0,0.0,0.0,0.0,0.0,0.0,0.0,0.0,0.0,0.0,0.0,0.0,0.0,0.0,0.0,0.0,0.0,0.0,0.0,0.0,0.0,0.0,0.0,0.0,-1.7079,-1.7265,0.0,0.0,0.0,0.0,0.0,0.0,0.0,0.0,-1.7482,0.0,0.0,0.0,0.0,0.0,0.0,0.0,0.0,0.0,0.0,0.0,0.0,0.0,0.0,0.0,0.0,0.0,0.0,0.0,0.0,0.0,0.0,0.0,0.0,0.0,0.0,0.0,0.0,0.0,0.0,0.0,0.0,0.0,0.0,0.0,0.0,0.0,0.0,0.0,0.0,0.0,0.0,0.0,0.0,0.0,0.0,0.0,0.0,0.0,0.0,0.0,0.0,0.0,0.0,0.0,-1.2438,-1.2556,-1.3132,-1.4242,-1.4148,-1.4001,-1.3841,-1.3381,-1.3077,0.0,0.0,0.0,0.0,0.0,0.0,0.0,0.0,0.0,0.0,0.0,0.0,0.0,0.0,0.0,0.0,0.0,0.0,0.0,0.0,0.0,0.0,0.0,0.0,0.0,0.0,0.0,0.0,0.0,0.0,0.0,0.0,0.0,0.0,0.0,0.0,0.0,0.0,0.0,0.0,-1.6987,-1.7017,-1.7036,0.0,0.0,0.0,0.0,0.0,0.0,-1.6943,-1.7234,0.0,0.0,0.0,0.0,0.0,0.0,0.0,0.0,0.0,0.0,0.0,0.0,0.0,0.0,0.0,0.0,0.0,0.0,0.0,0.0,0.0,0.0,0.0,0.0,0.0,0.0,0.0,0.0,0.0,0.0,0.0,0.0,0.0,0.0,0.0,0.0,0.0,0.0,0.0,0.0,0.0,0.0,0.0,0.0,0.0,0.0,0.0,0.0,0.0,0.0,0.0,0.0,0.0,0.0,0.0,-1.2171,-1.2211,-1.2766,-1.3841,-1.3681,-1.3534,-1.3513,-1.317,-1.3033,0.0,0.0,0.0,0.0,0.0,0.0,0.0,0.0,0.0,0.0,0.0,0.0,0.0,0.0,0.0,0.0,0.0,0.0,0.0,0.0,0.0,0.0,0.0,0.0,0.0,0.0,0.0,0.0,0.0,0.0,0.0,0.0,0.0,0.0,0.0,0.0,0.0,0.0,0.0,0.0,0.0,-1.6986,-1.6581,-1.6779,0.0,0.0,0.0,0.0,-1.6405,-1.6984,0.0,0.0,0.0,0.0,0.0,0.0,0.0,0.0,0.0,0.0,0.0,0.0,0.0,0.0,0.0,0.0,0.0,0.0,0.0,0.0,0.0,0.0,0.0,0.0,0.0,0.0,0.0,0.0,0.0,0.0,0.0,0.0,0.0,0.0,0.0,0.0,0.0,0.0,0.0,0.0,0.0,0.0,0.0,0.0,0.0,0.0,0.0,0.0,0.0,0.0,0.0,0.0,0.0,0.0,0.0,0.0,-1.1913,-1.1953,-1.2371,-1.326,-1.328,-1.3272,-1.332,-1.3234,-1.3265,0.0,0.0,0.0,0.0,0.0,0.0,0.0,0.0,0.0,0.0,0.0,0.0,0.0,0.0,0.0,0.0,0.0,0.0,0.0,0.0,0.0,0.0,0.0,0.0,0.0,0.0,0.0,0.0,0.0,0.0,0.0,0.0,0.0,0.0,0.0,0.0,0.0,0.0,0.0,0.0,0.0,-1.7451,-1.6996,-1.6946,-1.6862,0.0,0.0,-1.7265,-1.6508,-1.7781,0.0,0.0,0.0,0.0,0.0,0.0,0.0,0.0,0.0,0.0,0.0,0.0,0.0,0.0,0.0,0.0,0.0,0.0,0.0,0.0,0.0,0.0,0.0,0.0,0.0,0.0,0.0,0.0,0.0,0.0,0.0,0.0,0.0,0.0,0.0,0.0,0.0,0.0,0.0,0.0,0.0,0.0,0.0,0.0,0.0,0.0,0.0,0.0,0.0,0.0,0.0,0.0,0.0,0.0,0.0,-1.0941,-1.1597,-1.1784,-1.2261,-1.2945,-1.3161,-1.3163,-1.2956,-1.3152,-1.3262,0.0,0.0,0.0,0.0,0.0,0.0,0.0,0.0,0.0,0.0,0.0,0.0,0.0,0.0,0.0,0.0,0.0,0.0,0.0,0.0,0.0,0.0,0.0,0.0,0.0,0.0,0.0,0.0,0.0,0.0,0.0,0.0,0.0,0.0,0.0,0.0,0.0,0.0,0.0,0.0,0.0,0.0,-1.7128,-1.7234,0.0,0.0,0.0,-1.7182,-1.6789,0.0,0.0,0.0,0.0,0.0,0.0,0.0,0.0,0.0,0.0,0.0,0.0,0.0,0.0,0.0,0.0,0.0,0.0,0.0,0.0,0.0,0.0,0.0,0.0,0.0,0.0,0.0,0.0,0.0,0.0,0.0,0.0,0.0,0.0,0.0,0.0,0.0,0.0,0.0,0.0,0.0,0.0,0.0,0.0,0.0,0.0,0.0,0.0,0.0,0.0,0.0,0.0,0.0,0.0,0.0,0.0,0.0,-1.1309,-1.1702,-1.2182,-1.2681,-1.3093,-1.3164,-1.2867,-1.3042,0.0,0.0,0.0,0.0,0.0,0.0,0.0,0.0,0.0,0.0,0.0,0.0,0.0,0.0,0.0,0.0,0.0,0.0,0.0,0.0,0.0,0.0,0.0,0.0,0.0,0.0,0.0,-1.8456,0.0,0.0,0.0,0.0,0.0,0.0,0.0,0.0,0.0,0.0,0.0,0.0,0.0,0.0,-1.8551,-1.7387,-1.7631,-1.761,0.0,0.0,-1.7427,-1.7281,-1.7927,-1.8457,0.0,0.0,0.0,0.0,0.0,0.0,0.0,0.0,0.0,0.0,0.0,0.0,0.0,0.0,0.0,0.0,0.0,0.0,0.0,0.0,0.0,0.0,0.0,0.0,0.0,0.0,0.0,0.0,0.0,0.0,0.0,0.0,0.0,0.0,0.0,0.0,0.0,0.0,0.0,0.0,0.0,0.0,0.0,0.0,0.0,0.0,0.0,0.0,0.0,0.0,0.0,0.0,0.0,0.0,0.0,-1.1048,-1.1661,-1.2137,-1.2456,-1.307,-1.3371,-1.325,-1.2928,-1.2789,0.0,0.0,0.0,0.0,0.0,0.0,0.0,0.0,0.0,0.0,0.0,0.0,0.0,0.0,0.0,0.0,0.0,0.0,0.0,0.0,0.0,0.0,0.0,0.0,0.0,0.0,0.0,0.0,0.0,0.0,0.0,0.0,0.0,0.0,0.0,0.0,0.0,0.0,0.0,0.0,0.0,-1.9464,-1.8031,-1.823,-1.8197,0.0,0.0,-1.8521,-1.8082,-1.8346,-1.8584,-1.8585,0.0,0.0,0.0,0.0,0.0,0.0,0.0,0.0,0.0,0.0,0.0,0.0,0.0,0.0,0.0,0.0,0.0,0.0,0.0,0.0,0.0,0.0,0.0,0.0,0.0,0.0,0.0,0.0,0.0,0.0,0.0,0.0,0.0,0.0,0.0,0.0,0.0,0.0,0.0,0.0,0.0,0.0,0.0,0.0,0.0,0.0,0.0,0.0,0.0,0.0,0.0,0.0,0.0,-1.17,-1.1552,-1.2261,-1.2657,-1.2779,-1.3372,-1.3468,-1.2932,-1.302,-1.2905,0.0,0.0,0.0,0.0,0.0,0.0,0.0,0.0,0.0,0.0,0.0,0.0,0.0,0.0,0.0,0.0,0.0,0.0,0.0,0.0,0.0,0.0,0.0,0.0,0.0,0.0,0.0,0.0,-1.8863,-1.9253,-1.9474,0.0,0.0,0.0,0.0,0.0,0.0,0.0,0.0,0.0,0.0,-1.9902,-1.8633,-1.8609,0.0,0.0,-1.8334,-1.8622,-1.8103,-1.8445,-1.8622,-1.8282,-1.8374,0.0,0.0,0.0,0.0,0.0,0.0,0.0,0.0,0.0,0.0,0.0,0.0,0.0,0.0,0.0,0.0,0.0,0.0,0.0,0.0,0.0,0.0,0.0,0.0,0.0,0.0,0.0,0.0,0.0,0.0,0.0,0.0,0.0,0.0,0.0,0.0,0.0,0.0,0.0,0.0,0.0,0.0,0.0,0.0,0.0,0.0,0.0,0.0,0.0,0.0,0.0,0.0,-1.2036,-1.2065,-1.2658,-1.3032,-1.3137,-1.3622,-1.3575,-1.2934,-1.3031,-1.2834,0.0,0.0,0.0,0.0,0.0,0.0,0.0,0.0,0.0,0.0,0.0,0.0,0.0,0.0,0.0,0.0,0.0,0.0,0.0,0.0,0.0,0.0,0.0,0.0,0.0,0.0,0.0,0.0,-1.9218,-1.9798,-1.9798,0.0,0.0,0.0,0.0,0.0,0.0,0.0,0.0,0.0,0.0,-2.0034,-1.8778,-1.889,-1.8911,-1.825,-1.8763,-1.9025,-1.8504,-1.8623,-1.8576,-1.8043,0.0,0.0,0.0,0.0,0.0,0.0,0.0,0.0,0.0,0.0,0.0,0.0,0.0,0.0,0.0,0.0,0.0,0.0,0.0,0.0,0.0,0.0,0.0,0.0,0.0,0.0,0.0,0.0,0.0,0.0,-1.1463,0.0,0.0,0.0,0.0,0.0,0.0,0.0,0.0,0.0,0.0,0.0,0.0,0.0,0.0,0.0,0.0,0.0,0.0,0.0,0.0,0.0,0.0,-1.2368,-1.2503,-1.2797,-1.3109,-1.348,-1.3754,-1.3707,-1.3296,-1.2928,-1.2514,-1.2101,0.0,0.0,0.0,0.0,0.0,0.0,0.0,0.0,0.0,0.0,0.0,0.0,0.0,0.0,0.0,0.0,0.0,0.0,0.0,0.0,0.0,0.0,0.0,0.0,0.0,0.0,-1.8971,-1.9472,-1.9798,0.0,0.0,0.0,0.0,0.0,0.0,0.0,0.0,0.0,0.0,-2.0559,-1.9901,-1.8368,-1.911,-1.9443,-1.8441,-1.9345,-1.9965,-1.9366,-1.8918,-1.8439,0.0,0.0,0.0,0.0,0.0,0.0,0.0,0.0,0.0,0.0,0.0,0.0,0.0,0.0,0.0,0.0,0.0,0.0,0.0,0.0,0.0,0.0,0.0,0.0,0.0,0.0,0.0,-1.0031,-1.0522,0.0,0.0,0.0,0.0,0.0,0.0,0.0,0.0,0.0,0.0,0.0,-1.0261,-1.0167,0.0,0.0,0.0,0.0,0.0,0.0,0.0,0.0,0.0,0.0,0.0,0.0,-1.2849,-1.3404,-1.3507,-1.3756,-1.4142,-1.4006,-1.369,-1.3305,-1.2626,-1.211,-1.1724,0.0,0.0,0.0,0.0,0.0,0.0,0.0,0.0,0.0,0.0,0.0,0.0,0.0,0.0,0.0,0.0,0.0,0.0,0.0,0.0,0.0,0.0,0.0,0.0,0.0,-1.9157,0.0,0.0,0.0,0.0,0.0,0.0,0.0,0.0,0.0,0.0,0.0,-2.0968,-2.0188,-1.9767,-1.9178,-1.8277,-1.8598,-1.8759,0.0,0.0,0.0,0.0,0.0,0.0,0.0,0.0,0.0,0.0,0.0,0.0,0.0,0.0,-2.0844,-2.044,-2.0218,-2.0229,-2.0646,0.0,0.0,0.0,0.0,0.0,0.0,0.0,0.0,0.0,0.0,0.0,0.0,0.0,0.0,0.0,0.0,-0.966,0.0,0.0,0.0,0.0,0.0,0.0,0.0,0.0,-1.0137,-1.0174,-1.0267,-1.0167,-1.012,0.0,-0.982,-0.978,0.0,0.0,0.0,0.0,0.0,0.0,0.0,0.0,-1.3132,-1.3618,-1.3797,-1.4084,-1.4478,-1.4102,-1.3791,-1.3497,-1.2735,-1.203,-1.1522,-1.2011,-1.2308,0.0,0.0,0.0,0.0,0.0,0.0,0.0,0.0,0.0,0.0,0.0,0.0,0.0,0.0,0.0,0.0,0.0,0.0,0.0,0.0,0.0,0.0,0.0,-1.9208,0.0,0.0,0.0,0.0,0.0,0.0,0.0,0.0,0.0,-2.0256,-2.0165,-1.9886,-1.9321,-1.8969,-1.8578,-1.799,0.0,0.0,0.0,0.0,0.0,0.0,0.0,-1.8161,-1.8237,-1.8161,-1.8349,-1.9071,-1.9538,-1.9878,-2.0061,0.0,0.0,-2.0126,-2.0111,-2.027,-2.087,-2.0975,-2.0975,-2.0988,-2.0662,-2.0514,0.0,0.0,0.0,0.0,0.0,0.0,0.0,0.0,-0.7022,-0.754,0.0,-0.8382,0.0,0.0,0.0,0.0,0.0,0.0,0.0,0.0,-1.0241,-1.0274,-1.0539,-1.0247,-1.012,-1.01,-0.982,-0.9715,-0.9751,-1.0351,0.0,0.0,0.0,0.0,0.0,0.0,-1.3174,-1.3145,-1.3606,-1.4055,-1.4488,-1.4084,-1.3827,-1.3754,-1.3056,-1.2294,-1.1577,-1.2011,-1.2308,-1.2308,-1.2554,0.0,0.0,0.0,0.0,0.0,0.0,0.0,0.0,0.0,0.0,0.0,0.0,0.0,0.0,0.0,0.0,0.0,0.0,0.0,0.0,-1.9008,0.0,0.0,0.0,0.0,0.0,0.0,0.0,0.0,0.0,0.0,-1.9091,-1.9018,-1.877,-1.8329,0.0,0.0,0.0,0.0,-1.8619,-1.8562,-1.9227,-1.9697,-1.9723,-1.9253,-1.8911,-1.8937,0.0,0.0,-1.9643,-1.9865,-2.0113,-2.0646,-2.036,-2.0061,-2.0633,-2.0713,-2.0883,-2.1368,-2.1498,-2.1524,-2.1538,-2.1536,-2.1558,-0.4964,0.0,0.0,0.0,0.0,-0.5583,-0.5712,-0.5939,-0.6305,-0.6748,-0.7152,-0.7446,0.0,0.0,0.0,0.0,0.0,0.0,-0.996,-1.0234,-1.0117,-1.0167,-1.0247,-1.016,-1.012,-1.0077,-0.9849,-0.9715,-0.9715,-0.9875,-1.0501,-1.1479,0.0,0.0,0.0,0.0,-1.2173,-1.3301,-1.3237,-1.362,-1.4497,-1.3827,-1.3048,-1.222,-1.2223,-1.2036,-1.1531,-1.1923,-1.22,-1.2308,-1.2382,0.0,0.0,0.0,0.0,0.0,0.0,0.0,0.0,0.0,0.0,0.0,0.0,0.0,0.0,0.0,0.0,0.0,0.0,0.0,-1.8442,-1.9133,-1.9334,0.0,0.0,0.0,0.0,0.0,0.0,0.0,0.0,0.0,-1.747,-1.7726,-1.8206,0.0,0.0,-1.7562,-1.8152,-1.7817,-1.7613,-1.7888,0.0,0.0,0.0,-1.8939,-1.8988,-1.9449,-2.0087,-2.0518,-2.0451,-2.1106,-2.1708,-2.1904,-2.176,-2.159,-2.1302,-2.1276,-2.1315,-2.1498,-2.1809,-2.2077,-2.2141,-2.2378,-2.2672,-0.4968,-0.5616,-0.5532,-0.5552,-0.5662,-0.5602,-0.5578,-0.5642,-0.5948,-0.6188,-0.6401,-0.6725,-0.7488,-0.8514,-0.9057,0.0,0.0,0.0,-1.0013,-1.0281,-1.0167,-1.015,-1.0287,-1.0287,-1.0294,-1.0281,-1.0144,-0.9943,-0.9722,-0.9806,-1.0249,-1.094,0.0,0.0,-1.1991,-1.1595,-1.1764,-1.2522,-1.2567,-1.3007,-1.3829,-1.3495,-1.2817,-1.1798,-1.2128,-1.2082,-1.154,-1.1874,-1.215,-1.2224,-1.2274,-1.2406,0.0,0.0,0.0,0.0,0.0,0.0,0.0,0.0,0.0,0.0,0.0,-1.6353,-1.6791,0.0,0.0,0.0,-1.8368,-1.8292,-1.8481,-1.892,0.0,0.0,0.0,0.0,0.0,0.0,0.0,-1.8029,-1.7713,-1.7295,-1.6708,-1.6985,-1.7521,-1.8175,-1.7476,-1.7153,-1.7843,0.0,-1.7238,-1.772,-1.7898,-1.8182,-1.8741,-1.8663,-1.8673,-1.9044,-2.0087,-2.0806,-2.0752,-2.1106,-2.1524,-2.1878,-2.1681,-2.1381,-2.1485,-2.1472,-2.159,-2.1783,-2.2216,-2.266,-2.2919,-2.3211,-2.3441,-0.5216,-0.6023,-0.5742,-0.5694,-0.5786,-0.565,-0.5589,-0.5614,-0.5829,-0.5881,-0.5906,-0.6231,-0.6962,-0.8041,-0.937,0.0,-1.012,-1.012,-1.0267,-1.0579,-1.0281,-1.0294,-1.0586,-1.0586,-1.0586,-1.0586,-1.0586,-1.0305,-0.9782,-0.9987,-1.01,-1.0111,-1.0432,-1.0601,-1.0723,-1.1492,-1.161,-1.11,-1.167,-1.2277,-1.2811,-1.3073,-1.2821,-1.2128,-1.2459,-1.2303,-1.1581,-1.1908,-1.2076,-1.2101,-1.2234,-1.2348,-1.248,0.0,0.0,0.0,0.0,0.0,0.0,0.0,0.0,0.0,0.0,0.0,0.0,0.0,0.0,0.0,-1.8133,0.0,-1.8832,-1.8531,0.0,0.0,0.0,-1.8392,-1.882,-1.8381,-1.789,-1.7426,0.0,0.0,-1.6584,0.0,-1.6846,-1.6718,-1.6812,-1.6956,-1.7046,-1.7177,-1.7387,-1.7852,-1.8022,-1.8296,-1.8793,-1.861,-1.8349,-1.8257,-1.912,-2.0152,-2.0517,-2.0478,-2.0518,-2.1472,-2.0701,-2.027,-2.1276,-2.138,-2.1574,-2.1988,-2.257,-2.3147,-2.348,-2.3695,-2.3769,-0.4791,-0.619,-0.6003,-0.5878,-0.5793,-0.565,-0.5589,-0.561,-0.5795,-0.5817,-0.5698,-0.6081,-0.6817,-0.789,-0.864,-0.9387,-1.012,-1.012,-1.0274,-1.0579,-1.0519,-1.0526,-1.0586,-1.0586,-1.0586,-1.0586,-1.0586,-1.0374,-1.0027,-1.0087,-0.9879,-0.9453,-0.9528,-0.9932,-1.0644,-1.0172,-1.0208,-1.0798,-1.0971,-1.1374,-1.2098,-1.2191,-1.2183,-1.2094,-1.2193,-1.2156,-1.1972,-1.2046,-1.2076,-1.2101,-1.2126,-1.22,-1.2323,-1.248,0.0,0.0,0.0,0.0,0.0,0.0,0.0,0.0,0.0,-1.5405,-1.6098,0.0,-1.6645,0.0,-1.8258,-1.8543,-1.7852,-1.8769,0.0,0.0,-1.8103,-1.8091,-1.779,-1.7262,-1.7036,-1.736,-1.6999,-1.6651,-1.6513,-1.6641,-1.674,-1.6709,-1.6952,-1.7462,-1.8256,-1.7692,-1.7408,-1.7909,-1.8052,-1.8296,-1.877,-1.9211,-1.9068,-1.8244,-1.9747,-2.0845,-2.0126,-2.1027,-2.1891,-2.2113,-2.1616,-2.1119,-2.0895,-2.0813,-2.0782,-2.0999,-2.2024,-2.286,-2.25,-2.3065,-2.3546,-0.4501,-0.5828,-0.604,-0.6081,-0.5996,-0.5847,-0.5745,-0.5709,-0.5795,-0.5737,-0.5614,-0.6258,-0.6831,-0.7469,-0.8466,-0.9229,-0.9743,-1.0122,-1.0432,-1.0586,-1.0586,-1.0586,-1.0586,-1.0586,-1.0586,-1.0586,-1.0586,-1.0372,-0.9953,-1.006,-0.9724,-0.9031,-0.9151,-0.9418,-0.9812,-0.9425,-0.9587,-1.0426,-1.0656,-1.0946,-1.1238,-1.1748,-1.2098,-1.2333,-1.2193,-1.2183,-1.2349,-1.2193,-1.2076,-1.2101,-1.215,-1.2234,-1.2308,-1.2421,-1.2554,0.0,0.0,0.0,0.0,0.0,0.0,0.0,0.0,0.0,0.0,0.0,-1.6051,0.0,-1.7661,0.0,-1.779,-1.8568,-1.8819,-1.8179,-1.8179,-1.8078,-1.779,-1.7463,-1.7365,-1.7714,-1.7463,-1.7262,-1.7262,-1.7387,-1.7467,-1.7454,-1.7685,-1.7909,-1.7939,-1.7535,-1.7316,-1.7643,-1.7695,-1.7891,-1.8466,-1.8819,-1.8832,-1.8362,-1.9146,-1.976,-1.9159,-1.9577,-2.0212,-2.0594,-2.0258,-1.9944,-2.0019,-2.0039,-2.0009,-2.0347,-2.1211,-2.2047,-2.2308,-2.3002,-2.3427,-0.4244,-0.5234,-0.586,-0.6202,-0.6289,-0.6037,-0.5925,-0.5789,-0.5762,-0.5711,-0.5683,-0.6437,-0.6826,-0.699,-0.8388,-0.9139,-0.9338,-1.0104,-1.0471,-1.0539,-1.0573,-1.0573,-1.0533,-1.0579,-1.0586,-1.0586,-1.0586,-1.0311,-0.9789,-0.9993,-0.9686,-0.8905,-0.9091,-0.9084,-0.8884,-0.9051,-0.9411,-0.9933,-1.052,-1.0717,-1.0502,-1.153,-1.2264,-1.2652,-1.2312,-1.2257,-1.2588,-1.2285,-1.2076,-1.2101,-1.22,-1.2274,-1.2274,-1.2397,-1.2529,0.0,-1.2676,0.0,0.0,0.0,0.0,0.0,0.0,0.0,0.0,-1.5311,-1.568,-1.6349,-1.6868,-1.7437,-1.8053,-1.8229,-1.8418,-1.8732,-1.8455,-1.8154,-1.8016,-1.799,-1.799,-1.799,-1.799,-1.7978,-1.7903,-1.8145,-1.8253,-1.8187,-1.8298,-1.8138,-1.7364,-1.7297,-1.7356,-1.7238,-1.7212,-1.7447,-1.7878,-1.8074,-1.8114,-1.8022,-1.8244,-1.8166,-1.8192,-1.7865,-1.7789,-1.8543,-1.8509,-1.8351,-1.91,-1.9217,-1.9359,-1.9755,-2.0399,-2.1158,-2.2053,-2.2676,-2.3035,-0.37,-0.5026,-0.51,-0.5565,-0.6276,-0.5966,-0.5827,-0.5783,-0.5682,-0.5715,-0.5855,-0.602,-0.6375,-0.6924,-0.7377,-0.8194,-0.93,-0.9588,-0.9882,-1.0214,-1.0479,-1.0459,-1.0221,-1.0479,-1.0586,-1.0586,-1.0586,-1.0412,-1.0033,-1.0087,-0.9764,-0.9144,-0.9184,-0.9184,-0.9124,0.0,0.0,0.0,-0.9915,-1.0505,-1.0886,-1.1582,-1.2192,-1.268,-1.2303,0.0,-1.2202,-1.2138,-1.2076,-1.2101,-1.2126,0.0,0.0,0.0,0.0,0.0,0.0,0.0,0.0,0.0,0.0,0.0,-1.4753,-1.5142,-1.5637,-1.5802,-1.601,-1.6362,-1.6868,-1.7287,-1.7539,-1.8355,-1.8531,-1.7802,-1.8003,-1.7829,-1.6964,-1.6826,-1.6835,-1.6814,-1.6826,-1.6861,-1.6926,-1.7289,-1.765,-1.768,-1.7753,-1.7798,-1.7602,-1.7735,-1.7721,-1.7316,-1.7212,-1.7238,-1.7342,-1.78,-1.7931,-1.7617,-1.8192,-1.8493,-1.8179,-1.8375,-1.8532,-1.8843,-1.8687,-1.8547,-1.8795,-1.8733,-1.8886,-1.9317,-1.9858,-2.025,-2.0309,-2.081,-2.1211,-0.3039,0.0,-0.4493,-0.5086,0.0,-0.564,-0.5698,-0.5719,-0.5638,-0.5628,-0.566,-0.566,-0.5855,-0.6178,-0.6724,-0.734,-0.8059,-0.8973,-0.9521,-0.9743,-1.033,-1.0506,-1.0365,-1.0526,-1.0586,-1.0586,-1.0586,-1.0445,-1.012,-0.9967,-0.9673,-0.9183,-0.9071,-0.8998,-0.8991,-0.8878,-0.8778,-0.8778,-0.9801,-1.0422,-1.0719,-1.1541,-1.2214,-1.267,0.0,0.0,0.0,0.0,0.0,0.0,0.0,0.0,0.0,0.0,0.0,-1.2397,-1.2529,-1.2652,-1.2808,-1.3089,-1.3573,-1.4247,-1.5028,-1.5536,-1.5792,-1.5913,-1.6088,-1.6275,-1.6846,-1.7237,-1.74,-1.8129,-1.8292,-1.7549,-1.7877,-1.7852,-1.7137,-1.72,-1.7328,-1.7328,-1.7328,-1.7328,-1.7328,-1.7609,-1.7834,-1.7813,-1.7938,-1.7948,-1.7725,-1.7609,-1.7427,-1.723,-1.7212,-1.7316,-1.7604,-1.7865,-1.8022,-1.78,-1.8127,-1.8218,-1.7748,-1.7878,-1.8114,-1.8317,-1.8486,-1.8643,-1.8871,-1.9003,-1.9174,-1.943,-1.9719,-1.9871,-1.9776,-2.0498,-2.1181,-0.2432,-0.2621,-0.3962,-0.4672,-0.484,-0.5355,-0.5589,-0.5589,0.0,0.0,0.0,-0.5395,-0.5395,-0.5458,-0.617,-0.6588,-0.6785,-0.8226,-0.8988,-0.9235,-1.0021,-1.0408,-1.0512,-1.0566,-1.0586,-1.0586,-1.0586,-1.0439,-1.0083,-0.9873,-0.9579,-0.9217,-0.8971,-0.8864,-0.8811,-0.8778,-0.8778,-0.8837,-0.984,-1.0399,-1.0536,-1.1531,-1.2266,-1.2689,-1.2303,-1.2257,-1.256,-1.2275,-1.2076,-1.2101,-1.22,-1.2224,-1.211,-1.22,-1.2298,-1.2421,-1.248,-1.2612,-1.2808,-1.2881,-1.3296,-1.4235,-1.5232,-1.5814,-1.5814,-1.5891,-1.6022,-1.6188,-1.6705,-1.7077,-1.7237,-1.7727,-1.784,-1.7322,-1.7727,-1.784,-1.7338,-1.7614,-1.7802,-1.7903,-1.7802,-1.789,-1.7792,-1.7928,-1.8066,-1.8064,-1.8059,-1.8083,-1.7648,-1.7291,-1.7138,-1.7149,-1.7178,-1.7369,-1.7774,-1.7891,-1.7944,-1.7852,-1.7891,-1.7761,-1.7356,-1.7261,-1.7434,-1.7814,-1.8226,-1.8683,-1.9045,-1.938,-1.969,-1.9723,-1.9723,-1.9723,-1.9813,-2.0543,-2.1261,-0.189,-0.2582,-0.3358,-0.4112,-0.484,-0.5355,-0.5589,-0.5579,-0.5484,-0.5416,-0.5395,-0.5395,-0.5395,-0.5395,-0.5653,-0.61,-0.6719,-0.7083,-0.7824,0.0,-0.9289,-0.9725,-1.017,-1.0472,-1.0586,-1.0586,-1.0586,-1.0439,-1.011,-1.0074,-0.978,-0.9243,-0.9171,-0.9024,-0.8798,-0.8778,-0.8778,-0.8811,-0.9751,-1.0447,-1.091,-1.1581,-1.2192,-1.2645,-1.2303,-1.2128,-1.2183,-1.2138,-1.2076,-1.2101,-1.2126,-1.2126,-1.2101,-1.2092,-1.2135,-1.215,-1.2357,-1.2505,-1.2554,-1.2783,-1.3296,-1.4224,-1.521,-1.5814,-1.5814,-1.5814,-1.5937,-1.6178,-1.633,-1.6408,-1.6629,-1.7162,-1.7275,-1.6785,-1.7172,-1.7285,-1.6713,-1.6726,-1.6814,-1.6826,-1.6738,-1.681,-1.6876,-1.7225,-1.7488,-1.7524,-1.7546,-1.7435,-1.714,-1.7096,-1.7115,-1.7073,-1.7136,-1.7238,-1.7369,-1.7342,-1.7382,-1.7316,-1.7369,-1.7369,-1.7238,-1.7447,-1.7625,-1.7781,-1.8364,-1.8879,-1.9049,-1.942,-1.9636,-1.969,-1.9723,-1.9723,-1.9723,-1.9962,-2.0213,-0.1532,-0.1918,-0.2559,-0.3097,-0.3493,-0.4463,-0.5208,-0.5688,-0.5549,-0.5532,-0.5624,-0.5556,-0.5488,-0.5511,-0.5496,-0.5653,-0.6009,-0.656,-0.7094,-0.7683,-0.8297,-0.8911,-0.9474,-0.9755,-1.0079,-1.0434,-1.0561,-1.0519,-1.0354,-1.0194,-0.9943,-0.9677,-0.9377,-0.9064,-0.8798,-0.8778,-0.8778,-0.8811,-0.953,-0.9992,-1.0257,-1.0799,-1.1353,-1.1909,-1.1758,-1.1803,-1.2076,-1.2076,-1.2076,-1.2076,-1.2076,-1.2076,-1.2076,-1.2076,-1.2126,-1.22,-1.2406,-1.2529,-1.2603,-1.3262,-1.3729,-1.3941,-1.5096,-1.5703,-1.5446,-1.5714,-1.5957,-1.61,-1.621,-1.634,-1.6436,-1.6738,-1.6798,-1.6525,-1.6738,-1.6798,-1.6563,-1.6513,-1.6513,-1.6513,-1.6513,-1.6513,-1.6513,-1.6726,-1.6911,-1.6911,-1.6967,-1.6932,-1.6744,-1.6897,-1.7052,-1.7094,-1.7157,-1.7212,-1.7212,-1.7212,-1.7212,-1.7212,-1.7212,-1.7212,-1.7199,-1.7406,-1.7475,-1.7496,-1.8008,-1.8442,-1.8712,-1.9105,-1.9402,-1.9672,-1.9723,-1.9723,-1.9723,-1.9723,-1.9828,-0.1297,-0.1372,-0.2038,-0.2432,-0.2672,-0.3846,-0.4826,-0.5577,-0.5629,-0.5772,-0.5867,-0.5718,-0.562,-0.5579,-0.5532,-0.5457,-0.5505,-0.615,-0.6531,-0.6756,-0.7405,-0.8086,-0.8769,-0.9069,-0.9524,-1.0009,-1.0364,-1.0496,-1.041,-1.0227,-1.0043,-0.998,-0.9559,-0.9198,-0.9005,-0.8904,-0.8905,-0.8925,-0.9246,-0.9458,-0.9614,-0.9987,-1.0507,-1.1057,-1.1242,-1.1502,-1.1893,-1.2017,-1.2076,-1.2076,-1.2076,-1.2076,-1.2076,-1.2076,-1.215,-1.2258,-1.2397,-1.2578,-1.2774,-1.361,-1.3988,-1.3668,-1.4858,-1.548,-1.5198,-1.5625,-1.5966,-1.601,-1.6188,-1.6328,-1.6392,-1.6448,-1.6479,-1.65,-1.6513,-1.6525,-1.6513,-1.6513,-1.6513,-1.6513,-1.6513,-1.6513,-1.6513,-1.6513,-1.6538,-1.6559,-1.6577,-1.6599,-1.6599,-1.6748,-1.6918,-1.7052,-1.7136,-1.7178,-1.7199,-1.7212,-1.7212,-1.7212,-1.7212,-1.7212,-1.722,-1.7248,-1.7331,-1.7455,-1.7828,-1.8305,-1.863,-1.9007,-1.9362,-1.9654,-1.9723,-1.9723,-1.9723,-1.9723,-1.9723,-0.1297,-0.1414,-0.2112,-0.2854,-0.3394,-0.4176,-0.4663,-0.4984,-0.5653,-0.6074,-0.6204,-0.5908,-0.5715,-0.562,-0.5701,-0.5606,-0.5423,-0.5607,-0.6052,-0.6634,-0.6785,-0.7274,-0.8091,-0.8705,-0.9058,-0.9224,-0.9913,-1.0152,-0.9975,-1.0069,-0.9993,-0.9775,-0.9666,-0.9626,-0.9566,-0.9304,-0.9171,-0.9143,-0.8965,-0.9106,-0.9588,-0.9666,-0.9943,-1.0466,-1.1006,-1.1326,-1.1402,-1.1843,-1.2076,-1.2076,-1.2076,-1.2076,-1.2076,-1.2076,-1.2101,-1.2116,-1.2357,-1.2593,-1.2871,-1.3358,-1.3658,-1.3658,-1.457,-1.5176,-1.5131,-1.5536,-1.5881,-1.5979,-1.601,-1.6154,-1.6349,-1.6392,-1.6436,-1.6479,-1.6513,-1.6513,-1.6513,-1.6513,-1.6513,-1.6513,-1.6513,-1.6513,-1.6513,-1.6513,-1.6513,-1.6513,-1.6522,-1.6565,-1.6633,-1.6675,-1.6761,-1.6897,-1.6968,-1.7052,-1.7157,-1.7212,-1.7212,-1.7212,-1.7212,-1.7212,-1.7261,-1.7455,-1.772,-1.7578,-1.822,-1.8669,-1.8917,-1.9362,-1.953,-1.9493,-1.9581,-1.969,-1.9723,-1.9723,-1.9723,-0.1297,-0.1336,-0.1649,-0.2225,-0.2926,-0.3158,-0.388,-0.4958,-0.5153,-0.5657,-0.6276,-0.6166,-0.5989,-0.5844,-0.5732,-0.5606,-0.5498,-0.5501,-0.5654,-0.5918,-0.5914,-0.6334,-0.7046,-0.7465,-0.7827,-0.8285,-0.9128,-0.9464,-0.9467,-0.9938,-1.0074,-0.9854,-0.988,-0.986,-0.9686,-0.9559,-0.9419,-0.9183,-0.9091,-0.9059,-0.9108,-0.9106,-0.9387,-0.9891,-1.0182,-1.0651,-1.1242,-1.1528,-1.1778,-1.2051,-1.2076,-1.2076,-1.2076,-1.2076,-1.2076,-1.2101,-1.2348,-1.2578,-1.2759,-1.3286,-1.361,-1.361,-1.4524,-1.5097,-1.5131,-1.5547,-1.5836,-1.5869,-1.5957,-1.6054,-1.6175,-1.6318,-1.6426,-1.6436,-1.6479,-1.6513,-1.6513,-1.6513,-1.6513,-1.6513,-1.6513,-1.6513,-1.6513,-1.6513,-1.6513,-1.6513,-1.6513,-1.6522,-1.6577,-1.6565,-1.6641,-1.6761,-1.6803,-1.691,-1.7031,-1.7157,-1.7178,-1.7199,-1.7212,-1.7212,-1.724,-1.7303,-1.7447,-1.7468,-1.7861,-1.8167,-1.8226,-1.8442,-1.864,-1.8921,-1.9288,-1.9417,-1.9621,-1.9708,-1.9723,-0.1297,-0.1297,-0.1297,-0.1649,-0.2194,-0.231,-0.3083,-0.4288,-0.4678,-0.5269,-0.5935,-0.614,-0.6162,-0.6067,-0.5864,-0.5732,-0.5644,-0.5566,-0.5491,-0.5457,-0.5419,-0.5657,-0.6141,-0.6461,-0.6887,-0.7409,-0.8221,-0.8763,-0.9058,-0.9811,-1.0134,-0.9959,-1.0019,-0.9982,-0.9821,-0.9764,-0.9601,-0.9273,-0.9202,-0.9071,-0.8844,-0.8778,-0.8982,-0.9335,-0.9536,-1.0002,-1.0778,-1.115,-1.1477,-1.1877,-1.2002,-1.2076,-1.2076,-1.2076,-1.2101,-1.2184,-1.2348,-1.2554,-1.2676,-1.3152,-1.3416,-1.3478,-1.4328,-1.488,-1.4983,-1.5446,-1.5792,-1.5814,-1.5891,-1.5944,-1.6022,-1.6175,-1.6306,-1.6405,-1.6436,-1.6479,-1.6513,-1.6513,-1.6513,-1.6513,-1.6513,-1.6513,-1.6513,-1.6513,-1.6513,-1.6513,-1.6513,-1.6513,-1.6513,-1.6522,-1.6543,-1.662,-1.6663,-1.6782,-1.696,-1.7052,-1.7136,-1.7199,-1.7212,-1.7212,-1.7212,-1.7212,-1.7212,-1.7323,-1.7289,-1.7496,-1.7968,-1.8008,-1.8252,-1.8693,-1.9049,-1.9306,-1.9654,-1.969,-1.9708,-0.1297,-0.1297,-0.1297,-0.1335,-0.1414,-0.2115,-0.2506,-0.2899,-0.4254,-0.4999,-0.5134,-0.5698,-0.6118,-0.6227,-0.6193,-0.6098,-0.5817,-0.5769,-0.5691,-0.5572,-0.5477,-0.5399,-0.5495,-0.6108,-0.6437,-0.6552,-0.7349,-0.8156,-0.893,-0.96,-1.0015,-0.9958,-0.9939,-0.9977,-0.997,-0.9914,-0.9714,-0.9408,-0.9251,-0.9078,-0.8818,-0.8778,-0.8804,-0.891,-0.9316,-0.9614,-0.9821,-1.0735,-1.1293,-1.1352,-1.1803,-1.2076,-1.2076,-1.2076,-1.215,-1.2274,-1.2421,-1.2554,-1.2686,-1.2856,-1.2978,-1.3089,-1.3823,-1.4351,-1.4467,-1.521,-1.5703,-1.577,-1.578,-1.5869,-1.5979,-1.6044,-1.6132,-1.6349,-1.6392,-1.6436,-1.6479,-1.65,-1.6513,-1.6513,-1.6513,-1.6513,-1.6513,-1.6513,-1.6513,-1.6513,-1.6513,-1.6513,-1.6513,-1.6513,-1.6534,-1.6543,-1.662,-1.6761,-1.6939,-1.701,-1.7086,-1.7128,-1.7157,-1.7212,-1.7212,-1.7212,-1.7212,-1.7261,-1.7447,-1.7639,-1.7888,-1.8271,-1.8769,-1.9087,-1.9147,-1.9384,-1.949,-1.9636,-1.969,-0.0471,-0.1061,-0.1218,-0.1297,-0.1336,-0.1609,-0.2002,-0.2549,-0.3134,-0.3685,-0.4251,-0.4999,-0.5381,-0.5503,-0.6063,-0.6184,-0.5949,-0.5847,-0.5772,-0.5722,-0.5667,-0.5675,-0.5668,-0.5823,-0.5875,-0.5992,-0.6556,-0.7246,-0.7954,-0.8438,-0.8832,-0.9151,-0.9294,-0.9556,-0.9894,-0.9983,-0.9739,-0.9333,-0.9301,-0.9118,-0.8738,-0.8752,-0.8778,-0.8804,-0.8989,-0.9237,-0.9588,-1.0002,-1.0549,-1.1267,-1.1502,-1.1753,-1.2051,-1.2076,-1.2126,-1.2175,-1.2298,-1.2455,-1.2563,-1.27,-1.2968,-1.3334,-1.3634,-1.4001,-1.4328,-1.4937,-1.5356,-1.5413,-1.5659,-1.5836,-1.5869,-1.5957,-1.6032,-1.612,-1.6284,-1.6392,-1.6436,-1.6479,-1.6513,-1.6513,-1.6513,-1.6513,-1.6513,-1.6513,-1.6513,-1.6513,-1.6513,-1.6513,-1.6513,-1.6513,-1.6513,-1.65,-1.6543,-1.662,-1.6782,-1.691,-1.696,-1.7023,-1.7073,-1.7128,-1.7149,-1.7178,-1.7178,-1.7178,-1.7393,-1.7529,-1.7659,-1.7747,-1.8369,-1.8616,-1.8731,-1.9165,-1.9199,-1.942,-1.9563,-0.0196,-0.0786,-0.1061,-0.1179,-0.1179,-0.1258,-0.161,-0.2119,-0.2393,-0.2834,-0.3412,-0.4162,-0.4688,-0.5042,-0.5584,-0.5934,-0.605,-0.5949,-0.5874,-0.5867,-0.5827,-0.58,-0.5779,-0.5654,-0.5613,-0.5741,-0.6268,-0.681,-0.7232,-0.7689,-0.8224,-0.8826,-0.8903,-0.9255,-0.9845,-0.9938,-0.9674,-0.9273,-0.9324,-0.9132,-0.8685,-0.8718,-0.8778,-0.8778,-0.8778,-0.8956,-0.9335,-0.9491,-1.0028,-1.088,-1.1192,-1.1553,-1.2026,-1.2076,-1.2076,-1.2101,-1.2234,-1.2332,-1.2431,-1.2554,-1.2837,-1.3262,-1.3443,-1.3705,-1.4082,-1.4547,-1.48,-1.4949,-1.5289,-1.558,-1.5625,-1.5802,-1.5957,-1.601,-1.6175,-1.6306,-1.6392,-1.6457,-1.6479,-1.65,-1.6513,-1.6513,-1.6513,-1.6513,-1.6513,-1.6513,-1.6513,-1.6513,-1.6513,-1.6513,-1.6513,-1.6513,-1.65,-1.6543,-1.662,-1.6705,-1.6854,-1.6905,-1.6947,-1.7023,-1.7086,-1.7115,-1.7136,-1.7136,-1.7199,-1.7261,-1.7323,-1.7352,-1.7578,-1.7902,-1.8442,-1.8993,-1.9105,-1.9269,-1.9435,-0.055,-0.0629,-0.0825,-0.0904,-0.0943,-0.114,-0.1297,-0.1453,-0.2118,-0.2425,-0.256,-0.3213,-0.4027,-0.4758,-0.4971,-0.5395,-0.612,-0.6095,-0.603,-0.602,-0.5898,-0.584,-0.5833,-0.5705,-0.5684,-0.5815,-0.6508,-0.6825,-0.6864,-0.7416,-0.8122,-0.8852,-0.8767,-0.9103,-0.9928,-0.9843,-0.955,-0.9157,-0.9237,-0.9125,-0.8678,-0.8718,-0.8778,-0.8778,-0.8778,-0.8804,-0.8857,-0.929,-0.9814,-1.0423,-1.0947,-1.1519,-1.1993,-1.2076,-1.2076,-1.2101,-1.2224,-1.2298,-1.2323,-1.2431,-1.2578,-1.2788,-1.3118,-1.342,-1.3586,-1.4025,-1.4305,-1.4374,-1.4754,-1.5108,-1.5153,-1.5491,-1.5802,-1.5979,-1.6044,-1.6154,-1.6306,-1.6392,-1.6414,-1.65,-1.6513,-1.6513,-1.6513,-1.6513,-1.6513,-1.6513,-1.6513,-1.6513,-1.6513,-1.6513,-1.6513,-1.6513,-1.6513,-1.6534,-1.6534,-1.6534,-1.6671,-1.6799,-1.6854,-1.6918,-1.696,-1.7002,-1.7052,-1.7073,-1.7157,-1.724,-1.7385,-1.7434,-1.7639,-1.7962,-1.8461,-1.8655,-1.8765,-1.8917,-1.9328,0.0118,-0.0393,-0.0589,-0.0668,-0.0707,-0.0943,-0.1022,-0.1061,-0.1492,-0.1634,-0.1768,-0.2433,-0.3315,-0.4096,-0.465,-0.5431,-0.6254,-0.6245,-0.6224,-0.6176,-0.617,-0.6108,-0.6119,-0.5962,-0.5857,-0.5866,-0.6131,-0.623,-0.6237,-0.6492,-0.7179,-0.816,-0.8334,-0.887,-0.9819,-0.9871,-0.9539,-0.8913,-0.9097,-0.8997,-0.8532,-0.8672,-0.8785,-0.8778,-0.8778,-0.8778,-0.8804,-0.8962,-0.9491,-1.0346,-1.0576,-1.1091,-1.1868,-1.2076,-1.2076,-1.211,-1.2135,-1.22,-1.2283,-1.2323,-1.2421,-1.2569,-1.2788,-1.291,-1.3031,-1.3491,-1.38,-1.3871,-1.4258,-1.4547,-1.4628,-1.5006,-1.5446,-1.5836,-1.5957,-1.6066,-1.6241,-1.6392,-1.6479,-1.65,-1.6513,-1.6513,-1.6513,-1.6513,-1.6513,-1.6513,-1.6513,-1.6513,-1.6513,-1.6513,-1.6513,-1.6513,-1.6513,-1.6513,-1.6513,-1.6513,-1.6586,-1.6671,-1.6727,-1.6769,-1.6833,-1.6952,-1.6981,-1.7052,-1.7149,-1.7253,-1.7385,-1.7488,-1.7618,-1.7618,-1.7747,-1.7948,-1.8187,-1.8597,-1.9124,0.0745,0.0275,-0.0275,-0.0511,-0.0511,-0.0707,-0.0825,-0.0904,-0.1061,-0.1168,-0.1352,-0.1793,-0.2489,-0.3268,-0.3848,-0.473,-0.5709,-0.5828,-0.5986,-0.6261,-0.63,-0.63,-0.6289,-0.6166,-0.6034,-0.5942,-0.6044,-0.6067,-0.5983,-0.6098,-0.6738,-0.7673,-0.7762,-0.8367,-0.9468,-0.9489,-0.9186,-0.892,-0.9105,-0.9019,-0.8682,-0.8749,-0.8838,-0.8798,-0.8778,-0.8778,-0.8778,-0.8778,-0.9185,-1.002,-1.0456,-1.1175,-1.1993,-1.2076,-1.2076,-1.2076,-1.2101,-1.2126,-1.2224,-1.2224,-1.2274,-1.2406,-1.2495,-1.2603,-1.2725,-1.3094,-1.3272,-1.3382,-1.3776,-1.4048,-1.4118,-1.449,-1.4903,-1.5221,-1.5669,-1.5957,-1.611,-1.6328,-1.6457,-1.6479,-1.6479,-1.65,-1.6513,-1.6513,-1.6513,-1.6513,-1.6513,-1.6513,-1.6513,-1.6513,-1.6513,-1.6513,-1.6513,-1.6513,-1.6513,-1.6513,-1.6513,-1.6556,-1.6565,-1.6629,-1.6671,-1.6854,-1.696,-1.7086,-1.7191,-1.7212,-1.7303,-1.7282,-1.7344,-1.724,-1.7289,-1.7767,-1.8246,-1.8611,-1.9082,0.141,0.1215,0.0235,-0.0157,-0.0196,-0.0432,-0.0668,-0.0825,-0.0904,-0.102,-0.1216,-0.1295,-0.1804,-0.239,-0.2741,-0.3561,-0.4691,-0.4963,-0.5395,-0.5944,-0.6103,-0.6141,-0.6251,-0.6276,-0.6162,-0.6084,-0.6218,-0.6276,-0.6245,-0.6265,-0.6718,-0.7423,-0.7389,-0.7779,-0.8795,-0.8825,-0.8816,-0.8955,-0.9174,-0.9062,-0.8773,-0.8886,-0.8901,-0.8771,-0.8752,-0.8752,-0.8778,-0.8778,-0.9035,-0.9673,-1.0592,-1.1343,-1.1902,-1.2051,-1.2002,-1.2051,-1.2076,-1.2101,-1.2101,-1.2101,-1.215,-1.2274,-1.2323,-1.2406,-1.2627,-1.2725,-1.2822,-1.2944,-1.331,-1.3549,-1.3644,-1.4001,-1.4281,-1.4421,-1.5198,-1.5758,-1.6001,-1.6219,-1.6371,-1.6414,-1.6457,-1.6513,-1.65,-1.6513,-1.6513,-1.6513,-1.6513,-1.6513,-1.6513,-1.6513,-1.6513,-1.6513,-1.6513,-1.6513,-1.6513,-1.6513,-1.6513,-1.6513,-1.6522,-1.6543,-1.6607,-1.6769,-1.6939,-1.7065,-1.7149,-1.7191,-1.7199,-1.7199,-1.7199,-1.722,-1.7475,-1.7948,-1.8206,-1.8436,-1.8784,0.2776,0.2113,0.1254,0.0862,0.0745,0.0,-0.0393,-0.0471,-0.0629,-0.0746,-0.0825,-0.0943,-0.1452,-0.2234,-0.2431,-0.3093,-0.3869,-0.4103,-0.4574,-0.524,-0.5318,-0.575,-0.618,-0.63,-0.6276,-0.6242,-0.6272,-0.6296,-0.63,-0.63,-0.6721,-0.748,-0.7351,-0.7713,-0.8365,-0.8332,-0.8326,-0.8506,-0.8558,-0.8669,-0.867,-0.88,-0.8736,-0.8539,-0.8606,-0.8633,-0.8659,-0.8752,-0.9028,-0.9588,-1.0251,-1.0922,-1.1444,-1.1494,-1.1678,-1.2002,-1.2076,-1.2076,-1.2076,-1.2076,-1.2092,-1.2141,-1.2249,-1.2323,-1.2382,-1.2505,-1.2603,-1.2725,-1.2895,-1.2992,-1.3128,-1.3501,-1.3894,-1.4317,-1.4926,-1.549,-1.5856,-1.6132,-1.6275,-1.6371,-1.6371,-1.6402,-1.6479,-1.65,-1.65,-1.6513,-1.6513,-1.6513,-1.6513,-1.6513,-1.6513,-1.6513,-1.6513,-1.6513,-1.6513,-1.6513,-1.6513,-1.6513,-1.6522,-1.6522,-1.6565,-1.6684,-1.6833,-1.6981,-1.7044,-1.7065,-1.7136,-1.7199,-1.7199,-1.7191,-1.7344,-1.7585,-1.7625,-1.7787,-1.8246,0.3519,0.2973,0.2152,0.1606,0.1254,0.0628,0.0118,-0.0275,-0.0432,-0.0511,-0.0629,-0.0707,-0.106,-0.153,-0.1649,-0.2156,-0.2895,-0.3012,-0.3482,-0.4297,-0.4807,-0.5476,-0.6103,-0.63,-0.63,-0.63,-0.63,-0.63,-0.63,-0.63,-0.6567,-0.6872,-0.6988,-0.7273,-0.774,-0.7673,-0.775,-0.8034,-0.8233,-0.839,-0.8322,-0.8704,-0.8697,-0.8497,-0.8474,-0.8494,-0.8553,-0.8586,-0.8923,-0.9484,-0.9909,-1.0328,-1.0846,-1.0897,-1.1183,-1.1694,-1.1778,-1.1828,-1.2051,-1.2076,-1.2076,-1.2101,-1.2175,-1.2224,-1.2298,-1.2372,-1.2471,-1.2593,-1.2627,-1.2686,-1.2832,-1.3104,-1.3491,-1.3907,-1.4351,-1.4778,-1.5231,-1.5378,-1.5623,-1.5834,-1.5966,-1.6098,-1.6328,-1.6414,-1.6457,-1.6457,-1.6479,-1.65,-1.6513,-1.6513,-1.6513,-1.6513,-1.6513,-1.6513,-1.6513,-1.6513,-1.6513,-1.6513,-1.65,-1.6522,-1.6565,-1.6641,-1.6769,-1.6897,-1.6939,-1.6981,-1.7052,-1.7115,-1.7107,-1.7107,-1.7136,-1.7269,-1.7413,-1.7434,-1.7868,0.391,0.3871,0.3012,0.2231,0.1644,0.1371,0.0745,0.0,-0.0196,-0.0354,-0.0471,-0.055,-0.0628,-0.0589,-0.0825,-0.1099,-0.1764,-0.1803,-0.2427,-0.3285,-0.4144,-0.5043,-0.555,-0.6141,-0.6261,-0.63,-0.63,-0.63,-0.63,-0.63,-0.63,-0.6412,-0.6374,-0.6569,-0.6951,-0.6872,-0.7109,-0.7582,-0.8025,-0.8153,-0.8151,-0.8557,-0.8717,-0.8431,-0.8361,-0.8401,-0.8427,-0.8448,-0.8732,-0.9432,-0.9484,-0.9788,-1.0218,-1.032,-1.0609,-1.1116,-1.1318,-1.1544,-1.1927,-1.2026,-1.2076,-1.2101,-1.2101,-1.2126,-1.2224,-1.2283,-1.2323,-1.2471,-1.248,-1.2578,-1.271,-1.2822,-1.3089,-1.3454,-1.3573,-1.3729,-1.4071,-1.4363,-1.4698,-1.5209,-1.5366,-1.5657,-1.6044,-1.6297,-1.6383,-1.6349,-1.6392,-1.6457,-1.6479,-1.65,-1.65,-1.6513,-1.6513,-1.6513,-1.6513,-1.6513,-1.6513,-1.6513,-1.6513,-1.6522,-1.6577,-1.6641,-1.6727,-1.6812,-1.6846,-1.6888,-1.696,-1.7002,-1.7002,-1.7086,-1.7157,-1.7372,-1.7564,-1.7475,-1.772,0.474,0.4662,0.3871,0.3441,0.3049,0.188,0.1176,0.0902,0.0196,-0.0039,-0.0157,-0.0314,-0.0354,-0.0393,-0.0511,-0.0746,-0.0903,-0.0982,-0.1373,-0.2232,-0.3086,-0.3554,-0.4183,-0.5329,-0.6187,-0.6222,-0.6261,-0.63,-0.63,-0.63,-0.63,-0.63,-0.6296,-0.6356,-0.644,-0.6313,-0.6401,-0.7005,-0.7449,-0.7792,-0.807,-0.8426,-0.857,-0.8315,-0.8267,-0.8301,-0.8368,-0.8395,-0.8474,-0.8633,-0.8811,-0.9145,-0.9607,-0.9736,-1.002,-1.0533,-1.104,-1.1326,-1.1528,-1.1868,-1.2076,-1.2076,-1.2101,-1.211,-1.2126,-1.215,-1.22,-1.2298,-1.2348,-1.2446,-1.2627,-1.2725,-1.2871,-1.3041,-1.3113,-1.3138,-1.3296,-1.386,-1.4502,-1.5062,-1.5266,-1.5534,-1.6078,-1.6144,-1.621,-1.6231,-1.6318,-1.6392,-1.6436,-1.6479,-1.65,-1.65,-1.6513,-1.6513,-1.6513,-1.6513,-1.6513,-1.6513,-1.6513,-1.6513,-1.6556,-1.6577,-1.6641,-1.6684,-1.6752,-1.6803,-1.6833,-1.6939,-1.6973,-1.7065,-1.7136,-1.7261,-1.7365,-1.7365,-1.7475,0.5018,0.4945,0.4592,0.4184,0.3686,0.289,0.2057,0.1334,0.0823,0.0392,0.0039,-0.0118,-0.0157,-0.0196,-0.0275,-0.0314,-0.0354,-0.0432,-0.0712,-0.1312,-0.2072,-0.252,-0.2773,-0.3987,-0.4985,-0.5497,-0.6022,-0.6211,-0.6281,-0.6257,-0.63,-0.63,-0.63,-0.6296,-0.6276,-0.6027,-0.6059,-0.6375,-0.6813,-0.7228,-0.7637,-0.7999,-0.8241,-0.8122,-0.8087,-0.8082,-0.8135,-0.8162,-0.8221,-0.8295,-0.8368,-0.858,-0.8968,-0.9119,-0.9399,-0.9917,-1.0533,-1.1032,-1.1318,-1.1778,-1.2076,-1.2076,-1.2076,-1.2076,-1.2076,-1.2076,-1.2126,-1.2175,-1.2224,-1.2308,-1.2505,-1.2661,-1.2725,-1.2774,-1.2881,-1.2915,-1.3002,-1.3368,-1.3954,-1.4536,-1.4594,-1.5108,-1.5524,-1.5824,-1.6001,-1.6022,-1.621,-1.6284,-1.6392,-1.6436,-1.6479,-1.65,-1.65,-1.6513,-1.6513,-1.6513,-1.6513,-1.6513,-1.6513,-1.6513,-1.6534,-1.6522,-1.6522,-1.6577,-1.6654,-1.662,-1.6671,-1.6791,-1.6888,-1.691,-1.696,-1.7044,-1.7149,-1.724,-1.7331,0.5034,0.5023,0.5121,0.4701,0.4047,0.387,0.3023,0.1843,0.1371,0.0862,0.0235,0.0118,0.0,0.0,0.0,0.0,0.0,-0.0157,-0.0357,-0.0526,-0.1133,-0.1473,-0.1778,-0.2551,-0.3357,-0.4305,-0.5246,-0.575,-0.5889,-0.6177,-0.618,-0.6219,-0.63,-0.63,-0.6265,-0.6108,-0.5966,-0.6028,-0.6456,-0.6777,-0.7072,-0.744,-0.7684,-0.7787,-0.8066,-0.8024,-0.8015,-0.8003,-0.8042,-0.8148,-0.8168,-0.8221,-0.8321,-0.8527,-0.8732,-0.9249,-0.9865,-1.0456,-1.1006,-1.1569,-1.1952,-1.2051,-1.2076,-1.2076,-1.2076,-1.2076,-1.2101,-1.2101,-1.2126,-1.2175,-1.2298,-1.248,-1.2637,-1.271,-1.2808,-1.2881,-1.2915,-1.2915,-1.3416,-1.3954,-1.4142,-1.449,-1.5096,-1.5536,-1.568,-1.5834,-1.6022,-1.6175,-1.6262,-1.6349,-1.6371,-1.6436,-1.6457,-1.6479,-1.65,-1.6513,-1.6513,-1.6513,-1.6513,-1.6513,-1.6513,-1.65,-1.65,-1.65,-1.6534,-1.6543,-1.6599,-1.6718,-1.6774,-1.6752,-1.6846,-1.7002,-1.7073,-1.7115,-1.7248,0.5102,0.5018,0.5037,0.4914,0.4706,0.4127,0.3655,0.3168,0.1918,0.1254,0.1019,0.0,0.0,0.0,0.0,0.0,0.0,0.0,0.0,0.0,0.0,0.0,0.0,-0.1317,-0.1881,-0.2469,-0.3707,-0.4567,-0.4968,-0.5467,-0.5822,-0.598,-0.618,-0.63,-0.622,-0.6115,-0.5986,-0.5948,-0.6315,-0.6567,-0.6763,-0.7076,-0.736,-0.7553,-0.8051,-0.8183,-0.8039,-0.8099,-0.8157,-0.7985,-0.7955,-0.7981,-0.8062,-0.8295,-0.8474,-0.8732,-0.9256,-0.9891,-1.0379,-1.1032,-1.1619,-1.1952,-1.2026,-1.2051,-1.2051,-1.2076,-1.2076,-1.2076,-1.2101,-1.215,-1.2283,-1.2382,-1.2471,-1.2627,-1.2735,-1.2774,-1.2856,-1.2954,-1.3079,-1.3586,-1.3716,-1.3905,-1.4593,-1.5085,-1.5164,-1.5333,-1.5557,-1.5768,-1.5944,-1.611,-1.6231,-1.6306,-1.6392,-1.6436,-1.6479,-1.65,-1.6513,-1.6513,-1.6513,-1.6513,-1.6513,-1.6513,-1.6513,-1.6513,-1.6534,-1.6543,-1.6599,-1.6667,-1.6697,-1.6718,-1.6854,-1.6989,-1.701,-1.7073,-1.7323,0.5067,0.5023,0.508,0.5069,0.4956,0.4681,0.4231,0.3715,0.2934,0.2348,0.1801,0.1097,0.0667,0.0549,0.0118,0.0,0.0,0.0,0.0,0.0,0.0,0.0,0.0,0.0,-0.0639,-0.1118,-0.2139,-0.3199,-0.3791,-0.4763,-0.524,-0.5431,-0.5906,-0.63,-0.6289,-0.6235,-0.6061,-0.6042,-0.6129,-0.6299,-0.6508,-0.6848,-0.7197,-0.7586,-0.7903,-0.8115,-0.8197,-0.8195,-0.8159,-0.7961,-0.7901,-0.7901,-0.7955,-0.8029,-0.8189,-0.8395,-0.8923,-0.9387,-0.9736,-1.031,-1.0838,-1.1065,-1.1435,-1.1669,-1.1778,-1.1877,-1.2076,-1.2076,-1.2101,-1.2126,-1.2175,-1.2249,-1.2348,-1.2471,-1.2603,-1.2735,-1.2808,-1.2856,-1.3041,-1.3258,-1.3282,-1.3607,-1.4292,-1.4617,-1.4617,-1.4812,-1.5085,-1.5333,-1.5579,-1.568,-1.579,-1.6066,-1.6141,-1.6293,-1.638,-1.6457,-1.6513,-1.6513,-1.6513,-1.6513,-1.6513,-1.6513,-1.6513,-1.6513,-1.6534,-1.6522,-1.6556,-1.659,-1.6641,-1.6684,-1.6769,-1.6833,-1.6939,-1.7052,-1.7261,0.504,0.5023,0.5113,0.5099,0.5,0.511,0.4738,0.4116,0.3832,0.3363,0.2699,0.1918,0.1449,0.1097,0.0,0.0,0.0,0.0,0.0,0.0,0.0,0.0,0.0,0.0,0.0,-0.0294,-0.0744,-0.165,-0.2713,-0.374,-0.4332,-0.4815,-0.5599,-0.6146,-0.6191,-0.6268,-0.6088,-0.5976,-0.5847,-0.6008,-0.6271,-0.67,-0.7044,-0.7406,-0.7525,-0.776,-0.7954,-0.8043,-0.8043,-0.7925,-0.7901,-0.7901,-0.7901,-0.7901,-0.7981,-0.8195,-0.8692,-0.8982,-0.9309,-0.9666,-1.0141,-1.0423,-1.0956,-1.1217,-1.1444,-1.1778,-1.2076,-1.2076,-1.2101,-1.2101,-1.2126,-1.22,-1.2249,-1.2357,-1.2505,-1.2627,-1.2676,-1.2749,-1.2832,-1.2929,-1.2881,-1.3282,-1.3965,-1.4152,-1.4176,-1.4444,-1.4732,-1.4755,-1.4983,-1.5028,-1.5198,-1.5623,-1.5866,-1.6086,-1.6238,-1.6402,-1.6457,-1.6513,-1.6513,-1.6513,-1.6513,-1.6513,-1.6513,-1.6513,-1.6513,-1.6534,-1.6513,-1.6513,-1.6556,-1.6599,-1.6654,-1.6718,-1.6812,-1.6918,-1.7052,0.5108,0.5018,0.5031,0.5029,0.5021,0.5037,0.4995,0.4784,0.4146,0.3791,0.3597,0.2737,0.1996,0.1215,0.0471,0.0,0.0,0.0,0.0,0.0,0.0,0.0,0.0,0.0,0.0,0.0,0.0,-0.0653,-0.1592,-0.2599,-0.3423,-0.4105,-0.4579,-0.5228,-0.5863,-0.5947,-0.6282,-0.6176,-0.6054,-0.5909,-0.5848,-0.6217,-0.633,-0.653,-0.6892,-0.7335,-0.7483,-0.7579,-0.7639,-0.7778,-0.7854,-0.7901,-0.7901,-0.7901,-0.7901,-0.7981,-0.8215,-0.8527,-0.8916,-0.9249,-0.9607,-0.9994,-1.0694,-1.1167,-1.1343,-1.1653,-1.2002,-1.2076,-1.2076,-1.2076,-1.2076,-1.2101,-1.2175,-1.2249,-1.2348,-1.2446,-1.252,-1.2652,-1.2725,-1.2783,-1.2783,-1.3079,-1.3586,-1.3658,-1.3776,-1.4071,-1.4305,-1.4317,-1.4433,-1.4525,-1.4823,-1.5299,-1.5623,-1.5832,-1.6129,-1.6293,-1.6414,-1.6491,-1.6491,-1.6513,-1.6513,-1.6513,-1.6513,-1.6513,-1.6513,-1.6513,-1.6513,-1.6513,-1.6513,-1.6534,-1.6577,-1.6654,-1.6697,-1.6791,-1.6897,0.5061,0.5018,0.5018,0.5018,0.5018,0.5018,0.5018,0.494,0.4662,0.4465,0.4307,0.3597,0.2542,0.1488,0.0863,0.0,0.0,0.0,0.0,0.0,0.0,0.0,0.0,0.0,0.0,0.0,0.0,-0.0166,-0.0851,-0.1532,-0.2435,-0.2801,-0.348,-0.4245,-0.5068,-0.519,-0.5541,-0.5736,-0.5832,-0.5725,-0.5652,-0.5743,-0.5975,-0.6189,-0.6568,-0.6871,-0.7099,-0.712,-0.7062,-0.7166,-0.7264,-0.7467,-0.7547,-0.7708,-0.7901,-0.7901,-0.7981,-0.8162,-0.8342,-0.86,-0.8935,-0.9249,-0.9847,-1.031,-1.077,-1.1293,-1.1653,-1.1628,-1.1927,-1.2051,-1.2051,-1.2076,-1.2126,-1.2175,-1.2249,-1.2298,-1.2397,-1.2495,-1.2593,-1.2652,-1.27,-1.2958,-1.3142,-1.3248,-1.332,-1.3464,-1.3668,-1.3681,-1.3931,-1.4258,-1.4617,-1.5119,-1.5366,-1.5589,-1.5966,-1.6219,-1.6328,-1.6405,-1.6436,-1.6436,-1.6513,-1.6513,-1.6513,-1.6513,-1.6513,-1.6513,-1.6513,-1.6513,-1.6513,-1.6534,-1.6543,-1.6599,-1.6641,-1.6697,-1.6803,0.5132,0.5018,0.5018,0.5018,0.5018,0.5018,0.5018,0.5018,0.4979,0.4979,0.4781,0.4107,0.3049,0.2113,0.1686,0.1185,0.0,0.0322,0.0164,0.0,0.0,0.0,0.0,0.0,0.0,0.0,0.0,0.0,0.0,-0.0776,-0.1303,-0.1556,-0.2378,-0.3192,-0.3845,-0.4153,-0.4493,-0.5263,-0.5508,-0.555,-0.5554,-0.5494,-0.5708,-0.5957,-0.6155,-0.6306,-0.6701,-0.659,-0.6372,-0.6857,-0.6978,-0.7252,-0.744,-0.7741,-0.7901,-0.7901,-0.7928,-0.7928,-0.8055,-0.8189,-0.8242,-0.8527,-0.9021,-0.9814,-1.0346,-1.0821,-1.1082,-1.1074,-1.1544,-1.1769,-1.1902,-1.1952,-1.2101,-1.2126,-1.2184,-1.2224,-1.2274,-1.2323,-1.2421,-1.2505,-1.2554,-1.2637,-1.2774,-1.2847,-1.2881,-1.2929,-1.2978,-1.3099,-1.3416,-1.3823,-1.4035,-1.4421,-1.488,-1.5119,-1.5411,-1.579,-1.601,-1.6241,-1.6284,-1.6392,-1.6436,-1.6479,-1.6513,-1.6513,-1.6513,-1.6513,-1.6513,-1.6513,-1.6513,-1.6534,-1.6522,-1.6543,-1.6599,-1.6654,-1.6675,0.5518,0.5018,0.5018,0.5018,0.5018,0.5018,0.5018,0.5018,0.5018,0.5018,0.4898,0.4226,0.3791,0.3361,0.2662,0.2004,0.1222,0.1219,0.0765,0.0,0.0,0.0,0.0,0.0,0.0,0.0,0.0,0.0,0.0,0.0,0.0,-0.1336,-0.153,-0.2258,-0.2901,-0.3265,-0.3697,-0.4434,-0.4936,-0.5331,-0.5358,-0.5351,-0.5432,-0.5427,-0.5363,-0.5449,-0.6025,-0.5872,-0.601,-0.6754,-0.6842,-0.6982,-0.7203,-0.7601,-0.7741,-0.7768,-0.7875,-0.7875,-0.7955,-0.8029,-0.8168,-0.8427,-0.8863,-0.9458,-0.9884,-1.0236,-1.044,-1.0525,-1.0973,-1.1284,-1.1469,-1.1728,-1.1769,-1.1902,-1.1902,-1.1943,-1.1993,-1.2101,-1.22,-1.2308,-1.2406,-1.248,-1.2563,-1.2661,-1.2759,-1.2808,-1.2915,-1.3002,-1.2978,-1.3282,-1.3234,-1.3549,-1.4177,-1.4514,-1.4721,-1.5073,-1.5534,-1.5756,-1.5844,-1.612,-1.6349,-1.6414,-1.6349,-1.6513,-1.6513,-1.6513,-1.6513,-1.6513,-1.6513,-1.6513,-1.6534,-1.6543,-1.6543,-1.6577,-1.6556,0.5786,0.5518,0.5171,0.5018,0.5018,0.5018,0.5018,0.5018,0.5018,0.5018,0.4979,0.4662,0.4265,0.3834,0.3526,0.2867,0.2114,0.1489,0.1149,0.0713,0.0,0.0,0.0,0.0,0.0,0.0,0.0,0.0,0.0,0.0,0.0,-0.0499,0.0,-0.1174,-0.1789,-0.2556,-0.3112,-0.3503,-0.4149,-0.4588,-0.4647,-0.491,-0.5093,-0.5213,-0.516,-0.527,-0.5564,-0.5415,-0.5574,-0.5805,-0.6098,-0.635,-0.6603,-0.7085,-0.7354,-0.7467,-0.7655,-0.7821,-0.7875,-0.7975,-0.8062,-0.8242,-0.858,-0.8916,-0.9242,-0.9432,-0.9658,-0.9917,-1.031,-1.0635,-1.0812,-1.0939,-1.1057,-1.136,-1.1544,-1.161,-1.1769,-1.1902,-1.2051,-1.2209,-1.2283,-1.2382,-1.2431,-1.2505,-1.2637,-1.2735,-1.2832,-1.2915,-1.2915,-1.2929,-1.2978,-1.3113,-1.3752,-1.4131,-1.434,-1.4709,-1.513,-1.5276,-1.5421,-1.57,-1.5976,-1.6042,-1.6042,-1.6272,-1.6513,-1.6513,-1.6513,-1.6513,-1.6513,-1.6513,-1.6513,-1.6513,-1.6513,-1.6513,-1.6513,0.636,0.6093,0.5401,0.5054,0.5018,0.5018,0.5018,0.5018,0.5018,0.5018,0.5018,0.4979,0.476,0.4295,0.416,0.3748,0.3061,0.2454,0.1832,0.1315,0.0774,0.0301,0.0,0.0,0.0,0.0,0.0,0.0,0.0,0.0,0.0,0.0,0.0,0.0,-0.0947,-0.1838,-0.2444,-0.2855,-0.3458,-0.4094,-0.4318,-0.466,-0.4888,-0.5006,-0.4981,-0.5006,-0.5094,-0.503,-0.5054,-0.5239,-0.5438,-0.5567,-0.5875,-0.6263,-0.6729,-0.7025,-0.73,-0.7655,-0.7681,-0.7848,-0.7955,-0.8082,-0.8242,-0.8374,-0.8448,-0.8718,-0.9021,-0.9126,-0.9555,-0.9961,-1.0115,-1.032,-1.0593,-1.0914,-1.1209,-1.1334,-1.1594,-1.1778,-1.1952,-1.211,-1.2175,-1.2224,-1.2298,-1.2382,-1.2529,-1.2661,-1.2759,-1.2832,-1.2915,-1.2929,-1.2992,-1.3186,-1.3501,-1.38,-1.4025,-1.4363,-1.4686,-1.4824,-1.4983,-1.5197,-1.5421,-1.5533,-1.5888,-1.6293,-1.6457,-1.6513,-1.6513,-1.6513,-1.6513,-1.6513,-1.6513,-1.6513,-1.6513,-1.6513,-1.6513,0.7437,0.6788,0.5822,0.5285,0.521,0.5018,0.5018,0.5018,0.5018,0.5018,0.5018,0.5018,0.5078,0.5005,0.4917,0.4581,0.4138,0.3771,0.3069,0.2043,0.1693,0.0956,0.0,0.0,0.0,0.0,0.0,0.0,0.0,0.0,0.0,0.0,0.0,0.0,0.0,-0.0902,-0.1721,-0.245,-0.3186,-0.378,-0.4316,-0.456,-0.464,-0.4852,-0.4824,-0.4818,-0.4818,-0.4787,-0.4862,-0.5047,-0.5104,-0.5348,-0.5753,-0.5964,-0.6204,-0.6263,-0.681,-0.7085,-0.7139,-0.7607,-0.7821,-0.7955,-0.8115,-0.8189,-0.8221,-0.8374,-0.8501,-0.8633,-0.8968,-0.9256,-0.9536,-0.9814,-1.0064,-1.0372,-1.0609,-1.0871,-1.1108,-1.1209,-1.1284,-1.1485,-1.1843,-1.2067,-1.2175,-1.2274,-1.2455,-1.2578,-1.2652,-1.2759,-1.2856,-1.2929,-1.2978,-1.3065,-1.3296,-1.3406,-1.3634,-1.3978,-1.4247,-1.4365,-1.4457,-1.4583,-1.4846,-1.5096,-1.5555,-1.6185,-1.6293,-1.6185,-1.6349,-1.6513,-1.6513,-1.6513,-1.6513,-1.6513,-1.6513,-1.6513,-1.6513,0.847,0.8237,0.7468,0.7126,0.6861,0.5556,0.5018,0.5018,0.5018,0.5018,0.5018,0.5018,0.5159,0.5302,0.5419,0.5349,0.539,0.4622,0.3859,0.3707,0.3124,0.2273,0.1657,0.1304,0.1039,0.0561,0.0387,0.0387,0.0,0.0301,0.0,0.0,0.0,0.0,0.0,-0.0392,-0.0663,-0.092,-0.1585,-0.2298,-0.3029,-0.3578,-0.4074,-0.4537,-0.4558,-0.4593,-0.4608,-0.4564,-0.4722,-0.4753,-0.4763,-0.4843,-0.5068,-0.5195,-0.5519,-0.5687,-0.615,-0.648,-0.6647,-0.7004,-0.7521,-0.7735,-0.7955,-0.8035,-0.8035,-0.8029,-0.8109,-0.8221,-0.8448,-0.8659,-0.8784,-0.8863,-0.9086,-0.9503,-0.9795,-1.0038,-1.0244,-1.0226,-1.0303,-1.0626,-1.0981,-1.1326,-1.151,-1.1685,-1.1884,-1.2264,-1.2372,-1.2676,-1.2856,-1.2891,-1.2929,-1.2929,-1.3041,-1.3089,-1.3248,-1.3549,-1.3621,-1.3634,-1.3671,-1.3729,-1.4061,-1.4664,-1.5175,-1.5744,-1.581,-1.5854,-1.6185,-1.6448,-1.6491,-1.6513,-1.6513,-1.6513,-1.6513,-1.6513,-1.6513,0.9306,0.9231,0.8499,0.819,0.7927,0.636,0.5518,0.5249,0.521,0.521,0.521,0.5212,0.5388,0.5606,0.5673,0.582,0.6221,0.5674,0.4947,0.4951,0.4406,0.3493,0.2857,0.2538,0.2021,0.1449,0.1404,0.1448,0.1141,0.1133,0.0,0.0,0.0,0.0,0.0,0.0,-0.0312,-0.0694,-0.134,-0.1688,-0.228,-0.272,-0.3169,-0.3594,-0.3849,-0.4066,-0.4218,-0.4355,-0.4493,-0.4322,-0.4267,-0.4257,-0.4307,-0.446,-0.4783,-0.5003,-0.541,-0.5878,-0.629,-0.6485,-0.6918,-0.7166,-0.7601,-0.7875,-0.7901,-0.7928,-0.7981,-0.8062,-0.8082,-0.8189,-0.8315,-0.8315,-0.8501,-0.8916,-0.9256,-0.9529,-0.9684,-0.9736,-0.9994,-1.0269,-1.0338,-1.066,-1.0863,-1.104,-1.1217,-1.1676,-1.2082,-1.2446,-1.2808,-1.2866,-1.2891,-1.2905,-1.2905,-1.2978,-1.3002,-1.3051,-1.3075,-1.2939,-1.3051,-1.3234,-1.3847,-1.4514,-1.4903,-1.5344,-1.569,-1.601,-1.6197,-1.6362,-1.6405,-1.6448,-1.647,-1.6491,-1.6513,-1.6513,-1.6513,0.9911,0.9803,0.8879,0.8571,0.8338,0.751,0.6556,0.5718,0.5685,0.5652,0.561,0.5584,0.575,0.5961,0.5931,0.6059,0.6296,0.6208,0.5783,0.5302,0.5143,0.4454,0.3984,0.3678,0.3089,0.2838,0.2712,0.2612,0.227,0.2391,0.2273,0.1626,0.0792,0.0,0.0,0.0,-0.0235,-0.0663,-0.0893,-0.1324,-0.1897,-0.2133,-0.2353,-0.2662,-0.2947,-0.3119,-0.3339,-0.36,-0.3871,-0.3935,-0.3999,-0.4036,-0.4042,-0.4002,-0.4024,-0.4239,-0.478,-0.5304,-0.5769,-0.5964,-0.6154,-0.6426,-0.7166,-0.7628,-0.7741,-0.7628,-0.7741,-0.7821,-0.7869,-0.8029,-0.8135,-0.8189,-0.8242,-0.8633,-0.9001,-0.923,-0.9406,-0.964,-0.9969,-1.0141,-1.009,-1.0218,-1.0346,-1.0474,-1.066,-1.1276,-1.1735,-1.2141,-1.248,-1.2808,-1.2832,-1.2856,-1.2881,-1.2905,-1.2915,-1.2905,-1.2915,-1.2915,-1.2929,-1.3162,-1.3789,-1.4177,-1.4387,-1.4846,-1.5714,-1.6122,-1.6175,-1.6231,-1.6287,-1.6331,-1.6383,-1.6457,-1.65,-1.6513,-1.6513,1.0574,1.0694,1.0426,1.0314,1.0201,0.9377,0.8122,0.6644,0.6585,0.6403,0.5814,0.5814,0.6052,0.6258,0.614,0.633,0.6498,0.6557,0.6425,0.6229,0.607,0.5564,0.5201,0.4864,0.428,0.3794,0.3632,0.3802,0.3311,0.3464,0.3266,0.2576,0.1732,0.1333,0.098,0.0549,0.0157,-0.0235,-0.0353,-0.0876,-0.1292,-0.1457,-0.1618,-0.1944,-0.2214,-0.2362,-0.2498,-0.2666,-0.2952,-0.3263,-0.3274,-0.3396,-0.3996,-0.3913,-0.3879,-0.3993,-0.4267,-0.4487,-0.4791,-0.5167,-0.5441,-0.5609,-0.6263,-0.6566,-0.6783,-0.7025,-0.7279,-0.7386,-0.7521,-0.7655,-0.7702,-0.7756,-0.7889,-0.8182,-0.8501,-0.8705,-0.889,-0.9152,-0.9484,-0.9536,-0.951,-0.9658,-0.9762,-0.984,-1.0097,-1.0795,-1.1334,-1.166,-1.2141,-1.2455,-1.2735,-1.2759,-1.2832,-1.2856,-1.2881,-1.2881,-1.2905,-1.2915,-1.2929,-1.2978,-1.332,-1.3634,-1.38,-1.4351,-1.521,-1.5724,-1.6022,-1.61,-1.6156,-1.6265,-1.6318,-1.6414,-1.6479,-1.6479,-1.6513,1.0779,1.096,1.1075,1.1117,1.0999,1.0594,0.9453,0.8187,0.7858,0.7277,0.658,0.657,0.6501,0.641,0.6361,0.6478,0.6698,0.6674,0.6632,0.6627,0.6841,0.6389,0.6075,0.5909,0.5384,0.4889,0.4727,0.5005,0.4442,0.4091,0.3883,0.3653,0.2856,0.2425,0.2112,0.1801,0.1528,0.1019,0.0506,-0.0152,-0.0483,0.0,0.0,-0.1258,-0.1479,-0.1679,-0.1746,-0.1846,-0.2271,-0.2552,-0.2568,-0.2679,-0.3203,-0.321,-0.3627,-0.3741,-0.3935,-0.4076,-0.427,-0.446,-0.4677,-0.4869,-0.5199,-0.5312,-0.5778,-0.6127,-0.6485,-0.6783,-0.6999,-0.7192,-0.7192,-0.7241,-0.7461,-0.7702,-0.7889,-0.8096,-0.8315,-0.856,-0.8692,-0.8771,-0.887,-0.9028,-0.9133,-0.923,-0.9387,-0.9829,-1.0233,-1.0566,-1.1276,-1.2008,-1.2397,-1.2637,-1.2735,-1.2808,-1.2832,-1.2856,-1.2881,-1.2891,-1.2915,-1.2978,-1.3065,-1.332,-1.3705,-1.4165,-1.472,-1.5198,-1.5691,-1.5913,-1.6035,-1.6122,-1.621,-1.6262,-1.6349,-1.647,-1.6491,1.0647,1.0713,1.1003,1.1117,1.1117,1.1037,1.0588,0.9954,0.9208,0.8374,0.7709,0.7516,0.7117,0.6798,0.673,0.6615,0.6728,0.6756,0.6749,0.6712,0.6759,0.6566,0.6564,0.6719,0.608,0.5952,0.5933,0.5887,0.5471,0.5162,0.4946,0.4735,0.3828,0.332,0.3202,0.2891,0.2574,0.2246,0.139,0.0533,0.0222,0.0,0.0,0.0,-0.0606,-0.1043,-0.1143,-0.1466,-0.1932,-0.1926,-0.1897,-0.1883,-0.215,-0.238,-0.2989,-0.332,-0.3461,-0.363,-0.3771,-0.399,-0.4073,-0.4132,-0.4135,-0.4384,-0.4873,-0.5555,-0.6018,-0.6209,-0.6426,-0.662,-0.6669,-0.6669,-0.6837,-0.702,-0.7208,-0.7396,-0.761,-0.791,-0.8229,-0.8362,-0.8639,-0.8791,-0.8903,-0.9035,-0.9211,-0.9244,-0.9446,-0.9829,-1.0405,-1.1367,-1.1834,-1.2224,-1.2348,-1.2455,-1.271,-1.2759,-1.2832,-1.2866,-1.2891,-1.2978,-1.3065,-1.3358,-1.3705,-1.4142,-1.4582,-1.4937,-1.5334,-1.5647,-1.5925,-1.5979,-1.6044,-1.6088,-1.6197,-1.634,-1.6405,1.0328,1.0707,1.1003,1.1117,1.1117,1.1117,1.0999,1.0812,1.0625,0.9769,0.8624,0.7981,0.76,0.7418,0.7297,0.7113,0.6734,0.7138,0.6924,0.6712,0.6674,0.6651,0.6501,0.6637,0.6386,0.6361,0.6434,0.6547,0.6153,0.6033,0.5964,0.5766,0.4924,0.4453,0.4295,0.3906,0.3496,0.3383,0.263,0.1771,0.1354,0.0,0.0,0.0,-0.0236,-0.0303,0.0,0.0,0.0,-0.1153,-0.1152,-0.1401,-0.1801,-0.1961,-0.2097,-0.232,-0.2764,-0.2989,-0.3183,-0.3436,-0.363,-0.3855,-0.3941,-0.3993,-0.4377,-0.5089,-0.5523,-0.5632,-0.5796,-0.5991,-0.61,-0.61,-0.6182,-0.6367,-0.6529,-0.6691,-0.688,-0.7337,-0.7738,-0.8064,-0.8395,-0.8586,-0.8725,-0.8883,-0.9061,-0.9263,-0.9465,-0.9744,-1.002,-1.0677,-1.1023,-1.1385,-1.1735,-1.1943,-1.2298,-1.2627,-1.27,-1.2783,-1.2808,-1.292,-1.3065,-1.32,-1.3406,-1.3978,-1.4444,-1.4709,-1.5074,-1.5603,-1.5802,-1.5869,-1.5935,-1.5979,-1.6044,-1.6166,-1.621,1.0075,1.0364,1.0617,1.0863,1.1063,1.0954,1.0966,1.1099,1.1117,1.0657,0.9848,0.9053,0.8515,0.8203,0.8056,0.7825,0.7407,0.7829,0.7555,0.7126,0.6874,0.6691,0.6619,0.6565,0.643,0.6409,0.6457,0.6464,0.6491,0.639,0.6279,0.6229,0.5709,0.5473,0.5276,0.4838,0.4503,0.4451,0.39,0.3339,0.268,0.0,0.0,0.0,0.0505,0.037,0.0,0.0,0.0,-0.0505,-0.0514,-0.085,-0.1183,-0.1373,-0.1568,-0.1846,-0.2124,-0.2319,-0.2486,-0.2738,-0.3044,-0.3158,-0.3463,-0.338,-0.3574,-0.4233,-0.4708,-0.4846,-0.5034,-0.5226,-0.5226,-0.5226,-0.55,-0.5687,-0.585,-0.6014,-0.6502,-0.7069,-0.7364,-0.761,-0.8017,-0.8501,-0.8613,-0.8685,-0.8844,-0.8962,-0.9211,-0.929,-0.9614,-0.9917,-1.0233,-1.0617,-1.0998,-1.146,-1.1852,-1.2249,-1.2578,-1.2652,-1.2725,-1.2847,-1.2944,-1.2944,-1.3104,-1.361,-1.4025,-1.4305,-1.472,-1.5255,-1.5669,-1.578,-1.5846,-1.5913,-1.5957,-1.5991,-1.6035,0.9871,0.9937,1.0196,1.0551,1.0948,1.0779,1.0846,1.1039,1.1093,1.1117,1.0911,1.0272,0.9609,0.9084,0.8856,0.8775,0.8737,0.8737,0.8318,0.7863,0.7778,0.7309,0.688,0.6645,0.6563,0.6415,0.6351,0.6412,0.6453,0.6381,0.6323,0.6303,0.63,0.6257,0.63,0.6251,0.5947,0.5569,0.5101,0.4669,0.4032,0.3246,0.2206,0.1593,0.1276,0.0874,0.0,0.0,0.0,0.0,0.0,-0.0373,-0.0592,-0.0784,-0.1008,-0.1259,-0.1539,-0.1651,-0.1762,-0.193,-0.1986,-0.2069,-0.2488,-0.2794,-0.2935,-0.3241,-0.3716,-0.3965,-0.4156,-0.4487,-0.4487,-0.4625,-0.4897,-0.5085,-0.5254,-0.5363,-0.5987,-0.6583,-0.6853,-0.7074,-0.7664,-0.8203,-0.8474,-0.8547,-0.8659,-0.8745,-0.8778,-0.8778,-0.891,-0.9185,-0.9491,-0.9906,-1.0336,-1.0795,-1.1402,-1.1952,-1.2421,-1.252,-1.2578,-1.2725,-1.2832,-1.2822,-1.292,-1.3176,-1.3549,-1.3931,-1.4305,-1.4777,-1.5164,-1.5558,-1.5603,-1.5625,-1.5859,-1.5881,-1.5859,0.9715,0.9925,1.0184,1.0358,1.0466,1.0599,1.0749,1.0791,1.1021,1.1117,1.1056,1.0956,1.0438,0.9652,0.9657,0.9501,0.9188,0.9382,0.9122,0.8613,0.8544,0.7979,0.7512,0.7312,0.6902,0.6655,0.649,0.6359,0.6613,0.6486,0.6335,0.6374,0.6377,0.6338,0.6338,0.6307,0.6149,0.5874,0.5768,0.5315,0.4743,0.3849,0.2816,0.2373,0.2246,0.171,0.0,0.0,0.0527,0.0,0.0,0.0,-0.0141,0.0,0.0,-0.0616,-0.0896,-0.1036,-0.1148,-0.1371,-0.1427,-0.1567,-0.193,-0.2041,-0.2181,-0.2293,-0.2655,-0.2824,-0.3183,-0.3965,-0.4159,-0.4408,-0.4653,-0.468,-0.4791,-0.4791,-0.5089,-0.5605,-0.5987,-0.6502,-0.7128,-0.7717,-0.8289,-0.8421,-0.8573,-0.8666,-0.8752,-0.8752,-0.8778,-0.8804,-0.8857,-0.9263,-0.9744,-1.0446,-1.1141,-1.1769,-1.2215,-1.2323,-1.2446,-1.2578,-1.2676,-1.27,-1.2847,-1.3055,-1.3358,-1.3742,-1.4095,-1.4362,-1.4686,-1.5028,-1.5164,-1.5289,-1.5558,-1.5647,-1.5536]}]]